     2              OBSERVATION DATA    GPS                 RINEX VERSION / TYPE
teqc 1997Jul24 19970814                                     PGM / RUN BY / DATE
                                                            COMMENT
BIT 2 OF LLI FLAGS DATA COLLECTED UNDER A-S CONDITION       COMMENT
BIT 2 OF LLI FLAGS DATA COLLECTED UNDER A-S CONDITION       COMMENT
Original Marker Name: 0512                                  COMMENT
Campaign Name: HPGN 1991                                    COMMENT
4-Character Station Name: 0512                              COMMENT
6-Character Antenna Code: TRMSST                            COMMENT
Vertical Measurement Point: BPA                             COMMENT
Vertical Offset to Rinex Ref. Point: 0.0000                 COMMENT
Radial Measurement Point: RRP                               COMMENT
Radial Offset to Rinex Ref. Point: 0.0000                   COMMENT
Antenna Height from Field Measurement: 2.2200 m             COMMENT
Original XYZ: -2671299.4266 -4389537.6202 3765841.4867      COMMENT
New XYZ position is based on association with SCEC monument COMMENT
E1F0Z1Z0+0011. Position of that monument is believed to be  COMMENT
valid to within 1 m horizontally; vertical accuracy         COMMENT
should be no worse than 3-times this value.                 COMMENT
                                                            COMMENT
Revised Rinex header created by UCSD GPS archive for        COMMENT
GSAC on 19-Apr-1999 (1999:109) 06:43:23 GMT                 COMMENT
For assistance contact dagnew@ucsd.edu or hjohnson@ucsd.edu COMMENT
                                                            COMMENT
HPGN CALIF STA 05-12 1990                                   MARKER NAME
unknown NATIONAL GEODETIC SURVEY                            OBSERVER / AGENCY
485 TRIMBLE 4000 SST NP 4.30 / SP 4.20                      REC # / TYPE / VERS
16 TR 4000SST L1/L2 GEO                                     ANT # / TYPE
 -2671297.0000 -4389537.0000  3765839.0000                  APPROX POSITION XYZ
        2.2200        0.0000        0.0000                  ANTENNA: DELTA H/E/N
     1     1     0                                          WAVELENGTH FACT L1/2
     3    C1    L1    L2                                    # / TYPES OF OBSERV
     0                                                      INTERVAL
  1991     5    13    18    22   30.000000                  TIME OF FIRST OBS
  1991     5    14     0    23   60.000000                  TIME OF LAST OBS
     0                                                      # OF SATELLITES
                                                            END OF HEADER
 91  5 13 18 22 30.0000000  0  4G18G11G19G 2
  20724671.031          -0.77818        -0.12332
  24435377.516          -0.55715        -0.37631
  20879201.4774         -0.04957        -0.15672
  24260740.914          -0.07315
 91  5 13 18 22 45.0000000  0  4G18G11G19G 2
  20727293.6564      13782.68348     10740.23162
  24427848.8204     -39548.25745    -30816.73261
  20878251.0394      -4990.74747     -3889.00262
  24250752.7664     -52490.43945        -0.22171
 91  5 13 18 23  0.0000000  0  4G18G11G19G 2
  20729920.070       27587.847 8     21497.48322
  24420323.2344     -79110.95045    -61644.77061
  20877299.3524     -10015.44747     -7804.35362
  24240752.7114    -105030.60645    -40940.42661
 91  5 13 18 23 15.0000000  0  4G18G11G19G 2
  20732554.930       41435.481 8     32287.82622
  24412794.984     -118667.806 5    -92468.25321
  20876336.8594     -15053.76447    -11730.30862
  24230749.531     -157599.847 5    -81903.31621
 91  5 13 18 23 30.0000000  0  4G18G11G19G 2
  20735198.4614      55330.22548     43114.88962
  24405272.1644    -158213.62445   -123283.15161
  20875379.6644     -20101.18447    -15663.36262
  24220738.2194    -210193.15045   -122884.91761
 91  5 13 18 23 45.0000000  0  4G18G11G19G 2
  20737849.297       69266.282 8     53974.13722
  24397742.680     -197754.045 5   -154093.81121
  20874413.6334     -25163.86147    -19608.29962
  24210724.672     -262816.614 5   -163890.04721
 91  5 13 18 24  0.0000000  0  4G18G11G19G 2
  20740510.688       83245.832 8     64867.27622
  24390221.3524    -237286.29245   -184898.12861
  20873448.5784     -30239.48847    -23563.33362
  24200703.4614    -315467.70945   -204916.71761
 91  5 13 18 24 15.0000000  0  4G18G11G19G 2
  20743183.383       97282.963 8     75805.28822
  24382704.008     -276795.822 5   -215684.73321
  20872481.3594     -35313.68247    -27517.24362
  24190683.070     -368131.840 5   -245953.53021
 91  5 13 18 24 30.0000000  0  4G18G11G19G 2
  20745863.141      111374.144 8     86785.41122
  24375191.195     -316285.780 5   -246456.08321
  20871516.9064     -40389.98047    -31472.78962
  24180657.094     -420812.433 5   -287003.17721
 91  5 13 18 24 45.0000000  0  4G18G11G19G 2
  20748557.0944     125526.79848     97813.44662
  24367678.4384    -355748.17845   -277205.95261
  20870550.1954     -45461.00347    -35424.23262
  24170630.961     -473501.627 5   -328059.51321
 91  5 13 18 25  0.0000000  0  4G18G11G19G 2
  20751258.1724     139722.85548    108875.29862
  24360172.5474    -395201.11045   -307948.45861
  20869584.6024     -50545.19847    -39385.93762
  24160603.391     -526217.632 5   -369136.75021
 91  5 13 18 25 15.0000000  0  4G18G11G19G 2
  20753971.383      153977.464 8    119982.76522
  24352668.3594    -434628.71345   -338671.23161
  20868616.3364     -55627.27047    -43345.98362
  24150565.516     -578944.955 5   -410222.81921
 91  5 13 18 25 30.0000000  0  4G18G11G19G 2
  20756695.805      168298.687 8    131142.14122
  24345174.7424    -474022.67145   -369367.78461
  20867654.4144     -60699.28147    -47298.18662
  24140531.617     -631675.446 5   -451311.31821
 91  5 13 18 25 45.0000000  0  4G18G11G19G 2
  20759430.289      182672.447 7    142342.45722
  24337680.984     -513396.551 5   -400048.69121
  20866686.3204     -65775.17747    -51253.42362
  24130497.2814    -684422.89245   -492413.04461
 91  5 13 18 26  0.0000000  0  4G18G11G19G 2
  20762178.133      197103.957 7    153587.78022
  24330193.727     -552744.681 5   -430709.52221
  20865723.2974     -70849.83047    -55207.68962
  24120452.781     -737181.837 5   -533523.74421
 91  5 13 18 26 15.0000000  0  4G18G11G19G 2
  20764936.430      211601.325 7    164884.41422
  24322712.7584    -592058.59145   -461343.69961
  20864756.0864     -75915.31647    -59154.81462
  24110412.9924    -789944.02845   -574636.96961
 91  5 13 18 26 30.0000000  0  4G18G11G19G 2
  20767706.3594     226162.41147    176230.70362
  24315237.016     -631339.820 6   -491952.40221
  20863797.2424     -80973.45247    -63096.20762
  24100374.1884    -842711.02645   -615753.92761
 91  5 13 18 26 45.0000000  0  4G18G11G19G 2
  20770488.328      240770.518 7    187613.63322
  24307763.984     -670604.999 5   -522548.60121
  20862829.9064     -86041.22447    -67045.11662
  24090324.250     -895499.679 5   -656887.78421
 91  5 13 18 27  0.0000000  0  4G18G11G19G 2
  20773275.648      255424.716 7    199032.47422
  24300295.7274    -709854.49845   -553132.59961
  20861864.9224     -91119.72247    -71002.37562
  24080279.6564    -948310.83445   -698039.17261
 91  5 13 18 27 15.0000000  0  4G18G11G19G 2
  20776077.203      270145.782 7    210503.41623
  24292831.234     -749067.354 5   -583688.01321
  20860896.7424     -96188.38347    -74951.97462
  24070229.1024   -1001123.56845   -739191.79961
 91  5 13 18 27 30.0000000  0  4G18G11G19G 2
  20778892.4144     284941.38347    222032.44463
  24285380.2424    -788235.32345   -614208.46261
  20859939.1954    -101239.25247    -78887.70762
  24060174.188    -1053929.691 5   -780339.28721
 91  5 13 18 27 45.0000000  0  4G18G11G19G 2
  20781716.3364     299788.62247    233601.71463
  24277931.2894    -827380.73645   -644711.32561
  20858975.7734    -106295.13747    -82827.35262
  24050123.938    -1106751.957 5   -821499.36021
 91  5 13 18 28  0.0000000  0  4G18G11G19G 2
  20784554.219      314688.808 7    245212.23423
  24270484.3834    -866501.86745   -675195.26561
  20858012.1094    -111354.68647    -86769.85262
  24040073.688    -1159588.874 5   -862670.85821
 91  5 13 18 28 15.0000000  0  4G18G11G19G 2
  20787402.7274     329661.07247    256878.92263
  24263047.109     -905579.436 5   -705645.28221
  20857052.4144    -116398.95047    -90700.43962
  24030020.945    -1212421.080 5   -903838.67421
 91  5 13 18 28 30.0000000  0  4G18G11G19G 2
  20790262.2664     344692.56447    268591.75963
  24255621.7894    -944625.75345   -736070.92561
  20856095.5864    -121440.79047    -94629.14062
  24019967.656    -1265261.095 5   -945012.58021
 91  5 13 18 28 45.0000000  0  4G18G11G19G 2
  20793131.703      359774.042 7    280343.54923
  24248195.4694    -983649.37945   -766478.88961
  20855133.7814    -126489.26047    -98563.00862
  24009907.5394   -1318117.76845   -986199.45961
 91  5 13 18 29  0.0000000  0  4G18G11G19G 2
  20796014.031      374917.913 7    292143.95323
  24240774.1564   -1022637.67345   -796859.34761
  20854172.6254    -131532.22447   -102492.59062
  23999851.820    -1370978.801 5  -1027389.74421
 91  5 13 18 29 15.0000000  0  4G18G11G19G 2
  20798909.469      390128.025 7    303995.97623
  24233365.086    -1061586.517 5   -827209.02921
  20853214.7344    -136566.07547   -106415.06062
  23989792.383    -1423840.226 5  -1068580.31321
 91  5 13 18 29 30.0000000  0  4G18G11G19G 2
  20801816.3984     405402.47047    315898.13063
  24225957.891    -1100497.419 5   -857529.15221
  20852259.9614    -141592.69147   -110331.90562
  23979727.0784   -1476703.76445  -1109772.55761
 91  5 13 18 29 45.0000000  0  4G18G11G19G 2
  20804733.3674     420742.26247    327851.20263
  24218559.5554   -1139368.74045   -887818.45561
  20851303.1414    -146610.88047   -114242.17362
  23969669.273    -1529568.013 5  -1150965.37721
 91  5 13 18 30  0.0000000  0  4G18G11G19G 2
  20807666.3204     436155.65947    339861.63163
  24211172.8834   -1178191.91645   -918070.24361
  20850351.6564    -151612.39647   -118139.45762
  23959613.914    -1582424.348 5  -1192151.97721
 91  5 13 18 30 15.0000000  0  4G18G11G19G 2
  20810616.5704     451644.85947    351931.13163
  24203796.930    -1216964.267 5   -948282.39621
  20849403.0784    -156595.03447   -122022.02862
  23949551.539    -1635270.610 5  -1233330.75021
 91  5 13 18 30 30.0000000  0  4G18G11G19G 2
  20813575.3834     467196.23847    364049.07663
  24196425.898    -1255698.893 5   -978465.16521
  20848457.1564    -161572.42247   -125900.50562
  23939500.063    -1688120.086 5  -1274512.02021
 91  5 13 18 30 45.0000000  0  4G18G11G19G 2
  20816545.6254     482810.47847    376216.00763
  24189063.695    -1294394.651 5  -1008617.66621
  20847510.9224    -166543.71447   -129774.23162
  23929444.141    -1740971.667 5  -1315694.92821
 91  5 13 18 31  0.0000000  0  4G18G11G19G 2
  20819530.2344     498491.32947    388434.84163
  24181703.1724   -1333047.63745  -1038736.82961
  20846565.6884    -171505.50647   -133640.56062
  23919381.4064   -1793821.47445  -1356876.47561
 91  5 13 18 31 15.0000000  0  4G18G11G19G 2
  20822525.1644     514232.23747    400700.47163
  24174358.813    -1371663.949 5  -1068827.41221
  20845623.3364    -176464.22347   -137504.49262
  23909324.156    -1846675.989 5  -1398061.68821
 91  5 13 18 31 30.0000000  0  4G18G11G19G 2
  20825534.8914     530036.67447    413015.60863
  24167016.898    -1410239.696 5  -1098886.38821
  20844679.6024    -181416.54347   -141363.43562
  23899259.9144   -1899531.64745  -1439247.79161
 91  5 13 18 31 45.0000000  0  4G18G11G19G 2
  20828553.180      545917.058 7    425389.92223
  24159687.594    -1448762.077 5  -1128903.78721
  20843740.9224    -186349.97247   -145207.66562
  23889209.9844   -1952375.76245  -1480424.89761
 91  5 13 18 32  0.0000000  0  4G18G11G19G 2
  20831588.1564     561855.38647    437809.38463
  24152359.3984   -1487248.50445  -1158893.15561
  20842802.9144    -191282.32647   -149051.04962
  23879152.6094   -2005225.86546  -1521606.67461
 91  5 13 18 32 15.0000000  0  4G18G11G19G 2
  20834631.7734     577859.26747    450279.93463
  24145047.477    -1525690.955 5  -1188848.26321
  20841867.1484    -196205.85747   -152887.56362
  23869096.6024   -2058074.12345  -1562787.00061
 91  5 13 18 32 30.0000000  0  5G18G11G19G 2G16
  20837691.4144     593930.38047    462802.86863
  24137740.2504   -1564087.60845  -1218767.68761
  20840929.7814    -201119.27547   -156716.19062
  23859040.430    -2110918.932 6  -1603964.63621
  24384361.4844         -0.43755
 91  5 13 18 32 45.0000000  0  5G18G11G19G 2G16
  20840763.5944     610067.97547    475377.60563
  24130443.0784   -1602438.81845  -1248651.72361
  20839997.0394    -206023.52947   -160537.68562
  23848983.078    -2163761.016 5  -1645140.16121
  24377114.4304     -38073.99545
 91  5 13 18 33  0.0000000  0  5G18G11G19G 2G16
  20843846.2034     626274.47447    488006.03663
  24123154.1954   -1640741.40445  -1278497.86761
  20839070.1564    -210915.91247   -164349.92862
  23838925.914    -2216597.320 5  -1686311.17021
  24369881.2274     -76078.88545
 91  5 13 18 33 15.0000000  0  5G18G11G19G 2G16
  20846944.7034     642554.40747    500691.68863
  24115874.125    -1678990.210 5  -1308302.06621
  20838139.3284    -215791.76947   -168149.29462
  23828877.523    -2269422.897 6  -1727473.82221
  24362662.906     -114009.892 5
 91  5 13 18 33 30.0000000  0  5G18G11G19G 2G16
  20850052.055      658886.788 7    513418.20323
  24108601.7114   -1717206.23545  -1338080.74961
  20837211.3134    -220672.44347   -171952.41062
  23818823.0084   -2322258.73246  -1768644.48661
  24355455.8444    -151888.16645
 91  5 13 18 33 45.0000000  0  5G18G11G19G 2G16
  20853173.4304     675284.65247    526195.74563
  24101339.391    -1755376.065 6  -1367823.42021
  20836283.2114    -225544.73247   -175748.99262
  23808773.1644   -2375091.71246  -1809812.91761
  24348255.5004    -189700.54345        -0.19271
 91  5 13 18 34  0.0000000  0  5G18G11G19G 2G16
  20856308.8444     691767.20247    539039.28163
  24094088.7274   -1793479.97246  -1397514.75361
  20835362.6724    -230389.34747   -179524.01662
  23798718.336    -2427902.267 5  -1850963.86221
  24341078.8914    -227427.11545    -29397.44061
 91  5 13 18 34 15.0000000  0  5G18G11G19G 2G16
  20859457.789      708315.300 7    551933.88723
  24086847.0004   -1831536.54846  -1427169.19361
  20834441.0004    -235225.38347   -183292.34462
  23788672.484    -2480709.163 5  -1892111.95921
  24333911.734     -265086.787 5    -58742.58121
 91  5 13 18 34 30.0000000  0  5G18G11G19G 2G16
  20862621.8674     724939.08447    564887.47663
  24079615.9924   -1869535.27346  -1456778.55861
  20833526.0554    -240042.72347   -187046.11262
  23778623.1564   -2533502.18145  -1933249.24361
  24326763.008     -302669.358 5    -88027.58621
 91  5 13 18 34 45.0000000  0  5G18G11G19G 2G16
  20865801.219      741641.247 7    577902.13423
  24072396.1954   -1907473.25246  -1486340.57661
  20832613.0634    -244838.98447   -190783.44962
  23768582.4454   -2586278.56946  -1974373.58561
  24319624.1564    -340171.75845   -117250.16261
 91  5 13 18 35  0.0000000  0  5G18G11G19G 2G16
  20868993.102      758424.120 7    590979.68423
  24065189.3444   -1945347.40146  -1515852.87161
  20831704.8364    -249611.40047   -194502.20962
  23758546.156    -2639035.587 6  -2015482.82721
  24312506.766     -377591.333 5   -146408.17221
 91  5 13 18 35 15.0000000  0  5G18G11G19G 2G16
  20872200.141      775276.868 7    604111.67823
  24057991.5864   -1983168.14846  -1545323.55361
  20830795.5084    -254370.77947   -198210.81362
  23748510.8524   -2691783.69846  -2056585.13061
  24305398.2734    -414938.41645   -175509.71761
 91  5 13 18 35 30.0000000  0  5G18G11G19G 2G16
  20875420.828      792195.899 7    617295.32323
  24050801.5234   -2020938.68346  -1574755.10661
  20829896.1644    -259120.82447   -201912.13862
  23738471.9774   -2744526.30146  -2097683.13161
  24298300.9304    -452216.20445   -204557.26861
 91  5 13 18 35 45.0000000  0  5G18G11G19G 2G16
  20878650.9064     809181.89547    630531.15463
  24043627.4304   -2058658.25246  -1604146.95761
  20828991.3284    -263861.04747   -205605.81662
  23728431.633    -2797262.737 6  -2138776.34321
  24291222.5394    -489424.36345   -233550.56261
 91  5 13 18 36  0.0000000  0  5G18G11G19G 2G16
  20881897.250      826234.803 7    643819.11923
  24036459.6094   -2096326.34046  -1633498.66661
  20828090.0004    -268591.36347   -209291.77362
  23718398.1484   -2849992.84746  -2179864.61761
  24284156.969     -526562.368 5   -262489.18721
 91  5 13 18 36 15.0000000  0  5G18G11G19G 2G16
  20885156.281      843355.023 7    657159.52923
  24029300.102    -2133941.872 6  -1662809.43721
  20827193.2814    -273311.18247   -212969.55162
  23708361.6564   -2902715.84145  -2220947.36161
  24277104.0554    -563629.30345   -291372.40061
 91  5 13 18 36 30.0000000  0  5G18G11G19G 2G16
  20888428.1884     860545.16747    670554.43563
  24022153.883    -2171501.798 5  -1692076.88921
  20826298.9534    -278018.04447   -216637.22362
  23698329.516    -2955428.720 5  -2262022.20021
  24270063.8754    -600622.25645   -320198.01061
 91  5 13 18 36 45.0000000  0  5G18G11G19G 2G16
  20891711.984      877809.437 7    684007.10223
  24015017.008    -2209001.769 6  -1721297.61921
  20825406.3524    -282707.88347   -220291.64162
  23688304.2814   -3008127.19446  -2303085.82661
  24263041.7974    -637536.98445   -348962.65261
 91  5 13 18 37  0.0000000  0  5G18G11G19G 2G16
  20895011.195      895150.330 7    697519.46823
  24007893.2424   -2246438.61646  -1750469.17161
  20824519.9064    -287378.00147   -223930.68662
  23678281.133    -3060808.414 6  -2344136.01221
  24256028.0784    -674370.58945   -377664.09661
 91  5 13 18 37 15.0000000  0  5G18G11G19G 2G16
  20898328.156      912576.781 7    711098.49923
  24000779.398    -2283803.221 6  -1779584.40721
  20823634.8444    -292019.57347   -227547.49462
  23668261.2584   -3113463.50245  -2385165.82861
  24249038.039     -711113.895 5   -406295.14521
 91  5 13 18 37 30.0000000  0  5G18G11G19G 2G16
  20901667.000      930120.746 7    724769.11223
  23993693.742    -2321062.905 6  -1808617.89421
  20822761.1884    -296600.41947   -231116.97262
  23658251.719    -3166059.929 5  -2426149.91921
  24242071.3754    -747734.48445   -434830.59061
 91  5 13 18 37 45.0000000  0  5G18G11G19G 2G16
  20905080.813      948061.014 7    738748.52723
  23986673.5004   -2357938.60145  -1837352.14361
  20821954.7034    -300841.90847   -234422.02362
  23648306.391    -3218318.775 6  -2466870.99021
  24235175.1254    -783953.68545   -463053.27961
 91  5 13 18 38  0.0000000  0  5G18G11G19G 2G16
  20908525.445      966163.302 7    752854.18423
  23979684.922    -2394664.305 5  -1865969.52921
  20821172.0474    -304978.15847   -237645.06662
  23638381.992    -3270474.109 6  -2507511.40521
  24228316.1254    -820005.42045   -491145.45761
 91  5 13 18 38 15.0000000  0  5G18G11G19G 2G16
  20911985.789      984344.891 7    767021.63523
  23972709.6094   -2431322.39946  -1894534.25061
  20820384.5314    -309091.90947   -240850.57462
  23628459.3204   -3322608.63645  -2548135.59161
  24221470.516     -855971.910 5   -519171.21621
 91  5 13 18 38 30.0000000  0  5G18G11G19G 2G16
  20915460.891     1002602.843 7    781248.59323
  23965746.875    -2467915.113 6  -1923048.03621
  20819608.3134    -313185.84347   -244040.64562
  23618541.648    -3374724.693 5  -2588745.38721
  24214645.922     -891855.731 5   -547132.57721
 91  5 13 18 38 45.0000000  0  5G18G11G19G 2G16
  20918951.211     1020948.065 7    795543.55423
  23958799.188    -2504431.239 5  -1951502.13721
  20818832.6644    -317249.29847   -247206.96862
  23608632.242    -3426811.408 5  -2629332.32121
  24207833.0394    -927645.77245   -575020.82661
 91  5 13 18 39  0.0000000  0  5G18G11G19G 2G16
  20922457.289     1039379.405 7    809905.61623
  23951862.422    -2540871.579 5  -1979897.16721
  20818068.2114    -321283.61047   -250350.58262
  23598725.9774   -3478869.85945  -2669897.21561
  24201035.781     -963342.926 5   -602836.72621
 91  5 13 18 39 15.0000000  0  5G18G11G19G 2G16
  20925981.461     1057892.072 7    824331.04823
  23944943.8284   -2577240.42245  -2008236.45161
  20817301.1884    -325293.37047   -253475.06462
  23588823.320    -3530904.267 6  -2710443.38821
  24194263.0084    -998951.81145   -630583.82961
 91  5 13 18 39 30.0000000  0  5G18G11G19G 2G16
  20929517.539     1076486.317 7    838820.04823
  23938037.625    -2613536.919 6  -2036519.39421
  20816546.1024    -329278.27747   -256580.18062
  23578926.273    -3582914.041 6  -2750970.39021
  24187507.406    -1034471.660 5   -658261.57121
 91  5 13 18 39 45.0000000  0  5G18G11G19G 2G16
  20933069.992     1095157.968 7    853369.36723
  23931144.1174   -2649764.92745  -2064749.00161
  20815789.8364    -333242.36947   -259669.07662
  23569033.664    -3634903.441 6  -2791481.49821
  24180762.992    -1069906.644 5   -685873.16421
 91  5 13 18 40  0.0000000  0  5G18G11G19G 2G16
  20936642.250     1113909.539 7    867980.95923
  23924260.4844   -2685921.51045  -2092922.92261
  20815038.8674    -337183.11747   -262739.78662
  23559146.430    -3686869.603 6  -2831974.50221
  24174033.6334   -1105253.78545   -713416.32561
 91  5 13 18 40 15.0000000  0  5G18G11G19G 2G16
  20940223.711     1132736.090 7    882650.97423
  23917395.227    -2722011.024 5  -2121044.57021
  20814291.4454    -341105.40847   -265796.11162
  23549260.477    -3738817.146 6  -2872452.99321
  24167323.4534   -1140517.77045   -740894.70861
 91  5 13 18 40 30.0000000  0  5G18G11G19G 2G16
  20943820.063     1151639.781 7    897381.10623
  23910539.594    -2758030.941 6  -2149111.99121
  20813551.2584    -345007.08047   -268836.36962
  23539379.664    -3790743.753 6  -2912915.17021
  24160630.719    -1175695.994 5   -768306.22121
 91  5 13 18 40 45.0000000  0  5G18G11G19G 2G16
  20947430.391     1170617.115 7    912168.62223
  23903697.5234   -2793984.40046  -2177127.63761
  20812810.4844    -348891.75447   -271863.38462
  23529498.641    -3842652.600 6  -2953363.51621
  24153952.977    -1210791.605 5   -795653.35821
 91  5 13 18 41  0.0000000  0  5G18G11G19G 2G16
  20951056.945     1189666.833 7    927012.53323
  23896869.781    -2829872.282 6  -2205092.15921
  20812076.0864    -352760.42947   -274877.93262
  23519627.359    -3894544.569 6  -2993798.70221
  24147291.297    -1245805.521 5   -822936.86821
 91  5 13 18 41 15.0000000  0  5G18G11G19G 2G16
  20954695.609     1208787.312 7    941911.58923
  23890051.5314   -2865696.03645  -2233006.74161
  20811341.6644    -356615.00747   -277881.49662
  23509755.656    -3946421.413 6  -3034222.10021
  24140640.516    -1280739.580 5   -850158.12321
 91  5 13 18 41 30.0000000  0  5G18G11G19G 2G16
  20958346.297     1227981.016 7    956867.70223
  23883247.031    -2901452.481 6  -2260868.86321
  20810610.6094    -360452.71347   -280871.91462
  23499887.445    -3998280.209 6  -3074631.44621
  24134007.8524   -1315590.58745   -877314.65661
 91  5 13 18 41 45.0000000  0  5G18G11G19G 2G16
  20962015.219     1247254.564 7    971886.03223
  23876457.4844   -2937134.54546  -2288673.03861
  20809886.0554    -364267.02747   -283844.09662
  23490020.617    -4050114.189 6  -3115021.45321
  24127394.5084   -1350351.84845   -904401.28761
 91  5 13 18 42  0.0000000  0  5G18G11G19G 2G16
  20965697.391     1266597.617 7    986958.51523
  23869679.445    -2972752.439 6  -2316427.21521
  20809163.7274    -368068.19747   -286806.04562
  23480156.156    -4101933.502 6  -3155400.03421
  24120794.8134   -1385033.49045   -931425.85861
 91  5 13 18 42 15.0000000  0  5G18G11G19G 2G16
  20969391.625     1286011.422 7   1002086.13423
  23862913.883    -3008304.406 6  -2344129.99321
  20808442.1564    -371855.06547   -289756.84662
  23470304.219    -4153736.621 6  -3195765.99621
  24114209.758    -1419634.135 5   -958387.33121
 91  5 13 18 42 30.0000000  0  5G18G11G19G 2G16
  20973099.750     1305494.585 7   1017267.79823
  23856161.352    -3043791.079 6  -2371781.90021
  20807724.4454    -375628.76247   -292697.38662
  23460451.328    -4205524.415 6  -3236120.00021
  24107640.8914   -1454154.52345   -985286.23661
 91  5 13 18 42 45.0000000  0  5G18G11G19G 2G16
  20976820.594     1325060.687 7   1032514.08823
  23849423.9694   -3079198.42246  -2399372.00061
  20807009.4924    -379375.58747   -295616.98762
  23450597.3054   -4257283.19446  -3276451.40561
  24101085.531    -1488580.790 5  -1012111.81721
 91  5 13 18 43  0.0000000  0  5G18G11G19G 2G16
  20980559.336     1344705.931 7   1047822.05123
  23842699.547    -3114529.934 6  -2426903.02621
  20806300.8984    -383099.22347   -298518.51562
  23440755.086    -4309016.417 6  -3316762.89721
  24094554.117    -1522916.422 5  -1038866.78821
 91  5 13 18 43 15.0000000  0  5G18G11G19G 2G16
  20984313.219     1364431.159 7   1063192.33222
  23835989.063    -3149784.358 6  -2454373.96121
  20805596.5314    -386799.04747   -301401.48962
  23430909.2034   -4360723.12046  -3357053.73961
  24088038.414    -1557160.381 5  -1065550.30721
 91  5 13 18 43 30.0000000  0  5G18G11G19G 2G16
  20988082.602     1384229.433 7   1078619.53623
  23829294.6024   -3184968.42646  -2481790.06461
  20804898.2424    -390481.98147   -304271.30562
  23421078.0704   -4412410.19646  -3397329.26961
  24081537.1174   -1591319.58445  -1092167.81161
 91  5 13 18 43 45.0000000  0  5G18G11G19G 2G16
  20991864.320     1404106.370 7   1094108.03523
  23822614.2114   -3220075.95346  -2509146.55861
  20804201.8594    -394142.35847   -307123.53962
  23411248.484    -4464071.624 6  -3437584.80221
  24075061.305    -1625387.745 5  -1118714.32621
 91  5 13 18 44  0.0000000  0  5G18G11G19G 2G16
  20995659.352     1424055.547 7   1109652.82622
  23815947.188    -3255112.986 6  -2536448.09821
  20803506.1644    -397786.56047   -309963.16962
  23401416.5554   -4515713.51146  -3477825.12961
  24068587.1484   -1659371.10745  -1145194.82361
 91  5 13 18 44 15.0000000  0  5G18G11G19G 2G16
  20999470.289     1444082.432 7   1125258.16822
  23809296.1414   -3290073.57246  -2563690.08161
  20802817.5394    -401409.04447   -312785.87962
  23391594.5314   -4567330.14046  -3518045.77961
  24062139.6174   -1693263.92945  -1171604.71161
 91  5 13 18 44 30.0000000  0  5G18G11G19G 2G16
  21003298.758     1464191.229 7   1140927.34023
  23802656.727    -3324953.021 6  -2590868.82321
  20802132.8204    -405005.40747   -315588.23462
  23381783.438    -4618916.956 6  -3558243.17421
  24055713.547    -1727061.390 5  -1197940.32921
 91  5 13 18 44 45.0000000  0  5G18G11G19G 2G16
  21007139.492     1484377.471 7   1156656.85723
  23796031.5944   -3359755.14046  -2617987.33561
  20801453.9844    -408579.98847   -318373.61262
  23371967.336    -4670477.980 6  -3598420.48321
  24049293.250    -1760767.894 5  -1224205.08721
 91  5 13 18 45  0.0000000  0  5G18G11G19G 2G16
  21010993.914     1504638.516 7   1172444.66323
  23789428.453    -3394482.511 6  -2645047.60521
  20800774.3204    -412135.55147   -321144.17762
  23362159.4614   -4722015.97146  -3638579.86561
  24042897.0554   -1794386.28445  -1250401.15861
 91  5 13 18 45 15.0000000  0  5G18G11G19G 2G16
  21014865.375     1524976.877 7   1188292.71523
  23782834.5234   -3429132.28246  -2672047.38161
  20800101.5164    -415669.43647   -323897.85362
  23352359.1724   -4773528.26646  -3678719.20761
  24036512.0634   -1827913.56045  -1276526.22761
 91  5 13 18 45 30.0000000  0  5G18G11G19G 2G16
  21018751.211     1545394.942 7   1204202.86823
  23776252.6254   -3463701.29446  -2698984.25061
  20799435.9384    -419179.07747   -326632.63062
  23342562.2034   -4825011.98246  -3718836.28361
  24030155.797    -1861346.943 5  -1302578.14021
 91  5 13 18 45 45.0000000  0  5G18G11G19G 2G16
  21022648.820     1565887.025 7   1220170.70223
  23769689.8674   -3498194.94446  -2725862.38761
  20798770.8524    -422670.30247   -329353.05962
  23332770.258    -4876472.718 6  -3758935.45721
  24023806.953    -1894691.621 5  -1328560.93621
 91  5 13 18 46  0.0000000  0  5G18G11G19G 2G16
  21026563.773     1586454.631 7   1236197.38723
  23763141.0554   -3532611.23646  -2752680.24761
  20798110.2974    -426141.42347   -332057.82462
  23322980.6484   -4927908.53746  -3799015.21461
  24017480.3754   -1927945.73245  -1354473.15661
 91  5 13 18 46 15.0000000  0  5G18G11G19G 2G16
  21030492.328     1607103.176 7   1252287.14023
  23756608.1094   -3566944.41546  -2779433.36761
  20797454.5554    -429587.18647   -334742.82962
  23313202.523    -4979314.033 6  -3839071.33721
  24011172.6024   -1961104.04345  -1380310.73261
 91  5 13 18 46 30.0000000  0  5G18G11G19G 2G16
  21034436.133     1627821.452 7   1268431.22523
  23750087.797    -3601205.115 6  -2806129.97521
  20796802.6254    -433018.56747   -337416.63162
  23303420.141    -5030699.832 6  -3879112.11621
  24004877.2584   -1994177.14245  -1406081.89361
 91  5 13 18 46 45.0000000  0  5G18G11G19G 2G16
  21038394.648     1648620.658 7   1284638.37623
  23743582.4064   -3635381.82346  -2832761.15461
  20796153.7894    -436424.35947   -340070.49062
  23293648.6884   -5082054.46846  -3919128.62161
  23998602.266    -2027153.475 5  -1431777.68021
 91  5 13 18 47  0.0000000  0  5G18G11G19G 2G16
  21042368.7664    1669512.79847   1300917.93863
  23737098.6724   -3669462.27646  -2859317.32161
  20795513.0634    -439792.49547   -342695.00962
  23283883.484    -5133365.980 6  -3959111.50821
  23992347.734    -2060020.930 5  -1457388.61421
 91  5 13 18 47 15.0000000  0  5G18G11G19G 2G16
  21046359.836     1690485.181 7   1317260.03523
  23730628.227    -3703458.651 6  -2885807.97021
  20794877.8524    -443135.62047   -345300.03962
  23274124.750    -5184646.754 6  -3999070.44921
  23986108.477    -2092791.794 5  -1482924.27521
 91  5 13 18 47 30.0000000  0  5G18G11G19G 2G16
  21050367.063     1711535.308 7   1333662.70823
  23724178.039    -3737373.022 6  -2912234.72921
  20794245.1174    -446456.32147   -347887.59262
  23264371.523    -5235899.120 6  -4039007.25821
  23979898.1884   -2125468.70745  -1508386.74561
 91  5 13 18 47 45.0000000  0  5G18G11G19G 2G16
  21054383.953     1732657.304 7   1350121.38323
  23717734.578    -3771210.799 6  -2938601.81521
  20793616.8674    -449760.25147   -350462.08562
  23254623.4694   -5287128.59746  -4078926.23361
  23973690.6174   -2158056.97045  -1533780.14561
 91  5 13 18 48  0.0000000  0  5G18G11G19G 2G16
  21058417.6174    1753848.24647   1366633.78363
  23711310.5474   -3804974.46146  -2964911.12961
  20792991.5784    -453050.29647   -353025.74562
  23244877.961    -5338337.710 6  -4118829.32721
  23967508.7114   -2190559.08345  -1559106.39961
 91  5 13 18 48 15.0000000  0  5G18G11G19G 2G16
  21062465.969     1775119.220 7   1383208.54422
  23704903.539    -3838652.542 6  -2991153.76621
  20792369.1564    -456315.28347   -355569.88762
  23235141.594    -5389515.227 6  -4158707.80821
  23961342.2034   -2222963.58545  -1584356.59461
 91  5 13 18 48 30.0000000  0  5G18G11G19G 2G16
  21066528.258     1796470.037 7   1399845.52622
  23698509.7344   -3872244.75746  -3017329.50761
  20791750.6094    -459555.21747   -358094.50762
  23225405.914    -5440661.115 6  -4198561.64421
  23955189.6334   -2255270.65845  -1609530.87461
 91  5 13 18 48 45.0000000  0  6G18G11G19G 2G16G 6
  21070607.070     1817903.534 7   1416546.93222
  23692136.3984   -3905747.91546  -3043435.82561
  20791142.2974    -462767.27947   -360597.41062
  23215681.000    -5491772.268 6  -4238388.41421
  23949059.3754   -2287477.19345  -1634626.82861
  24502013.0704         -0.23654
 91  5 13 18 49  0.0000000  0  6G18G11G19G 2G16G 6
  21074698.945     1839408.782 7   1433304.24722
  23685775.977    -3939172.344 6  -3069480.80921
  20790533.9384    -465962.19247   -363086.94562
  23205955.758    -5542859.109 6  -4278196.23721
  23942954.172    -2319593.741 5  -1659652.63321
  24494103.4924     -41565.01044
 91  5 13 18 49 15.0000000  0  6G18G11G19G 2G16G 6
  21078806.953     1860990.427 7   1450121.09122
  23679428.8204   -3972513.05746  -3095460.57161
  20789928.7344    -469135.39747   -365559.57062
  23196246.594    -5593916.912 6  -4317981.43021
  23936855.9694   -2351615.34245  -1684604.46761
  24486195.063      -83134.541 5
 91  5 13 18 49 30.0000000  0  6G18G11G19G 2G16G 6
  21082928.273     1882655.703 7   1467003.10322
  23673101.2974   -4005762.49346  -3121369.22261
  20789336.3364    -472279.57247   -368009.57362
  23186535.227    -5644938.337 6  -4357738.27421
  23930783.9924   -2383534.49045  -1709476.47261
  24478283.430     -124701.634 5        -0.33231
 91  5 13 18 49 45.0000000  0  6G18G11G19G 2G16G 6
  21087068.484     1904401.192 7   1483947.61822
  23666791.484    -4038923.504 6  -3147208.96121
  20788736.6484    -475398.01847   -370439.52162
  23176830.820    -5695926.424 6  -4397469.14821
  23924731.047    -2415354.137 5  -1734270.92221
  24470376.078     -166269.640 5    -32390.80121
 91  5 13 18 50  0.0000000  0  6G18G11G19G 2G16G 6
  21091221.227     1926231.758 7   1500958.42922
  23660500.844    -4071990.727 6  -3172975.60921
  20788151.8284    -478485.76547   -372845.55862
  23167135.555    -5746875.958 6  -4437169.98021
  23918697.6254   -2447069.27345  -1758983.95361
  24462466.9384    -207833.49145    -64778.03961
 91  5 13 18 50 15.0000000  0  6G18G11G19G 2G16G 6
  21095392.719     1948140.238 7   1518029.95222
  23654226.9924   -4104970.88446  -3198674.40261
  20787566.5704    -481549.72546   -375233.05562
  23157447.539    -5797793.827 6  -4476846.13921
  23912674.7274   -2478686.95145  -1783621.04161
  24454557.5474    -249400.34645    -97167.64861
 91  5 13 18 50 30.0000000  0  6G18G11G19G 2G16G 6
  21099575.359     1970124.439 7   1535160.48022
  23647963.2194   -4137865.97746  -3224306.94261
  20786989.8834    -484592.31146   -377603.89662
  23147764.703    -5848682.239 6  -4516499.33921
  23906676.664    -2510209.415 5  -1808183.93221
  24446642.6174    -290972.59845   -129561.40161
 91  5 13 18 50 45.0000000  0  6G18G11G19G 2G16G 6
  21103771.195     1992186.949 7   1552352.01922
  23641724.125    -4170672.866 6  -3249870.73721
  20786414.0084    -487610.81147   -379955.96862
  23138086.836    -5899538.122 6  -4556127.19221
  23900696.7194   -2541633.45545  -1832670.12361
  24438731.453     -332547.386 5   -161957.13621
 91  5 13 18 51  0.0000000  0  6G18G11G19G 2G16G 6
  21107985.711     2014328.004 7   1569604.77022
  23635494.906    -4203390.984 6  -3275365.36121
  20785845.5474    -490605.05246   -382289.13762
  23128415.461    -5950361.143 6  -4595729.44421
  23894741.1484   -2572958.31845  -1857079.03961
  24430817.0084    -374124.56544   -194354.77661
 91  5 13 18 51 15.0000000  0  6G18G11G19G 2G16G 6
  21112214.172     2036550.060 7   1586920.63622
  23629286.6564   -4236017.25446  -3300788.39161
  20785278.6174    -493572.22547   -384601.21962
  23118751.9694   -6001148.39346  -4635303.81861
  23888799.3524   -2604181.19845  -1881408.48661
  24422906.891     -415701.473 4   -226752.17321
 91  5 13 18 51 30.0000000  0  6G18G11G19G 2G16G 6
  21116457.688     2058849.946 7   1604297.15022
  23623095.5704   -4268554.55846  -3326142.11861
  20784722.2814    -496515.48746   -386894.66762
  23109087.6644   -6051902.73946  -4674852.56161
  23882876.2344   -2635305.02145  -1905660.75961
  24414994.4534    -457281.13744   -259151.73661
 91  5 13 18 51 45.0000000  0  6G18G11G19G 2G16G 6
  21120717.031     2081227.131 7   1621733.90522
  23616919.180    -4301003.073 6  -3351426.66221
  20784162.9534    -499435.44547   -389169.95562
  23099438.164    -6102624.630 6  -4714376.00321
  23876968.6024   -2666330.28045  -1929836.21961
  24407084.484     -498864.231 4   -291553.95721
 91  5 13 18 52  0.0000000  0  6G18G11G19G 2G16G 6
  21124989.555     2103682.981 7   1639231.94622
  23610766.4304   -4333360.89546  -3376640.53761
  20783614.7894    -502330.41946   -391425.77162
  23089792.9844   -6153312.45346  -4753872.91261
  23871088.055    -2697255.334 5  -1953933.59621
  24399171.8524    -540449.15644   -323957.62061
 91  5 13 18 52 15.0000000  0  6G18G11G19G 2G16G 6
  21129277.289     2126218.731 7   1656792.25722
  23604624.891    -4365626.451 6  -3401782.51321
  20783067.9924    -505199.14146   -393661.13862
  23080154.6174   -6203964.73346  -4793342.11961
  23865220.0944   -2728078.46845  -1977951.56761
  24391253.609     -582034.702 4   -356361.74321
 91  5 13 18 52 30.0000000  0  6G18G11G19G 2G16G 6
  21133582.859     2148838.457 7   1674418.00222
  23598499.977    -4397795.328 6  -3426849.15021
  20782528.7194    -508037.45946   -395872.81262
  23070522.2424   -6254577.03746  -4832780.17961
  23859376.3834   -2758795.54245  -2001886.87961
  24383342.9534    -623616.82444   -388763.22961
 91  5 13 18 52 45.0000000  0  6G18G11G19G 2G16G 6
  21137901.852     2171538.156 7   1692106.05922
  23592395.8754   -4429870.81946  -3451843.01361
  20781991.9064    -510849.02646   -398063.64262
  23060899.320    -6305152.958 6  -4872189.88721
  23853547.6254   -2789410.01745  -2025742.24661
  24375428.4064    -665199.21844   -421164.91061
 91  5 13 18 53  0.0000000  0  6G18G11G19G 2G16G 6
  21142236.906     2194321.705 7   1709859.45322
  23586313.813    -4461848.868 6  -3476760.95821
  20781463.4774    -513630.35846   -400230.91462
  23051281.383    -6355688.554 6  -4911568.16421
  23847743.2504   -2819918.01845  -2049514.64661
  24367514.9384    -706778.15343   -453563.89361
 91  5 13 18 53 15.0000000  0  6G18G11G19G 2G16G 6
  21146587.625     2217183.905 7   1727674.14122
  23580245.492    -4493734.207 6  -3501606.65321
  20780938.8054    -516386.37746   -402378.45762
  23041669.813    -6406188.710 6  -4950918.83521
  23841957.188    -2850324.496 5  -2073207.95021
  24359606.2344    -748358.77944   -485964.17961
 91  5 13 18 53 30.0000000  0  6G18G11G19G 2G16G 6
  21150954.070     2240123.841 7   1745549.39822
  23574196.406    -4525526.931 6  -3526380.19621
  20780417.7424    -519117.60146   -404506.68862
  23032068.3284   -6456653.78146  -4990242.16561
  23836196.133    -2880629.747 5  -2096822.35421
  24351693.602     -789941.514 4   -518366.12921
 91  5 13 18 53 45.0000000  0  6G18G11G19G 2G16G 6
  21155334.984     2263145.429 7   1763488.27623
  23568162.9924   -4557222.95846  -3551078.36661
  20779904.4384    -521820.07246   -406612.51062
  23022474.984    -6507079.892 6  -5029535.14321
  23830441.359    -2910829.782 5  -2120354.79121
  24343776.2734    -831522.61444   -550766.80161
 91  5 13 18 54  0.0000000  0  6G18G11G19G 2G16G 6
  21159730.070     2286245.864 7   1781488.59722
  23562149.3984   -4588824.54946  -3575702.94261
  20779395.8754    -524496.58146   -408698.10162
  23012882.5944   -6557469.61846  -5068799.75861
  23824712.6564   -2940927.15645  -2143807.22361
  24335866.2424    -873104.82544   -583168.33061
 91  5 13 18 54 15.0000000  0  6G18G11G19G 2G16G 6
  21164140.4224    2309422.29247   1799548.13863
  23556155.656    -4620334.430 6  -3600256.08721
  20778889.1174    -527149.96546   -410765.67062
  23003302.0394   -6607825.56146  -5108038.05861
  23819006.2814   -2970924.46945  -2167181.69661
  24327952.070     -914691.122 4   -615573.07121
 91  5 13 18 54 30.0000000  0  6G18G11G19G 2G16G 6
  21168564.820     2332678.185 7   1817669.59523
  23550179.406    -4651748.589 6  -3624734.63121
  20778390.2344    -529776.74046   -412812.51062
  22993728.180    -6658143.944 6  -5147247.08721
  23813319.5634   -3000817.68645  -2190475.03561
  24320037.4224    -956277.77344   -647978.04161
 91  5 13 18 54 45.0000000  0  6G18G11G19G 2G16G 6
  21173008.234     2356018.749 7   1835857.03323
  23544216.688    -4683061.507 6  -3649134.29621
  20777897.6174    -532371.68846   -414834.54462
  22984158.3674   -6708419.26346  -5186422.55661
  23807647.0004   -3030601.62345  -2213683.23461
  24312127.5394    -997859.76044   -680379.42661
 91  5 13 18 55  0.0000000  0  6G18G11G19G 2G16G 6
  21177464.656     2379441.259 7   1854108.32323
  23538276.5084   -4714275.25646  -3673456.67061
  20777407.9064    -534937.18646   -416833.63062
  22974600.0314   -6758653.86246  -5225566.30561
  23802004.8364   -3060278.64145  -2236808.11261
  24304211.2424   -1039439.40844   -712778.90861
 91  5 13 18 55 15.0000000  0  6G18G11G19G 2G16G 6
  21181937.578     2402940.698 7   1872419.55923
  23532357.5314   -4745394.56246  -3697705.45261
  20776925.1414    -537478.41746   -418813.81162
  22965048.516    -6808852.574 6  -5264682.08621
  23796374.1804   -3089853.63545  -2259853.50561
  24296305.1564   -1081021.83244   -745180.65161
 91  5 13 18 55 30.0000000  0  6G18G11G19G 2G16G 6
  21186423.242     2426520.728 7   1890793.58823
  23526454.0084   -4776415.23946  -3721877.37361
  20776447.1254    -539991.36546   -420771.95162
  22955503.094    -6859011.273 6  -5303766.68621
  23790766.3914   -3119322.39745  -2282816.11661
  24288387.1174   -1122603.22644   -777581.55061
 91  5 13 18 55 45.0000000  0  6G18G11G19G 2G16G 6
  21190926.2974    2450179.12147   1909228.69462
  23520568.4384   -4807339.20146  -3745973.95061
  20775974.2034    -542478.29846   -422709.82262
  22945964.2894   -6909132.25846  -5342821.90461
  23785181.1484   -3148686.79045  -2305697.39161
  24280472.0634   -1164185.81944   -809983.37561
 91  5 13 18 56  0.0000000  0  6G18G11G19G 2G16G 6
  21195444.023     2473918.476 7   1927726.86923
  23514701.984    -4838163.517 6  -3769992.86321
  20775504.6954    -544936.40346   -424625.22562
  22936435.7274   -6959212.77246  -5381845.57861
  23779611.6724   -3177944.40045  -2328495.47361
  24272561.3594   -1205766.94444   -842384.09861
 91  5 13 18 56 15.0000000  0  6G18G11G19G 2G16G 6
  21199974.945     2497734.190 7   1946284.55423
  23508854.9064   -4868892.39246  -3793937.41461
  20775042.1564    -547370.32046   -426521.78062
  22926912.7894   -7009256.99446  -5420840.97961
  23774066.0554   -3207099.60645  -2351213.75461
  24264645.414    -1247351.286 5   -874787.30921
 91  5 13 18 56 30.0000000  0  6G18G11G19G 2G16G 6
  21204523.336     2521632.966 7   1964906.96023
  23503026.6024   -4899518.60146  -3817801.96061
  20774583.9064    -549773.20446   -428394.15162
  22917396.148    -7059257.769 6  -5459802.52321
  23768536.7034   -3236145.14945  -2373846.57961
  24256737.6724   -1288931.83545   -907187.50561
 91  5 13 18 56 45.0000000  0  6G18G11G19G 2G16G 6
  21209087.727     2545617.799 7   1983596.42023
  23497220.266    -4930038.757 6  -3841583.88221
  20774135.2034    -552141.89346   -430239.89162
  22907888.891    -7109211.997 6  -5498727.78821
  23763029.680    -3265077.959 5  -2396391.57121
  24248819.2424   -1330505.53144   -939582.42061
 91  5 13 18 57  0.0000000  0  6G18G11G19G 2G16G 6
  21213667.031     2569683.594 7   2002348.97223
  23491430.984    -4960457.551 6  -3865286.82021
  20773689.3054    -554481.30446   -432062.80262
  22898391.563    -7159124.535 6  -5537620.57521
  23757545.500    -3293902.308 5  -2418852.00821
  24240916.063    -1372077.421 5   -971975.92221
 91  5 13 18 57 15.0000000  0  6G18G11G19G 2G16G 6
  21218263.625     2593832.506 7   2021166.28923
  23485662.211    -4990772.191 6  -3888908.58321
  20773249.4844    -556788.98646   -433860.99462
  22888898.070    -7208992.617 6  -5576478.71121
  23752082.063    -3322616.037 5  -2441226.30221
  24232999.906    -1413645.105 5  -1004366.15521
 91  5 13 18 57 30.0000000  0  6G18G11G19G 2G16G 6
  21222873.820     2618061.086 7   2040045.68623
  23479910.2894   -5020985.89846  -3912451.70661
  20772817.3204    -559068.39246   -435637.14862
  22879423.3054   -7258819.67246  -5615304.89661
  23746640.766    -3351222.405 5  -2463516.90721
  24225094.2344   -1455212.16945  -1036755.87261
 91  5 13 18 57 45.0000000  0  6G18G11G19G 2G16G 6
  21227497.586     2642366.600 7   2058985.02823
  23474181.688    -5051101.059 6  -3935918.04621
  20772388.0314    -561322.25646   -437393.39762
  22869944.7814   -7308608.11146  -5654100.97961
  23741214.1484   -3379723.95245  -2485725.84061
  24217179.523    -1496781.246 5  -1069147.20421
 91  5 13 18 58  0.0000000  0  6G18G11G19G 2G16G 6
  21232139.609     2666757.312 7   2077990.76323
  23468470.094    -5081108.761 6  -3959300.64621
  20771966.4144    -563542.11446   -439123.15762
  22860479.7114   -7358349.44246  -5692860.36961
  23735813.2114   -3408112.03445  -2507846.36361
  24209271.4454   -1538343.78845  -1101533.37561
 91  5 13 18 58 15.0000000  0  6G18G11G19G 2G16G 6
  21236796.844     2691232.614 7   2097062.41323
  23462780.102    -5111009.479 6  -3982599.88921
  20771548.2424    -565728.77246   -440827.04462
  22851023.2194   -7408043.98446  -5731583.28861
  23730431.1334   -3436387.31745  -2529879.00461
  24201360.6644   -1579900.67145  -1133915.21861
 91  5 13 18 58 30.0000000  0  6G18G11G19G 2G16G 6
  21241467.430     2715786.868 7   2116195.58123
  23457110.477    -5140808.218 6  -4005819.66421
  20771138.0394    -567887.52846   -442509.18862
  22841575.492    -7457696.977 6  -5770273.83121
  23725074.594    -3464554.657 5  -2551827.52221
  24193458.0944   -1621457.27645  -1166296.81861
 91  5 13 18 58 45.0000000  0  6G18G11G19G 2G16G 6
  21246158.141     2740424.611 7   2135393.80723
  23451460.7734   -5170500.03046  -4028956.11861
  20770734.1954    -570013.75046   -444165.98862
  22832134.703    -7507303.862 6  -5808928.45321
  23719737.469    -3492609.416 5  -2573688.30421
  24185549.164    -1663008.936 4  -1198674.53421
 91  5 13 18 59  0.0000000  0  6G18G11G19G 2G16G 6
  21250863.508     2765151.527 7   2154661.51523
  23445831.1884   -5200078.79346  -4052004.47061
  20770335.7664    -572101.65346   -445792.92362
  22822705.3834   -7556858.58946  -5847542.43261
  23714420.195    -3520545.919 5  -2595456.95121
  24177640.8984   -1704549.90244  -1231043.95961
 91  5 13 18 59 15.0000000  0  6G18G11G19G 2G16G 6
  21255585.703     2789961.047 7   2173993.59423
  23440224.375    -5229550.667 6  -4074969.53021
  20769943.0474    -574157.59046   -447394.95462
  22813285.5554   -7606367.47946  -5886120.69361
  23709119.4534   -3548370.25745  -2617138.20161
  24169740.133    -1746086.578 4  -1263410.02121
 91  5 13 18 59 30.0000000  0  6G18G11G19G 2G16G 6
  21260321.352     2814851.436 7   2193388.68623
  23434635.609    -5258917.218 6  -4097852.55221
  20769560.7664    -576183.27646   -448973.40662
  22803870.8054   -7655831.97946  -5924664.35561
  23703847.852    -3576083.938 5  -2638733.20521
  24161836.258    -1787620.824 4  -1295774.20221
 91  5 13 18 59 45.0000000  0  6G18G11G19G 2G16G 6
  21265072.438     2839819.299 7   2212844.14223
  23429068.977    -5288181.136 6  -4120655.58621
  20769178.5634    -578181.83046   -450530.72362
  22794464.7814   -7705255.03446  -5963175.73561
  23698594.273    -3603689.780 5  -2660244.19221
  24153935.906    -1829155.762 4  -1328138.90621
 91  5 13 19  0  0.0000000  0  6G18G11G19G 2G16G 6
  21269839.141     2864870.614 7   2232364.62923
  23423518.5784   -5317336.22446  -4143373.79761
  20768806.2034    -580147.27146   -452062.23662
  22785071.0784   -7754630.49146  -6001650.02461
  23693362.086    -3631181.877 5  -2681666.55721
  24146026.7664   -1870685.37044  -1360499.46061
 91  5 13 19  0 15.0000000  0  6G18G11G19G 2G16G 6
  21274621.578     2889999.398 7   2251945.48823
  23417989.953    -5346387.737 6  -4166011.32421
  20768435.0634    -582085.36246   -453572.43362
  22775679.8914   -7803963.86846  -6040091.52861
  23688154.766    -3658565.583 5  -2703004.44121
  24138123.0634   -1912215.38244  -1392860.34861
 91  5 13 19  0 30.0000000  0  6G18G11G19G 2G16G 6
  21279419.383     2915214.777 7   2271593.81823
  23412483.930    -5375326.345 6  -4188560.86521
  20768076.5944    -583987.02246   -455054.24862
  22766302.9694   -7853246.17946  -6078493.22761
  23682965.1954   -3685831.77345  -2724250.77361
  24130225.906    -1953736.860 4  -1425214.54721
 91  5 13 19  0 45.0000000  0  6G18G11G19G 2G16G 6
  21284231.367     2940502.942 7   2291298.86623
  23406995.563    -5404165.525 6  -4211032.93421
  20767717.4064    -585865.82946   -456518.26162
  22756933.3444   -7902490.71646  -6116865.49561
  23677792.688    -3712994.011 5  -2745416.09421
  24122319.3984   -1995263.49544  -1457572.80561
 91  5 13 19  1  0.0000000  0  6G18G11G19G 2G16G 6
  21289059.359     2965870.475 7   2311065.75823
  23401527.953    -5432898.385 6  -4233422.16221
  20767365.3594    -587715.29646   -457959.40262
  22747570.8674   -7951690.69046  -6155203.04461
  23672646.570    -3740045.662 5  -2766495.24121
  24114420.0004   -2036788.69444  -1489929.91961
 91  5 13 19  1 15.0000000  0  6G18G11G19G 2G16G 6
  21293902.797     2991324.459 7   2330900.01723
  23396081.0554   -5461517.24446  -4255722.56061
  20767018.8284    -589528.06346   -459371.93962
  22738220.1724   -8000838.77846  -6193500.16461
  23667523.453    -3766979.234 5  -2787482.40121
  24106518.5004   -2078305.16944  -1522280.25261
 91  5 13 19  1 30.0000000  0  6G18G11G19G 2G16G 6
  21298761.594     3016858.140 7   2350796.37023
  23390655.922    -5490028.371 6  -4277939.00521
  20766681.2504    -591310.49246   -460760.85162
  22728876.4384   -8049941.30146  -6231761.76961
  23662417.781    -3793800.830 5  -2808382.28321
  24098624.5864   -2119819.41144  -1554628.85861
 91  5 13 19  1 45.0000000  0  6G18G11G19G 2G16G 6
  21303636.727     3042471.894 7   2370755.12823
  23385251.609    -5518430.978 6  -4300070.87921
  20766346.6954    -593062.23846   -462125.84462
  22719538.8364   -8098997.76546  -6269987.49161
  23657333.2274   -3820510.30945  -2829194.80161
  24090718.461    -2161331.048 4  -1586975.42021
 91  5 13 19  2  0.0000000  0  6G18G11G19G 2G16G 6
  21308527.391     3068166.617 7   2390776.97423
  23379869.1564   -5546723.81346  -4322117.23161
  20766024.1804    -594782.27646   -463466.12962
  22710212.7734   -8148006.98746  -6308176.40361
  23652276.4774   -3847106.49545  -2849919.03861
  24082819.3834   -2202839.18744  -1619319.25161
 91  5 13 19  2 15.0000000  0  6G18G11G19G 2G16G 6
  21313430.430     3093940.110 7   2410860.20223
  23374504.898    -5574908.604 6  -4344079.39721
  20765697.6094    -596472.57446   -464783.24162
  22700893.8364   -8196970.92446  -6346330.02261
  23647233.172    -3873591.078 5  -2870556.32621
  24074920.078    -2244345.802 4  -1651661.89721
 91  5 13 19  2 30.0000000  0  6G18G11G19G 2G16G 6
  21318349.891     3119798.533 7   2431009.61123
  23369162.7504   -5602978.77646  -4365952.24561
  20765383.8054    -598126.81346   -466072.25662
  22691584.7734   -8245882.94446  -6384443.19661
  23642216.1174   -3899957.43345  -2891101.48861
  24067020.211    -2285844.576 4  -1683998.42221
 91  5 13 19  2 45.0000000  0  6G18G11G19G 2G16G 6
  21323286.438     3145739.979 7   2451223.70223
  23363841.9064   -5630935.90046  -4387737.01561
  20765075.9144    -599746.98946   -467334.72562
  22682291.9614   -8294744.86946  -6422517.32961
  23637217.8054   -3926207.53645  -2911556.05961
  24059127.211    -2327337.533 4  -1716330.43421
 91  5 13 19  3  0.0000000  0  6G18G11G19G 2G16G 6
  21328237.492     3171760.312 7   2471499.26723
  23358542.992    -5658783.732 6  -4409436.59421
  20764776.4454    -601336.92746   -468573.63862
  22673000.7034   -8343560.33146  -6460555.26261
  23632248.773    -3952345.247 5  -2931923.05421
  24051231.9924   -2368828.50144  -1748660.91661
 91  5 13 19  3 15.0000000  0  6G18G11G19G 2G16G 6
  21333205.398     3197860.364 7   2491836.95523
  23353265.188    -5686521.003 6  -4431050.04021
  20764476.6954    -602895.66646   -469788.23862
  22663720.672    -8392328.342 6  -6498556.23421
  23627296.3914   -3978369.33245  -2952201.50061
  24043341.547    -2410316.608 4  -1780989.14121
 91  5 13 19  3 30.0000000  0  6G18G11G19G 2G16G 6
  21338187.453     3224041.421 7   2512237.76423
  23348005.3594   -5714146.16046  -4452576.13361
  20764186.2274    -604422.01746   -470977.60162
  22654448.9384   -8441047.42646  -6536519.06661
  23622365.7584   -4004278.55345  -2972390.46261
  24035441.680    -2451800.723 3  -1813314.27721
 91  5 13 19  3 45.0000000  0  6G18G11G19G 2G16G 6
  21343184.938     3250303.182 7   2532701.45923
  23342774.3204   -5741659.06546  -4474014.75361
  20763902.5944    -605916.06546   -472141.78962
  22645187.680    -8489717.670 6  -6574443.84021
  23617456.6884   -4030072.89245  -2992489.90061
  24027549.7274   -2493280.98544  -1845636.39161
 91  5 13 19  4  0.0000000  0  6G18G11G19G 2G16G 6
  21348197.539     3276644.670 7   2553227.27423
  23337560.3524   -5769059.98146  -4495366.11261
  20763625.5554    -607378.48546   -473281.33362
  22635933.875    -8538339.535 6  -6612330.92721
  23612574.031    -4055752.751 5  -3012500.12921
  24019655.078    -2534758.064 4  -1877956.03521
 91  5 13 19  4 15.0000000  0  6G18G11G19G 2G16G 6
  21353226.070     3303067.347 7   2573816.35723
  23332365.5164   -5796347.16346  -4516628.84461
  20763352.5314    -608807.69446   -474395.00462
  22626689.2194   -8586911.36346  -6650179.01761
  23607706.1804   -4081316.65345  -3032419.98161
  24011761.3754   -2576230.37044  -1910271.96861
 91  5 13 19  4 30.0000000  0  6G18G11G19G 2G16G 6
  21358269.008     3329568.361 7   2594466.48223
  23327195.359    -5823523.100 6  -4537804.88721
  20763088.8754    -610206.50446   -475484.98062
  22617456.4924   -8635435.84046  -6687990.20361
  23602862.297    -4106767.111 5  -3052251.45521
  24003875.8204   -2617700.74144  -1942586.39261
 91  5 13 19  4 45.0000000  0  6G18G11G19G 2G16G 6
  21363328.250     3356147.981 7   2615177.85523
  23322043.5084   -5850587.34046  -4558893.89761
  20762825.6334    -611574.64046   -476551.05562
  22608231.3834   -8683912.56746  -6725764.18762
  23598037.6334   -4132103.80445  -3071994.26861
  23995980.2504   -2659168.93944  -1974899.12761
 91  5 13 19  5  0.0000000  0  6G18G11G19G 2G16G 6
  21368401.000     3382808.356 7   2635952.16323
  23316915.1094   -5877537.15346  -4579893.73861
  20762570.7974    -612909.40746   -477591.12262
  22599014.9304   -8732339.02146  -6763498.99862
  23593241.906    -4157324.212 5  -3091646.47821
  23988091.1954   -2700632.67545  -2007208.36961
 91  5 13 19  5 15.0000000  0  6G18G11G19G 2G16G 6
  21373489.508     3409550.847 7   2656790.44923
  23311810.1884   -5904370.76746  -4600803.03661
  20762322.9454    -614209.31446   -478604.03462
  22589812.063    -8780713.380 6  -6801193.22022
  23588464.063    -4182426.578 5  -3111206.71821
  23980203.789    -2742090.289 4  -2039512.86221
 91  5 13 19  5 30.0000000  0  6G18G11G19G 2G16G 6
  21378591.883     3436371.815 7   2677689.88623
  23306725.2894   -5931091.53446  -4621624.41161
  20762084.5084    -615478.10846   -479592.70162
  22580615.7034   -8829039.11446  -6838849.55262
  23583712.2114   -4207414.52645  -3130677.79261
  23972314.3524   -2783545.56945  -2071815.52661
 91  5 13 19  5 45.0000000  0  6G18G11G19G 2G16G 6
  21383712.891     3463275.941 7   2698654.12723
  23301661.172    -5957694.120 6  -4642353.67621
  20761847.7584    -616710.90346   -480553.30862
  22571429.828    -8877310.911 6  -6876463.84722
  23578977.7734   -4232282.62445  -3150055.47861
  23964426.0394   -2824993.43144  -2104112.39661
 91  5 13 19  6  0.0000000  0  6G18G11G19G 2G16G 6
  21388848.164     3490263.419 7   2719683.31323
  23296621.7814   -5984177.96346  -4662990.43661
  20761619.4144    -617907.31946   -481485.57962
  22562252.2424   -8925528.41846  -6914035.83862
  23574264.227    -4257030.838 5  -3169339.75721
  23956546.3444   -2866433.57045  -2136403.27461
 91  5 13 19  6 15.0000000  0  6G18G11G19G 2G16G 6
  21393998.133     3517324.525 7   2740769.87323
  23291605.602    -6010552.408 6  -4683541.93921
  20761396.9454    -619076.77247   -482396.83562
  22553086.2974   -8973701.06446  -6951572.87262
  23569575.6644   -4281668.42945  -3188537.82661
  23948654.5634   -2907875.79545  -2168695.76761
 91  5 13 19  6 30.0000000  0  6G18G11G19G 2G16G 6
  21399161.422     3544462.878 7   2761916.62323
  23286605.8364   -6036813.45646  -4704005.07761
  20761179.5704    -620215.67047   -483284.27962
  22543927.188    -9021824.993 6  -6989071.95322
  23564912.1334   -4306191.41945  -3207646.59161
  23940766.891    -2949316.160 5  -2200986.81121
 91  5 13 19  6 45.0000000  0  6G18G11G19G 2G16G 6
  21404342.508     3571685.498 7   2783129.03723
  23281631.7114   -6062953.89946  -4724374.24861
  20760969.9534    -621316.98746   -484142.44162
  22534781.6254   -9069893.37046  -7026527.74362
  23560270.055    -4330592.925 5  -3226660.70521
  23932883.6414   -2990747.85945  -2233271.10661
 91  5 13 19  7  0.0000000  0  6G18G11G19G 2G16G 6
  21409537.781     3598992.957 7   2804407.56223
  23276679.9844   -6088972.63846  -4744648.57361
  20760767.8834    -622379.85546   -484970.65662
  22525645.211    -9117904.994 6  -7063939.31222
  23555650.5314   -4354871.94245  -3245579.36461
  23925008.5004   -3032170.02645  -2265547.98061
 91  5 13 19  7 15.0000000  0  6G18G11G19G 2G16G 6
  21414750.719     3626382.075 7   2825749.71323
  23271751.391    -6114872.303 6  -4764830.11721
  20760574.0004    -623407.20647   -485771.18562
  22516517.6644   -9165862.63746  -7101308.81262
  23551054.0164   -4379031.31945  -3264404.80561
  23917119.539    -3073585.772 5  -2297819.81421
 91  5 13 19  7 30.0000000  0  6G18G11G19G 2G16G 6
  21419976.711     3653849.384 7   2847152.79023
  23266845.258    -6140656.037 6  -4784921.30821
  20760383.8674    -624402.37446   -486546.62862
  22507403.9534   -9213769.63946  -7138638.84962
  23546479.3444   -4403074.52445  -3283139.71461
  23909245.8914   -3114998.32645  -2330089.21061
 91  5 13 19  7 45.0000000  0  6G18G11G19G 2G16G 6
  21425221.508     3681400.464 7   2868621.14723
  23261961.570    -6166317.940 6  -4804917.57321
  20760201.4064    -625359.74346   -487292.62662
  22498299.1174   -9261620.11647  -7175924.84762
  23541923.352    -4426995.601 5  -3301779.46721
  23901362.430    -3156402.129 5  -2362351.77321
 91  5 13 19  8  0.0000000  0  6G18G11G19G 2G16G 6
  21430478.750     3709030.384 7   2890150.93823
  23257102.602    -6191862.526 6  -4824822.43721
  20760026.0394    -626283.96846   -488012.79762
  22489202.3984   -9309418.57246  -7213170.31162
  23537390.9384   -4450798.97945  -3320327.51661
  23893477.086    -3197801.968 5  -2394611.23821
 91  5 13 19  8 15.0000000  0  6G18G11G19G 2G16G 6
  21435751.742     3736736.910 7   2911740.42423
  23252264.289    -6217291.539 6  -4844637.23721
  20759855.0944    -627177.16946   -488708.79162
  22480116.0314   -9357167.03746  -7250376.81262
  23532884.453    -4474486.587 5  -3338785.34721
  23885606.8134   -3239199.96245  -2426869.24861
 91  5 13 19  8 30.0000000  0  6G18G11G19G 2G16G 6
  21441040.633     3764538.992 7   2933404.36323
  23247449.8134   -6242585.75346  -4864347.00161
  20759696.4844    -628020.24147   -489365.72462
  22471041.9304   -9404846.29846  -7287529.39662
  23528405.8364   -4498039.62145  -3357138.27861
  23877730.930    -3280577.064 5  -2459111.01021
 91  5 13 19  8 45.0000000  0  6G18G11G19G 2G16G 6
  21446351.938     3792445.594 7   2955149.74923
  23242662.852    -6267735.672 6  -4883944.32421
  20759546.0864    -628804.10346   -489976.52762
  22461985.8594   -9452447.15547  -7324620.87762
  23523947.4924   -4521448.56445  -3375378.95961
  23869863.5634   -3321924.15145  -2491329.36561
 91  5 13 19  9  0.0000000  0  6G18G11G19G 2G16G 6
  21451678.766     3820436.481 7   2976960.81423
  23237901.5634   -6292761.28146  -4903444.76861
  20759404.7664    -629548.81846   -490556.82862
  22452934.6804   -9499989.51946  -7361666.78562
  23519519.258    -4544733.737 5  -3393523.20621
  23862002.648    -3363261.424 5  -2523540.09421
 91  5 13 19  9 15.0000000  0  6G18G11G19G 2G16G 6
  21457019.242     3848509.528 7   2998835.89923
  23233163.258    -6317664.204 6  -4922849.62021
  20759268.8984    -630256.26746   -491108.08162
  22443900.6884   -9547475.25947  -7398668.56662
  23515111.352    -4567897.044 5  -3411572.46721
  23854134.156    -3404590.859 5  -2555744.70421
 91  5 13 19  9 30.0000000  0  6G18G11G19G 2G16G 6
  21462377.500     3876661.539 7   3020772.51023
  23228445.711    -6342447.223 6  -4942161.05321
  20759142.5394    -630929.54546   -491632.71262
  22434874.773    -9594907.203 6  -7435628.43522
  23510729.9224   -4590941.23745  -3429528.94061
  23846267.969    -3445915.408 5  -2587945.50921
 91  5 13 19  9 45.0000000  0  6G18G11G19G 2G16G 6
  21467749.219     3904891.795 7   3042770.09523
  23223753.617    -6367110.712 6  -4961379.34021
  20759019.0004    -631569.21147   -492131.14462
  22425857.7424   -9642285.88146  -7472546.79862
  23506366.1804   -4613866.89045  -3447393.03561
  23838408.0004   -3487235.82045  -2620143.07561
 91  5 13 19 10  0.0000000  0  6G18G11G19G 2G16G 6
  21473137.484     3933201.031 7   3064829.22123
  23219084.5784   -6391653.54146  -4980503.61661
  20758903.2194    -632174.30146   -492602.64462
  22416853.1254   -9689610.28147  -7509422.86262
  23502023.031    -4636673.186 5  -3465164.11621
  23830541.8444   -3528551.11545  -2652336.66461
 91  5 13 19 10 15.0000000  0  6G18G11G19G 2G16G 6
  21478538.992     3961591.571 7   3086951.70023
  23214436.211    -6416073.066 6  -4999531.79821
  20758797.4454    -632742.39647   -493045.31562
  22407857.0704   -9736877.88146  -7546254.66562
  23497707.523    -4659357.270 5  -3482839.98821
  23822680.9614   -3569859.06645  -2684524.52161
 91  5 13 19 10 30.0000000  0  6G18G11G19G 2G16G 6
  21483955.664     3990056.438 7   3109132.10123
  23209811.1334   -6440375.77546  -5018468.95061
  20758695.6174    -633280.15446   -493464.34662
  22398874.2034   -9784095.12646  -7583047.23862
  23493411.773    -4681925.766 5  -3500425.75821
  23814821.336    -3611166.273 5  -2716711.82721
 91  5 13 19 10 45.0000000  0  6G18G11G19G 2G16G 6
  21489386.750     4018596.533 7   3131371.11423
  23205208.7894   -6464560.52046  -5037314.17861
  20758596.7814    -633786.75047   -493859.09062
  22389898.9614   -9831261.07446  -7619799.83562
  23489138.8594   -4704377.58845  -3517920.64861
  23806963.891    -3652471.942 5  -2748897.93621
 91  5 13 19 11  0.0000000  0  6G18G11G19G 2G16G 6
  21494833.672     4047220.988 7   3153675.87023
  23200630.8284   -6488617.70246  -5056060.03761
  20758508.7974    -634252.64446   -494222.12662
  22380934.141    -9878366.031 7  -7656504.90922
  23484893.125    -4726703.472 5  -3535317.38221
  23799104.3984   -3693766.54745  -2781075.39461
 91  5 13 19 11 15.0000000  0  6G18G11G19G 2G16G 6
  21500295.539     4075923.209 7   3176041.21923
  23196076.773    -6512553.586 6  -5074711.36221
  20758427.4384    -634684.43147   -494558.58762
  22371981.4924   -9925416.46847  -7693167.50162
  23480664.453    -4748909.689 5  -3552620.87321
  23791251.008    -3735056.794 5  -2813249.47121
 91  5 13 19 11 30.0000000  0  6G18G11G19G 2G16G 6
  21505774.102     4104709.294 7   3198471.91723
  23191547.4844   -6536361.48046  -5093262.93261
  20758353.2664    -635075.73547   -494863.49962
  22363038.336    -9972405.923 6  -7729782.57622
  23476463.734    -4770989.902 5  -3569826.17421
  23783390.2584   -3776336.25145  -2845415.12361
 91  5 13 19 11 45.0000000  0  6G18G11G19G 2G16G 6
  21511267.789     4133583.396 7   3220971.19223
  23187039.3594   -6560036.88246  -5111711.28761
  20758285.2424    -635421.99447   -495133.30462
  22354109.8524  -10019329.89347  -7766346.62662
  23472284.609    -4792939.973 5  -3586930.08021
  23775539.969    -3817600.596 5  -2877569.03421
 91  5 13 19 12  0.0000000  0  6G18G11G19G 2G16G 6
  21516781.047     4162557.826 7   3243548.64623
  23182563.281    -6583567.393 6  -5130046.73221
  20758233.5314    -635711.25247   -495358.69562
  22345195.445   -10066176.243 7  -7802850.19222
  23468138.398    -4814747.420 5  -3603922.84121
  23767688.4844   -3858837.83545  -2909701.83161
 91  5 13 19 12 15.0000000  0  6G18G11G19G 2G16G 6
  21522309.211     4191604.210 7   3266182.17223
  23178109.727    -6606980.574 6  -5148290.74621
  20758182.1804    -635971.14747   -495561.20962
  22336287.539   -10112972.625 7  -7839314.82522
  23464008.102    -4836439.909 5  -3620826.03121
  23759843.492    -3900075.685 4  -2941835.07921
 91  5 13 19 12 30.0000000  0  6G18G11G19G 2G16G 6
  21527848.922     4220727.629 7   3288875.72223
  23173676.406    -6630271.185 6  -5166439.26321
  20758140.1724    -636196.82247   -495737.05962
  22327396.938   -10159713.714 7  -7875736.37122
  23459903.1414   -4858012.47145  -3637635.76561
  23752001.8754   -3941309.31545  -2973965.02761
 91  5 13 19 12 45.0000000  0  6G18G11G19G 2G16G 6
  21533408.367     4249924.845 7   3311626.77623
  23169265.383    -6653442.144 6  -5184494.53521
  20758101.5234    -636391.30347   -495888.60462
  22318508.813   -10206402.540 7  -7912117.19822
  23455822.477    -4879468.126 5  -3654354.42421
  23744147.648    -3982541.754 5  -3006094.07921
 91  5 13 19 13  0.0000000  0  6G18G11G19G 2G16G 6
  21538977.188     4279201.363 7   3334439.63223
  23164880.281    -6676487.444 6  -5202451.88821
  20758071.4924    -636548.80246
  22309638.750   -10253033.319 7  -7948452.78922
  23451763.781    -4900800.755 5  -3670977.18721
  23736304.3524   -4023767.25944  -3038217.73261
 91  5 13 19 13 15.0000000  0  6G18G11G19G 2G16G 6
  21544565.7664    4308561.65647   3357317.75662
  23160521.047    -6699402.351 6  -5220307.64121
  20758050.9384    -636664.81747
  22300774.383   -10299601.439 7  -7984739.55122
  23447723.6564   -4922006.08645  -3687500.78261
  23728460.0784   -4064981.42945  -3070332.54261
 91  5 13 19 13 30.0000000  0  6G18G11G19G 2G16G 6
  21550166.648     4337999.272 7   3380256.13323
  23156182.5084   -6722192.72746  -5238066.34361
  20758035.5704    -636745.40347
  22291925.141   -10346112.724 7  -8020982.03822
  23443714.531    -4943090.120 5  -3703929.86221
  23720620.422    -4106190.286 5  -3102443.19821
 91  5 13 19 13 45.0000000  0  6G18G11G19G 2G16G 6
  21555784.258     4367513.558 7   3403254.25022
  23151868.813    -6744858.922 6  -5255728.29921
  20758024.4144    -636791.20347
  22283083.375   -10392567.861 7  -8057180.76922
  23439727.914    -4964053.400 5  -3720264.82221
  23712778.2894   -4147394.52145  -3134550.24561
 91  5 13 19 14  0.0000000  0  6G18G11G19G 2G16G 6
  21561416.805     4397116.663 7   3426321.58423
  23147583.0234   -6767388.34646  -5273283.68161
  20758024.1024    -636789.68247
  22274256.875   -10438954.195 7  -8093325.88822
  23435761.422    -4984883.470 5  -3736496.00721
  23704943.6174   -4188581.75745  -3166644.08061
 91  5 13 19 14 15.0000000  0  6G18G11G19G 2G16G 6
  21567065.9924    4426807.39247   3449457.18863
  23143319.773    -6789781.991 6  -5290733.25221
  20758034.4694    -636741.95847
  22265441.289   -10485272.555 7  -8129418.04122
  23431823.094    -5005581.159 5  -3752624.04421
  23697110.2504   -4229753.20045  -3198725.58861
 91  5 13 19 14 30.0000000  0  6G18G11G19G 2G16G 6
  21572731.617     4456577.417 7   3472654.58522
  23139085.0084   -6812047.71046  -5308083.14961
  20758055.7504    -636656.22346
  22256638.984   -10531530.945 7  -8165463.46122
  23427905.6954   -5026154.65545  -3768655.29361
  23689267.359    -4270916.844 5  -3230801.01621
 91  5 13 19 14 44.9990000  0  6G18G11G19G 2G16G 6
  21578413.0584    4486423.16447   3495910.98763
  23134872.183    -6834185.171 6  -5325333.10621
  20758074.6674    -636533.68147
  22247848.675   -10577727.639 7  -8201460.81622
  23424013.636    -5046603.929 5  -3784589.75021
  23681444.4874   -4312071.35845  -3262869.35061
 91  5 13 19 14 59.9990000  0  6G18G11G19G 2G16G 6
  21584107.370     4516350.093 7   3519230.64922
  23130681.8944   -6856195.81546  -5342484.23561
  20758105.847     -636373.177 7
  22239067.573   -10623867.463 7  -8237413.84922
  23420148.230    -5066930.207 5  -3800428.36121
  23673612.1054   -4353221.20045  -3294934.01661
 91  5 13 19 15 14.9990000  0  6G18G11G19G 2G16G 6
  21589816.6834    4546358.21347   3542613.56962
  23126518.995    -6878075.407 6  -5359533.25121
  20758144.3624    -636172.14147
  22230299.605   -10669944.634 7  -8273318.06722
  23416301.4874   -5087129.82745  -3816168.28961
  23665783.4334   -4394360.94045  -3326990.82561
 91  5 13 19 15 29.9990000  0  6G18G11G19G 2G16G 6
  21595541.0894    4576443.15747   3566056.35562
  23122379.675    -6899827.938 6  -5376483.25521
  20758192.4724    -635934.68146   -495532.77562
  22221543.050   -10715963.241 7  -8309176.65022
  23412481.128    -5107206.644 5  -3831812.51821
  23657955.7374   -4435494.81445  -3359043.08061
 91  5 13 19 15 44.9990000  0  6G18G11G19G 2G16G 6
  21601281.9724    4606605.90147   3589559.76462
  23118265.144    -6921452.104 6  -5393333.23921
  20758242.3624    -635659.66747   -495318.47462
  22212796.8084  -10761922.13247  -8344988.70162
  23408686.823    -5127159.814 5  -3847360.38521
  23650129.120    -4476621.674 5  -3391089.87121
 91  5 13 19 15 59.9990000  0  6G18G11G19G 2G16G 6
  21607038.5504    4636850.18647   3613126.71062
  23114175.519    -6942943.780 6  -5410079.97921
  20758302.6444    -635343.07447   -495071.77362
  22204065.831   -10807817.109 7  -8380750.94622
  23404914.526    -5146985.052 5  -3862808.59021
  23642303.8944   -4517737.72345  -3423128.20161
 91  5 13 19 16 14.9990000  0  6G18G11G19G 2G16G 6
  21612807.5344    4667178.36947   3636759.03262
  23110111.745    -6964300.223 6  -5426721.34921
  20758370.8474    -634982.42947   -494790.75962
  22195340.6444  -10853645.63347  -8416461.41562
  23401164.964    -5166679.811 5  -3878155.10021
  23634475.4724   -4558840.56445  -3455156.27261
 91  5 13 19 16 29.9990000  0  6G18G11G19G 2G16G 6
  21618595.4874    4697582.37047   3660450.43262
  23106070.503    -6985529.193 6  -5443263.37721
  20758450.7144    -634585.80746   -494481.70262
  22186635.058   -10899415.533 7  -8452126.20322
  23397442.3864   -5186252.17445  -3893406.25561
  23626662.198    -4599937.987 5  -3487180.10921
 91  5 13 19 16 44.9990000  0  6G18G11G19G 2G16G 6
  21624394.7374    4728067.44547   3684205.00562
  23102057.073    -7006625.245 6  -5459701.84321
  20758531.1834    -634147.77047   -494140.37462
  22177935.6284  -10945121.32147  -8487741.03262
  23393738.331    -5205696.561 5  -3908557.68121
  23618845.1674   -4641024.84645  -3519195.72961
 91  5 13 19 16 59.9990000  0  6G18G11G19G 2G16G 6
  21630212.026     4758633.684 7   3708022.82922
  23098068.331    -7027587.785 6  -5476036.27121
  20758621.5344    -633667.90446   -493766.45062
  22169249.7224  -10990762.76947  -8523305.72762
  23390067.1284   -5225012.65845  -3923609.14561
  23611022.6444   -4682100.82745  -3551202.85361
 91  5 13 19 17 14.9990000  0  6G18G11G19G 2G16G 6
  21636042.9954    4789275.08547   3731899.21262
  23094104.9564   -7048422.35446  -5492270.96961
  20758719.2844    -633152.04847   -493364.49162
  22160577.8004  -11036345.26047  -8558824.48462
  23386412.6444   -5244206.18245  -3938565.08461
  23603207.956    -4723171.661 5  -3583205.96521
 91  5 13 19 17 29.9990000  0  6G18G11G19G 2G16G 6
  21641887.1364    4819992.09847   3755834.52262
  23090162.761    -7069128.197 6  -5508405.37221
  20758825.1124    -632599.54947   -492933.97762
  22151914.167   -11081868.136 7  -8594296.77922
  23382781.3784   -5263276.58745  -3953425.09561
  23595391.737    -4764236.780 5  -3615204.64321
 91  5 13 19 17 44.9990000  0  6G18G11G19G 2G16G 6
  21647745.0584    4850780.56347   3779825.49662
  23086245.292    -7089709.050 6  -5524442.37321
  20758934.9804    -632014.21947   -492477.88162
  22143261.730   -11127335.073 7  -8629725.49222
  23379174.300    -5282227.661 5  -3968192.12621
  23587585.7844   -4805300.17645  -3647201.96961
 91  5 13 19 17 59.9990000  0  6G18G11G19G 2G16G 6
  21653622.198     4881652.533 7   3803881.54822
  23082356.573    -7110152.530 6  -5540372.35221
  20759057.1444    -631383.83447   -491986.67262
  22134621.4804  -11172733.94247  -8665101.16762
  23375594.5504   -5301047.13445  -3982856.61061
  23579771.683    -4846349.653 5  -3679188.47021
 91  5 13 19 18 14.9990000  0  6G18G11G19G 2G16G 6
  21659513.0734    4912612.33647   3828006.04062
  23078493.284    -7130453.965 6  -5556191.62821
  20759184.8394    -630703.71147   -491456.70962
  22125996.1674  -11218060.10547  -8700420.18662
  23372042.2534   -5319730.59045  -3997415.11461
  23571964.261    -4887380.695 5  -3711160.56621
 91  5 13 19 18 29.9990000  0  6G18G11G19G 2G16G 6
  21665418.5814    4943647.33447   3852189.11862
  23074653.245    -7150625.740 6  -5571909.87121
  20759322.2924    -629986.63947   -490897.95462
  22117381.5344  -11263326.09547  -8735692.32562
  23368507.7144   -5338290.59445  -4011877.41661
  23564154.581    -4928405.905 5  -3743128.14221
 91  5 13 19 18 44.9990000  0  6G18G11G19G 2G16G 6
  21671337.8004    4974759.02147   3876431.96162
  23070841.620    -7170666.026 6  -5587525.66321
  20759464.6904    -629231.07147   -490309.20262
  22108782.815   -11308530.060 7  -8770916.12822
  23364999.6674   -5356725.39945  -4026242.15761
  23556354.0894   -4969423.74145  -3775089.96961
 91  5 13 19 18 59.9990000  0  6G18G11G19G 2G16G 6
  21677274.0814    5005952.95747   3900738.89362
  23067053.300    -7190568.629 6  -5603034.17421
  20759616.9644    -628430.81847   -489685.62962
  22100191.8004  -11353665.82147  -8806086.78362
  23361514.5034   -5375028.74345  -4040504.46361
  23548547.198    -5010428.152 5  -3807041.33921
 91  5 13 19 19 14.9990000  0  6G18G11G19G 2G16G 6
  21683227.362     5037224.367 7   3925106.19722
  23063290.683    -7210338.110 6  -5618438.94721
  20759777.8784    -627590.62747   -489030.93162
  22091615.5194  -11398738.04147  -8841207.92962
  23358056.339    -5393205.231 5  -4054667.91821
  23540748.581    -5051423.972 5  -3838986.03221
 91  5 13 19 19 29.9990000  0  6G18G11G19G 2G16G 6
  21689191.5034    5068579.09047   3949538.41262
  23059555.1444   -7229968.22146  -5633735.11661
  20759947.8154    -626704.47847   -488340.42262
  22083052.6124  -11443740.57547  -8876274.77462
  23354618.7064   -5411249.12345  -4068728.07261
  23532947.667    -5092405.117 5  -3870919.28221
 91  5 13 19 19 44.9990000  0  6G18G11G19G 2G16G 6
  21695174.4484    5100013.45947   3974032.69662
  23055846.933    -7249462.147 6  -5648925.16521
  20760123.5264    -625775.67847   -487616.68262
  22074501.1674  -11488676.92147  -8911290.03962
  23351211.8314   -5429163.80445  -4082687.52561
  23525153.3784   -5133375.07345  -3902843.78561
 91  5 13 19 19 59.9990000  0  6G18G11G19G 2G16G 6
  21701169.3944    5131523.81147   3998586.18262
  23052161.355    -7268823.366 6  -5664011.81221
  20760306.5424    -624807.74547   -486862.45662
  22065961.7924  -11533550.47747  -8946256.38362
  23347827.651    -5446953.067 5  -4096549.24821
  23517356.0894   -5174337.56445  -3934762.48661
 91  5 13 19 20 14.9990000  0  6G18G11G19G 2G16G 6
  21707180.0424    5163108.56547   4023197.65262
  23048504.1674   -7288053.12546  -5678996.01761
  20760497.4094    -623802.16947   -486078.88962
  22057435.0654  -11578362.38747  -8981174.68862
  23344469.644    -5464617.861 5  -4110313.98321
  23509565.940    -5215293.933 5  -3966676.43321
 91  5 13 19 20 29.9990000  0  6G18G11G19G 2G16G 6
  21713207.9094    5194773.68147   4047871.72962
  23044868.089    -7307145.103 6  -5693872.85821
  20760698.7064    -622752.74847   -485261.16162
  22048918.4724  -11623106.35547  -9016040.04862
  23341131.0974   -5482152.18345  -4123977.05961
  23501772.6054   -5256238.00845  -3998580.79261
 91  5 13 19 20 44.9990000  0  6G18G11G19G 2G16G 6
  21719246.1834    5226516.26947   4072606.17462
  23041261.730    -7326101.609 6  -5708644.14121
  20760905.7144    -621662.18147   -484411.36762
  22040414.4724  -11667785.00047  -9050854.51662
  23337815.9174   -5499558.52845  -4137540.41061
  23493982.5734   -5297172.39045  -4030477.61061
 91  5 13 19 20 59.9990000  0  6G18G11G19G 2G16G 6
  21725304.1984    5258339.37247   4097403.36862
  23037682.034    -7344919.458 6  -5723307.39521
  20761121.4094    -620527.23047   -483526.98962
  22031928.1444  -11712395.19947  -9085615.64762
  23334533.3704   -5516833.73345  -4151001.57561
  23486191.042    -5338094.170 5  -4062364.59321
 91  5 13 19 21 14.9990000  0  6G18G11G19G 2G16G 6
  21731372.8154    5290243.55347   4122263.73362
  23034128.276    -7363597.814 6  -5737861.93821
  20761346.7844    -619347.07247   -482607.39162
  22023449.0974  -11756936.08346  -9120322.76362
  23331270.8784   -5533977.26745  -4164360.14261
  23478409.3624   -5379002.50545  -4094241.11361
 91  5 13 19 21 29.9990000  0  6G18G11G19G 2G16G 6
  21737458.3234    5322220.99147   4147181.17362
  23030596.706    -7382144.042 6  -5752313.51921
  20761577.3784    -618129.46547   -481658.60462
  22014986.2764  -11801415.04847  -9154981.63162
  23328029.315    -5550996.638 5  -4177621.96021
  23470628.4644   -5419905.20245  -4126113.25461
 91  5 13 19 21 44.9990000  0  6G18G11G19G 2G16G 6
  21743559.8784    5354278.68747   4172161.16562
  23027096.9484   -7400550.68046  -5766656.34561
  20761817.9564    -616867.02547   -480674.88762
  22006536.0734  -11845824.81147  -9189586.58262
  23324816.4334   -5567884.17445  -4190781.04661
  23462845.339    -5460794.797 5  -4157975.16921
 91  5 13 19 21 59.9990000  0  6G18G11G19G 2G16G 6
  21749675.3784    5386417.50547   4197204.35562
  23023619.823    -7418816.644 6  -5780889.55121
  20762067.2144    -615558.65147   -479655.37462
  21998101.6204  -11890164.32447  -9224136.78262
  23321625.714    -5584639.311 5  -4203836.96721
  23455063.058    -5501670.422 5  -4189826.20721
 91  5 13 19 22 14.9990000  0  6G18G11G19G 2G16G 6
  21755804.7454    5418627.67947   4222303.15662
  23020169.1124   -7436951.29146  -5795020.43661
  20762322.5894    -614213.82947   -478607.46362
  21989674.5974  -11934442.86647  -9258639.48262
  23318466.933    -5601271.472 5  -4216797.07021
  23447287.558    -5542541.714 5  -4221673.85421
 91  5 13 19 22 29.9990000  0  6G18G11G19G 2G16G 6
  21761948.0654    5450910.56847   4247458.61762
  23016745.237    -7454953.140 6  -5809047.83221
  20762585.7374    -612831.31747   -477530.18362
  21981258.5264  -11978659.01647  -9293093.55662
  23315320.487    -5617779.201 5  -4229660.20021
  23439515.0424   -5583407.24345  -4253517.02261
 91  5 13 19 22 44.9990000  0  6G18G11G19G 2G16G 6
  21768106.4254    5483268.40647   4272672.47762
  23013343.308    -7472819.287 6  -5822969.49421
  20762857.2534    -611408.32047   -476421.35162
  21972858.9644  -12022809.91347  -9327496.79762
  23312203.097    -5634159.435 5  -4242423.99521
  23431736.480    -5624264.383 5  -4285353.64521
 91  5 13 19 22 59.9990000  0  6G18G11G19G 2G16G 6
  21774279.1514    5515705.92047   4297948.42562
  23009972.464    -7490544.782 6  -5836781.55821
  20763136.3314    -609939.99046   -475277.20562
  21964470.5264  -12066890.74447  -9361845.43262
  23309110.901    -5650407.949 5  -4255085.14621
  23423965.4174   -5665108.29945  -4317179.96861
 91  5 13 19 23 14.9990000  0  6G18G11G19G 2G16G 6
  21780465.9954    5548226.25947   4323288.91062
  23006626.589    -7508126.100 6  -5850481.27121
  20763424.1984    -608423.06847   -474095.19862
  21956095.3394  -12110898.03747  -9396136.77062
  23306042.3004   -5666521.28245  -4267640.96161
  23416194.300    -5705935.746 5  -4348993.46421
 91  5 13 19 23 29.9990000  0  6G18G11G19G 2G16G 6
  21786670.792     5580827.313 7   4348692.29022
  23003307.0584   -7525565.15746  -5864070.13561
  20763723.0654    -606859.56747   -472876.87962
  21947731.5264  -12154833.55346  -9430372.17962
  23303005.1124   -5682501.44745  -4280093.00861
  23408432.940    -5746748.688 5  -4380795.64421
 91  5 13 19 23 44.9990000  0  6G18G11G19G 2G16G 6
  21792889.3554    5613508.04047   4374157.75862
  23000015.4804   -7542862.52046  -5877548.59261
  20764028.1364    -605250.04647   -471622.71362
  21939386.878   -12198698.086 7  -9464552.28022
  23299988.6444   -5698348.94345  -4292441.69861
  23400665.8624   -5787547.91545  -4412587.15961
 91  5 13 19 23 59.9990000  0  6G18G11G19G 2G16G 6
  21799124.214     5646268.235 7   4399685.13722
  22996750.2454   -7560018.33946  -5890916.74861
  20764344.0424    -603594.74647   -470332.86762
  21931052.3234  -12242492.04247  -9498677.37762
  23296995.7224   -5714064.17445  -4304687.30061
  23392906.5814   -5828333.85945  -4444368.31861
 91  5 13 19 24 14.9990000  0  6G18G11G19G 2G16G 6
  21805373.3474    5679101.94747   4425269.80762
  22993510.331    -7577037.665 6  -5904178.54621
  20764665.7224    -601898.95047   -469011.47062
  21922735.0114  -12286220.38947  -9532751.35862
  23294032.300    -5729652.453 5  -4316833.98621
  23385144.995    -5869111.597 5  -4476143.08221
 91  5 13 19 24 29.9990000  0  6G18G11G19G 2G16G 6
  21811637.6054    5712017.99247   4450918.63362
  22990301.8704   -7593911.64646  -5917327.10161
  20764999.1834    -600153.84647   -467651.65062
  21914427.2844  -12329874.06347  -9566767.14962
  23291096.9254   -5745105.20545  -4328875.07361
  23377389.4874   -5909872.48745  -4507904.71161
 91  5 13 19 24 44.9990000  0  6G18G11G19G 2G16G 6
  21817916.5584    5745017.51647   4476632.51362
  22987114.5344   -7610638.78146  -5930361.22561
  20765339.8234    -598358.03747   -466252.32162
  21906133.8154  -12373451.78047  -9600723.75262
  23288182.151    -5760420.670 5  -4340809.16821
  23369632.276    -5950615.176 5  -4539652.15521
 91  5 13 19 24 59.9990000  0  6G18G11G19G 2G16G 6
  21824210.659     5778099.165 6   4502410.37722
  22983962.4014   -7627220.07946  -5943281.70661
  20765691.4334    -596512.65347   -464814.36662
  21897853.8314  -12416954.74247  -9634622.10862
  23285294.3394   -5775600.13145  -4352637.30961
  23361883.4014   -5991340.91345  -4571386.40261
 91  5 13 19 25 14.9990000  0  6G18G11G19G 2G16G 6
  21830521.550     5811260.386 6   4528250.24522
  22980834.1054   -7643657.66646  -5956090.20961
  20766050.0194    -594620.07347   -463339.62662
  21889589.722   -12460385.066 7  -9668463.86322
  23282430.394    -5790645.807 5  -4364361.18621
  23354137.0424   -6032052.04945  -4603109.26461
 91  5 13 19 25 29.9990000  0  6G18G11G19G 2G16G 6
  21836844.823     5844496.624 6   4554148.57122
  22977733.097    -7659955.983 6  -5968790.18421
  20766422.5734    -592684.85347   -461831.66162
  21881337.605   -12503747.193 7  -9702252.48322
  23279592.464    -5805562.455 5  -4375984.52521
  23346394.1054   -6072753.14645  -4634824.30561
 91  5 13 19 25 44.9990000  0  6G18G11G19G 2G16G 6
  21843184.4484    5877810.41246   4580107.32462
  22974657.9254   -7676111.96646  -5981379.25361
  20766796.5034    -590703.98747   -460288.13662
  21873098.456   -12547038.152 7  -9735985.64522
  23276776.6444   -5820346.97345  -4387504.90161
  23338646.581    -6113441.201 5  -4666529.18521
 91  5 13 19 25 59.9990000  0  6G18G11G19G 2G16G 6
  21849537.073     5911200.081 6   4606125.20422
  22971610.3944   -7692126.90946  -5993858.43361
  20767182.5114    -588678.85447   -458710.10562
  21864877.401   -12590259.190 7  -9769664.32322
  23273991.5034   -5835000.81845  -4398923.46161
  23330906.753    -6154117.783 5  -4698225.14121
 91  5 13 19 26 14.9990000  0  6G18G11G19G 2G16G 6
  21855906.276     5944670.456 6   4632205.96422
  22968592.3784   -7707995.73346  -6006223.74061
  20767574.8084    -586604.39047   -457093.65062
  21856666.144   -12633405.194 7  -9803284.52922
  23271224.3394   -5849519.05545  -4410236.36261
  23323172.0814   -6194777.84545  -4729908.20361
 91  5 13 19 26 29.9990000  0  6G18G11G19G 2G16G 6
  21862292.6204    5978220.23046   4658348.60762
  22965599.4404   -7723719.48746  -6018476.00361
  20767982.0974    -584481.83347   -455439.71462
  21848468.4254  -12676477.36447  -9836847.20662
  23268486.386    -5863903.367 5  -4421444.89721
  23315434.425    -6235422.700 5  -4761579.42221
 91  5 13 19 26 44.9990000  0  6G18G11G19G 2G16G 6
  21868692.480     6011848.070 6   4684552.07922
  22962633.808    -7739299.200 6  -6030616.03521
  20768394.5034    -582312.13947   -453749.04662
  21840286.855   -12719476.733 7  -9870353.15622
  23265775.487    -5878154.554 5  -4432549.68621
  23307702.378    -6276053.446 5  -4793239.65021
 91  5 13 19 26 59.9990000  0  6G18G11G19G 2G16G 6
  21875105.815     6045552.519 6   4710815.23822
  22959696.1444   -7754735.74446  -6042644.50661
  20768816.5974    -580096.39746   -452022.49762
  21832116.714   -12762404.318 7  -9903803.17022
  23263089.730    -5892273.475 5  -4443551.43821
  23299971.519    -6316671.213 5  -4824889.77221
 91  5 13 19 27 14.9990000  0  6G18G11G19G 2G16G 6
  21881531.855     6079332.276 6   4737137.06922
  22956784.5734   -7770030.28046  -6054562.32961
  20769244.9334    -577836.12047   -450261.25262
  21823960.964   -12805261.275 7  -9937198.15122
  23260429.401    -5906261.639 5  -4454451.28021
  23292251.386    -6357277.310 5  -4856530.80821
 91  5 13 19 27 29.9990000  0  6G18G11G19G 2G16G 6
  21887975.019     6113188.660 6   4763518.62022
  22953902.2144   -7785181.15246  -6066368.19661
  20769684.2694    -575529.52247   -448463.90462
  21815817.948   -12848046.133 7  -9970536.95222
  23257790.425    -5920117.549 5  -4465248.07821
  23284523.175    -6397870.204 5  -4888161.52521
 91  5 13 19 27 44.9990000  0  6G18G11G19G 2G16G 6
  21894433.745     6147120.104 6   4789958.66222
  22951045.9564   -7800189.45146  -6078062.97461
  20770130.6124    -573177.93547   -446631.50862
  21807692.183   -12890759.816 7 -10003820.29322
  23255176.2924   -5933842.29945  -4475942.68061
  23276806.026    -6438451.197 5  -4919782.99521
 91  5 13 19 27 59.9990000  0  6G18G11G19G 2G16G 6
  21900903.980     6181128.893 6   4816458.96722
  22948218.565    -7815052.660 6  -6089644.68021
  20770590.9804    -570778.83346   -444762.08362
  21799577.214   -12933399.809 7 -10037046.20822
  23252591.448    -5947433.469 5  -4486533.18421
  23269083.339    -6479017.911 5  -4951393.34321
 91  5 13 19 28 14.9990000  0  6G18G11G19G 2G16G 6
  21907393.706     6215220.721 6   4843023.97822
  22945418.0114   -7829764.82846  -6101108.70561
  20771055.0584    -568326.28747   -442851.01362
  21791481.823   -12975960.236 7 -10070210.12722
  23250031.8624   -5960885.41245  -4497015.20961
  23261366.6904   -6519564.43945  -4982987.95661
 91  5 13 19 28 29.9990000  0  6G18G11G19G 2G16G 6
  21913895.9484    6249387.06946   4869647.05162
  22942647.7764   -7844333.89546  -6112461.22661
  20771529.4404    -565828.57547   -440904.75462
  21783393.737   -13018449.156 7 -10103318.32922
  23247496.542    -5974206.332 5  -4507395.12821
  23253656.1984   -6560099.04745  -5014573.27061
 91  5 13 19 28 44.9990000  0  6G18G11G19G 2G16G 6
  21920409.753     6283626.204 6   4896326.84222
  22939899.9014   -7858761.64946  -6123703.61661
  20772013.8784    -563287.32047   -438924.56462
  21775320.370   -13060868.084 7 -10136371.98922
  23244987.276    -5987397.820 5  -4517674.19521
  23245943.2144   -6600623.40845  -5046150.62961
 91  5 13 19 28 59.9990000  0  6G18G11G19G 2G16G 6
  21926939.519     6317936.810 6   4923062.32822
  22937182.2304   -7873049.11346  -6134836.71261
  20772508.8944    -560703.61446   -436911.29362
  21767262.472   -13103218.268 7 -10169372.08922
  23242503.3864   -6000461.03245  -4527853.30261
  23238232.550    -6641138.704 5  -5077720.91221
 91  5 13 19 29 14.9990000  0  6G18G11G19G 2G16G 6
  21933482.722     6352325.494 6   4949858.65122
  22934492.1904   -7887189.15346  -6145854.91961
  20773007.5894    -558070.41647   -434859.44962
  21759214.917   -13145492.658 6 -10202313.12322
  23240037.480    -6013388.891 5  -4537926.94721
  23230524.3624   -6681638.01645  -5109278.72661
 91  5 13 19 29 29.9990000  0  6G18G11G19G 2G16G 6
  21940038.862     6386780.907 6   4976706.97722
  22931826.1204   -7901192.91046  -6156766.93961
  20773518.8784    -555399.01346   -432777.84962
  21751184.839   -13187702.358 7 -10235203.75822
  23237605.690    -6026193.175 5  -4547904.30321
  23222816.612    -6722132.573 5  -5140832.85321
 91  5 13 19 29 44.9990000  0  6G18G11G19G 2G16G 6
  21946608.683     6421311.899 6   5003614.18422
  22929189.706    -7915050.961 6  -6167565.41021
  20774033.5194    -552680.13447   -430659.24962
  21743166.4254  -13229838.04247 -10268036.71662
  23235196.7924   -6038864.36845  -4557777.94461
  23215118.378    -6762613.202 5  -5172376.12821
 91  5 13 19 29 59.9990000  0  6G18G11G19G 2G16G 6
  21953196.800     6455921.178 6   5030582.39722
  22926580.5194   -7928760.46746  -6178248.14961
  20774561.9644    -549911.10546   -428501.56662
  21735164.245   -13271897.002 7 -10300809.88122
  23232808.7374   -6051399.77945  -4567545.80361
  23207413.722    -6803077.250 5  -5203906.47221
 91  5 13 19 30 14.9990000  0  6G18G11G19G 2G16G 6
  21959796.105     6490607.902 6   5057610.96622
  22923998.9254   -7942321.86546  -6188815.46861
  20775094.6444    -547092.37347   -426305.15962
  21727176.237   -13313879.830 7 -10333523.73522
  23230446.3314   -6063800.28045  -4577208.53061
  23199717.144    -6843525.233 5  -5235424.30221
 91  5 13 19 30 29.9990000  0  6G18G11G19G 2G16G 6
  21966411.6444    6525365.17846   5084694.49562
  22921445.6284   -7955741.71046  -6199272.48261
  20775642.5584    -544230.62746   -424075.23262
  21719200.355   -13355792.995 7 -10366183.29322
  23228114.4874   -6076072.17045  -4586771.03561
  23192024.214    -6883963.866 5  -5266934.84721
 91  5 13 19 30 44.9990000  0  6G18G11G19G 2G16G 6
  21973038.409     6560192.321 6   5111832.47822
  22918919.8474   -7969020.42846  -6209619.54461
  20776191.7924    -541326.27646   -421812.10662
  21711235.159   -13397636.631 7 -10398788.68122
  23225803.7144   -6088216.11945  -4596233.84961
  23184328.644    -6924393.549 5  -5298438.42921
 91  5 13 19 30 59.9990000  0  6G18G11G19G 2G16G 6
  21979681.5194    6595093.94146   5139028.48562
  22916421.8394   -7982153.31946  -6219852.94961
  20776755.9954    -538374.46246   -419511.99862
  21703286.480   -13439406.243 7 -10431336.38422
  23223515.5734   -6100227.67545  -4605593.50161
  23176636.917    -6964809.867 5  -5329931.57721
 91  5 13 19 31 14.9990000  0  6G18G11G19G 2G16G 6
  21986337.940     6630070.328 6   5166282.76422
  22913947.6984   -7995139.42046  -6229971.98461
  20777325.7374    -535374.28446   -417174.20562
  21695352.370   -13481100.993 7 -10463825.76022
  23221256.3394   -6112105.79145  -4614849.17261
  23168951.339    -7005211.853 5  -5361413.57821
 91  5 13 19 31 29.9990000  0  6G18G11G19G 2G16G 6
  21993003.9254    6665113.80546   5193589.30962
  22911504.7224   -8007986.45646  -6239982.66161
  20777904.7304    -532333.76746   -414804.97962
  21687431.081   -13522728.477 7 -10496262.71622
  23219021.8154   -6123858.48845  -4624007.10961
  23161263.7924   -7045607.33745  -5392890.52061
 91  5 13 19 31 44.9990000  0  6G18G11G19G 2G16G 6
  21999687.4564    6700227.58446   5220950.63562
  22909085.3314   -8020690.67746  -6249882.04361
  20778491.4174    -529249.32046   -412401.52062
  21679524.667   -13564284.904 7 -10528644.31022
  23216805.1834   -6135482.02945  -4633064.41661
  23153576.1514   -7085992.65245  -5424359.51861
 91  5 13 19 31 59.9990000  0  6G18G11G19G 2G16G 6
  22006384.136     6735413.542 6   5248368.20922
  22906697.8944   -8033249.92446  -6259668.46761
  20779087.831     -526118.704 6   -409962.09522
  21671630.089   -13605768.188 7 -10560968.90522
  23214620.4644   -6146974.45045  -4642019.54161
  23145892.1904   -7126365.79745  -5455819.04061
 91  5 13 19 32 14.9990000  0  6G18G11G19G 2G16G 6
  22013091.9254    6770678.56346   5275847.38661
  22904337.4804   -8045656.92346  -6269336.25361
  20779692.9254    -522934.61046   -407480.98962
  21663750.6514  -13647171.02847 -10593230.81962
  23212457.0584   -6158328.54045  -4650866.88861
  23138217.940    -7166719.617 5  -5487263.51721
 91  5 13 19 32 29.9990000  0  6G18G11G19G 2G16G 6
  22019817.5654    6806012.17946   5303380.01762
  22902002.8394   -8057921.88546  -6278893.36161
  20780307.4174    -519707.33246   -404966.23662
  21655885.2614  -13688503.85347 -10625438.17662
  23210326.3234   -6169554.66245  -4659614.51461
  23130539.2304   -7207064.50045  -5518701.01061
 91  5 13 19 32 44.9990000  0  6G18G11G19G 2G16G 6
  22026554.2064    6841417.82146   5330968.76962
  22899695.6054   -8070041.36546  -6288337.11161
  20780929.8624    -516433.48046   -402415.18862
  21648034.8944  -13729763.09147 -10657588.19462
  23208209.573    -6180649.486 5  -4668259.82821
  23122857.2304   -7247396.99745  -5550128.86661
 91  5 13 19 32 59.9990000  0  6G18G11G19G 2G16G 6
  22033305.3394    6876896.42646   5358614.36962
  22897417.6754   -8082013.96146  -6297666.39861
  20781562.6364    -513111.90646   -399826.95762
  21640198.8474  -13770947.30247 -10689679.75062
  23206130.5974   -6191611.71145  -4676801.82461
  23115194.2304   -7287715.93045  -5581546.15561
 91  5 13 19 33 14.9990000  0  6G18G11G19G 2G16G 6
  22040072.7454    6912451.97246   5386319.92961
  22895167.2374   -8093835.25946  -6306877.79861
  20782205.1514    -509738.07747   -397197.99962
  21632374.1514  -13812052.10647 -10721709.42662
  23204068.1054   -6202437.40545  -4685237.42561
  23107523.644    -7328016.911 5  -5612949.46121
 91  5 13 19 33 29.9990000  0  6G18G11G19G 2G16G 6
  22046851.894     6948081.143 6   5414082.86321
  22892946.0344   -8105508.23946  -6315973.62361
  20782855.7844    -506315.14647   -394530.79162
  21624565.7144  -13853080.50247 -10753679.56662
  23202031.808    -6213129.372 5  -4693568.83621
  23099857.1754   -7368303.09845  -5644341.23561
 91  5 13 19 33 44.9990000  0  6G18G11G19G 2G16G 6
  22053645.651     6983782.359 6   5441901.92422
  22890751.7764   -8117034.32646  -6324954.98561
  20783516.511     -502844.338 7   -391826.27622
  21616776.230   -13894033.746 7 -10785591.14622
  23200024.2764   -6223689.12745  -4701797.22261
  23092190.5734   -7408575.80545  -5675722.50961
 91  5 13 19 33 59.9990000  0  6G18G11G19G 2G16G 6
  22060452.4644    7019553.26246   5469775.29362
  22888589.3004   -8128415.38546  -6333823.33061
  20784183.9644    -499327.82846   -389086.14562
  21608994.0974  -13934913.96347 -10817445.81862
  23198037.5194   -6234118.87645  -4709924.30761
  23084531.589    -7448837.250 5  -5707095.00021
 91  5 13 19 34 14.9990000  0  6G18G11G19G 2G16G 6
  22067274.2764    7055393.79546   5497702.91461
  22886446.7224   -8139651.38746  -6342578.65661
  20784863.206     -495765.594 7   -386310.39422
  21601228.0974  -13975721.10947 -10849243.56162
  23196078.9014   -6244418.73245  -4717950.17361
  23076872.7224   -7489087.46245  -5738458.74361
 91  5 13 19 34 29.9990000  0  6G18G11G19G 2G16G 6
  22074107.276     7091306.166 6   5525686.52021
  22884339.5114   -8150739.67746  -6351218.88261
  20785549.612     -492155.013 6   -383496.96622
  21593479.7144  -14016452.53947 -10880982.30362
  23194141.1444   -6254586.23345  -4725872.90861
  23069215.8314   -7529323.85845  -5769811.73161
 91  5 13 19 34 44.9990000  0  6G18G11G19G 2G16G 6
  22080954.4644    7127292.18346   5553727.51061
  22882257.3784   -8161678.12346  -6359742.35061
  20786248.1674    -488494.00847   -380644.24162
  21585741.7064  -14057106.02947 -10912660.31362
  23192233.1364   -6264619.29345  -4733690.88061
  23061559.800    -7569544.408 5  -5801152.36221
 91  5 13 19 34 59.9990000  0  6G18G11G19G 2G16G 6
  22087817.4174    7163341.77146   5581818.02761
  22880201.0114   -8172476.50646  -6368156.68061
  20786950.6984    -484792.33846   -377759.82662
  21578021.0504  -14097691.54947 -10944285.35862
  23190350.8004   -6274527.73846  -4741411.75661
  23053907.8154   -7609758.95745  -5832488.32361
 91  5 13 19 35 14.9990000  0  6G18G11G19G 2G16G 6
  22094687.7304    7199464.42046   5609965.47861
  22878175.8234   -8183125.21746  -6376454.37361
  20787664.355     -481040.499 6   -374836.32722
  21570309.5194  -14138199.43547 -10975849.91462
  23188483.2764   -6284302.10945  -4749028.16361
  23046256.448    -7649957.989 5  -5863812.17321
 91  5 13 19 35 29.9990000  0  6G18G11G19G 2G16G 6
  22101575.0974    7235656.41046   5638166.96861
  22876178.2844   -8193627.68446  -6384638.11361
  20788389.2534    -477241.92446   -371876.41162
  21562616.9094  -14178633.10647 -11007356.63562
  23186654.565    -6293946.165 5  -4756543.02521
  23038609.4644   -7690145.06245  -5895126.72861
 91  5 13 19 35 44.9990000  0  6G18G11G19G 2G16G 6
  22108476.6444    7271916.84546   5666421.79561
  22874205.7924   -8203984.47546  -6392708.34161
  20789118.6514    -473397.11446   -368880.46062
  21554935.7064  -14218992.99147 -11038805.86762
  23184840.355    -6303460.546 5  -4763956.84521
  23030963.839    -7730320.760 5  -5926432.41421
 91  5 13 19 35 59.9990000  0  6G18G11G19G 2G16G 6
  22115389.6984    7308248.49646   5694732.11161
  22872265.1754   -8214192.36846  -6400662.54661
  20789859.6054    -469502.93246   -365846.04562
  21547271.7534  -14259275.88747
  23183059.433    -6312842.075 5  -4771267.14321
  23023319.792    -7770481.964 5
 91  5 13 19 36 14.9990000  0  6G18G11G19G 2G16G 6
  22122315.925     7344653.829 6   5723099.82121
  22870352.3314   -8224248.89546  -6408498.80161
  20790610.2614    -465557.03446   -362771.32662
  21539618.7694  -14299479.31847
  23181301.042    -6322088.267 5  -4778471.99021
  23015681.597    -7810626.304 5
 91  5 13 19 36 29.9990000  0  6G18G11G19G 2G16G 6
  22129259.9254    7381134.63946   5751526.36361
  22868467.2374   -8234151.76246  -6416215.31961
  20791371.542     -461557.062 6   -359654.47122
  21531985.1754  -14339600.99347
  23179563.511    -6331197.194 5  -4785569.87121
  23008047.237    -7850751.556 5
 91  5 13 19 36 44.9990000  0  6G18G11G19G 2G16G 6
  22136213.8314    7417677.85046   5780001.53561
  22866610.2064   -8243913.65346  -6423821.98561
  20792143.6904    -457515.71346   -356505.37962
  21524364.7844  -14379653.56347 -11163995.79462
  23177853.4724   -6340181.63345  -4792570.74161
  23000411.276    -7890870.367 5  -6051535.80821
 91  5 13 19 36 59.9990000  0  6G18G11G19G 2G16G 6
  22143180.0114    7454288.24446   5808529.05161
  22864777.5194   -8253529.60646  -6431314.95361
  20792919.1054    -453428.07046   -353320.20962
  21516755.8704  -14419632.26247 -11195147.99362
  23176172.526    -6349036.637 6  -4799470.76421
  22992780.909    -7930978.022 5  -6082788.48621
 91  5 13 19 37 14.9990000  0  6G18G11G19G 2G16G 6
  22150163.1674    7490969.75646   5837111.97161
  22862978.190    -8262995.525 6  -6438690.98021
  20793708.4954    -449290.14647   -350095.86662
  21509160.8234  -14459532.81847 -11226239.30562
  23174509.269    -6357758.360 5  -4806266.92221
  22985152.073    -7971070.471 5  -6114029.29221
 91  5 13 19 37 29.9990000  0  6G18G11G19G 2G16G 6
  22157153.331     7527719.225 6   5865747.85421
  22861206.0424   -8272314.26646  -6445952.33861
  20794504.4404    -445104.68146   -346834.47362
  21501583.581   -14499358.132 7 -11257271.99622
  23172873.331    -6366349.703 5  -4812961.49221
  22977524.2454   -8011150.60445  -6145260.52361
 91  5 13 19 37 44.9990000  0  6G18G11G19G 2G16G 6
  22164159.753     7564534.276 6   5894434.83521
  22859460.2614   -8281487.95646  -6453100.66461
  20795308.7924    -440873.82446   -343537.71362
  21494018.2924  -14539110.35947 -11288247.72362
  23171268.2304   -6374813.11945  -4819556.37261
  22969901.6904   -8051220.56045  -6176483.82561
 91  5 13 19 37 59.9990000  0  6G18G11G19G 2G16G 6
  22171181.9094    7601425.91946   5923181.50561
  22857744.8084   -8290505.21646  -6460127.10161
  20796126.4564    -436586.26346   -340196.76262
  21486471.2064  -14578778.01447 -11319157.55462
  23169680.3314   -6383137.19245  -4826042.69261
  22962276.792    -8091269.134 5  -6207690.46421
 91  5 13 19 38 14.9990000  0  6G18G11G19G 2G16G 6
  22178213.4334    7638385.09946   5951980.79861
  22856056.1284   -8299374.75946  -6467038.42261
  20796949.7304    -432250.84146   -336818.52762
  21478938.737   -14618369.879 7 -11350008.33222
  23168121.683    -6391330.809 5  -4832427.34221
  22954658.573    -8131305.101 5  -6238887.26221
 91  5 13 19 38 29.9990000  0  6G18G11G19G 2G16G 6
  22185257.3624    7675411.50646   5980832.47961
  22854394.4874   -8308096.85346  -6473834.85061
  20797783.792     -427867.724 6   -333403.11722
  21471419.136   -14657886.190 7 -11380800.23622
  23166594.737    -6399394.179 5  -4838710.50021
  22947043.1124   -8171328.72545  -6270074.46361
 91  5 13 19 38 44.9990000  0  6G18G11G19G 2G16G 6
  22192320.9014    7712506.85346   6009737.86961
  22852766.5344   -8316669.17746  -6480514.59261
  20798628.722     -423434.697 7   -329948.82822
  21463910.956   -14697324.652 7 -11411531.47622
  23165076.3784   -6407325.42145  -4844890.70161
  22939435.9014   -8211337.80845  -6301250.33761
 91  5 13 19 38 59.9990000  0  6G18G11G19G 2G16G 6
  22199392.722     7749670.931 6   6038696.81721
  22851161.8234   -8325091.67046  -6487077.57261
  20799481.2304    -418951.70446   -326455.59362
  21456424.3004  -14736685.19547 -11442201.99862
  23163593.769    -6415124.528 5  -4850967.94521
  22931818.542    -8251332.298 5  -6332414.80921
 91  5 13 19 39 14.9990000  0  6G18G11G19G 2G16G 6
  22206475.9254    7786903.40546   6067709.07661
  22849587.1204   -8333364.66746  -6493524.06761
  20800343.011     -414419.048 6   -322923.66422
  21448947.6124  -14775968.07447 -11472812.00862
  23162134.839    -6422791.877 5  -4856942.52221
  22924214.995    -8291312.534 5  -6363568.20221
 91  5 13 19 39 29.9990000  0  6G18G11G19G 2G16G 6
  22213573.5584    7824206.48246   6096776.33961
  22848040.6364   -8341485.77546  -6499852.20661
  20801218.2224    -409834.25246   -319351.10762
  21441484.8474  -14815170.91447 -11503359.64662
  23160697.245    -6430325.380 5  -4862812.80821
  22916603.2144   -8331276.30645  -6394708.76061
 91  5 13 19 39 44.9990000  0  6G18G11G19G 2G16G 6
  22220686.8084    7861577.97746   6125896.91861
  22846526.3474   -8349456.39246  -6506063.07461
  20802097.0734    -405198.68146   -315738.97962
  21434042.292   -14854294.992 7 -11533845.91822
  23159295.167    -6437726.384 5  -4868579.82921
  22909005.2694   -8371224.99745  -6425837.56961
 91  5 13 19 39 59.9990000  0  6G18G11G19G 2G16G 6
  22227812.5034    7899023.12446   6155074.88661
  22845038.9954   -8357271.51946  -6512152.78561
  20802992.4094    -400507.29547   -312083.36962
  21426612.026   -14893335.267 7 -11564266.88322
  23157908.230    -6444990.000 5  -4874239.80421
  22901407.6834   -8411153.63545  -6456950.74161
 91  5 13 19 40 14.9990000  0  6G18G11G19G 2G16G 6
  22234949.292     7936530.940 6   6184301.67221
  22843578.4254   -8364941.90146  -6518129.71461
  20803890.558     -395770.957 6   -308392.72422
  21419198.9094  -14932302.58447 -11594631.00262
  23156550.323    -6452127.279 5  -4879801.33321
  22893808.4334   -8451072.84945  -6488056.58761
 91  5 13 19 40 29.9990000  0  6G18G11G19G 2G16G 6
  22242100.097     7974105.286 6   6213580.31721
  22842147.3394   -8372463.32646  -6523990.56061
  20804806.7924    -390985.57146   -304663.86662
  21411797.105   -14971192.674 7 -11624934.94622
  23155223.073    -6459134.101 5  -4885261.21721
  22886217.3864   -8490978.74345  -6519152.06061
 91  5 13 19 40 44.9990000  0  6G18G11G19G 2G16G 6
  22249262.651     8011749.466 6   6242913.37121
  22840743.6984   -8379832.05246  -6529732.42761
  20805722.3084    -386147.17446   -300893.69262
  21404410.073   -15010001.677 7 -11655175.70222
  23153907.886    -6466006.578 5  -4890616.41121
  22878627.4334   -8530867.37945  -6550234.06861
 91  5 13 19 40 59.9990000  0  6G18G11G19G 2G16G 6
  22256439.2454    8049462.59746   6272300.15561
  22839369.8704   -8387048.92446  -6535355.96961
  20806652.9644    -381256.66146   -297082.91663
  21397042.5814  -15048730.46947 -11685353.95762
  23152628.2454   -6472745.97845  -4895867.90261
  22871038.5424   -8570739.74545  -6581303.40161
 91  5 13 19 41 14.9990000  0  6G18G11G19G 2G16G 6
  22263627.425     8087238.888 6   6301736.15021
  22838024.1904   -8394119.36546  -6540865.40561
  20807594.1444    -376319.38846   -293235.69662
  21389685.651   -15087384.293 7 -11715473.79922
  23151373.440    -6479357.778 5  -4901019.98221
  22863453.948    -8610601.397 5  -6612364.38621
 91  5 13 19 41 29.9990000  0  6G18G11G19G 2G16G 6
  22270832.6204    8125091.17946   6331231.37461
  22836710.0114   -8401030.11846  -6546250.41161
  20808546.4254    -371322.19146   -289341.78262
  21382346.144   -15125949.928 7 -11745524.91322
  23150139.909    -6485828.926 5  -4906062.45621
  22855870.4484   -8650438.98545  -6643406.63161
 91  5 13 19 41 44.9990000  0  6G18G11G19G 2G16G 6
  22278044.284     8163005.223 6   6360774.71321
  22835424.081    -8407795.296 6  -6551521.99521
  20809503.917     -366279.423 6   -285412.36822
  21375023.151   -15164441.580 7 -11775518.38522
  23148931.300    -6492173.653 5  -4911006.41521
  22848293.0584   -8690266.82545  -6674441.27461
 91  5 13 19 41 59.9990000  0  6G18G11G19G 2G16G 6
  22285273.480     8200983.555 6   6390368.14421
  22834163.394    -8414411.920 6  -6556677.81821
  20810476.3234    -361187.96246   -281445.00562
  21367712.214   -15202856.551 7 -11805452.10422
  23147753.792    -6498389.066 5  -4915849.61921
  22840716.4094   -8730081.97945  -6705466.03361
 91  5 13 19 42 14.9990000  0  6G18G11G19G 2G16G 6
  22292514.4404    8239026.24046   6420011.71561
  22832932.2534   -8420879.89846  -6561717.79861
  20811450.4014    -356047.54146   -277439.49362
  21360416.870   -15241194.471 7 -11835325.78322
  23146588.198    -6504475.126 5  -4920592.02921
  22833141.3554   -8769884.33345  -6736480.82361
 91  5 13 19 42 29.9990000  0  6G18G11G19G 2G16G 6
  22299763.230     8277134.461 6   6449706.35721
  22831728.901    -8427197.774 6  -6566640.83021
  20812442.058     -350856.766 6   -273394.74523
  21353137.737   -15279453.793 7 -11865138.22622
  23145455.886    -6510430.756 5  -4925232.80121
  22825571.0894   -8809672.46345  -6767484.52461
 91  5 13 19 42 44.9990000  0  6G18G11G19G 2G16G 6
  22307027.1364    8315306.72746   6479450.90161
  22830556.0734   -8433366.69846  -6571447.79061
  20813435.987     -345616.615 6   -269311.52422
  21345871.737   -15317635.601 7 -11894890.26022
  23144347.1904   -6516257.01245  -4929772.77861
  22818000.9174   -8849447.42845  -6798477.97761
 91  5 13 19 42 59.9990000  0  6G18G11G19G 2G16G 6
  22314303.722     8353542.878 6   6509245.23321
  22829411.5034   -8439386.57046  -6576138.59861
  20814444.573     -340327.096 6   -265189.83722
  21338618.683   -15355739.783 7 -11924581.80823
  23143266.5894   -6521953.75945  -4934211.82261
  22810435.4954   -8889209.33245  -6829461.24061
 91  5 13 19 43 14.9990000  0  6G18G11G19G 2G16G 6
  22321593.800     8391845.805 6   6539091.59721
  22828293.2844   -8445254.35646  -6580710.91661
  20815457.5654    -334985.17646   -261027.31262
  21331382.862   -15393763.141 7 -11954210.37922
  23142203.800    -6527518.259 5  -4938547.81521
  22802871.8864   -8928955.01145  -6860431.86161
 91  5 13 19 43 29.9990000  0  6G18G11G19G 2G16G 6
  22328895.5344    8430215.51446   6568989.99161
  22827207.3624   -8450969.68146  -6585164.42761
  20816487.190     -329590.477 6   -256823.66522
  21324163.370   -15431705.449 7 -11983775.79123
  23141173.3154   -6532950.20545  -4942780.52361
  22795312.9724   -8968684.19145  -6891389.64061
 91  5 13 19 43 44.9990000  0  6G18G11G19G 2G16G 6
  22336209.0264    8468652.82146   6598941.05261
  22826151.284    -8456531.663 6  -6589498.44521
  20817521.6904    -324142.04746   -252578.14462
  21316960.573   -15469565.850 7 -12013277.38023
  23140164.6984   -6538249.10245  -4946909.56661
  22787751.0424   -9008396.01545  -6922333.88361
 91  5 13 19 43 59.9990000  0  6G18G11G19G 2G16G 6
  22343535.737     8507154.159 6   6628942.02221
  22825121.3154   -8461943.43146  -6593715.41861
  20818568.792     -318643.059 6   -248293.23422
  21309769.769   -15507347.312 7 -12042717.46323
  23139182.323    -6543418.145 5  -4950937.41421
  22780196.2304   -9048093.67745  -6953267.08161
 91  5 13 19 44 14.9990000  0  6G18G11G19G 2G16G 6
  22350873.862     8545722.435 6   6658995.14621
  22824120.1124   -8467201.93146  -6597812.95861
  20819624.5114    -313090.08446   -243966.24962
  21302595.683   -15545046.695 7 -12072093.58423
  23138220.175    -6548454.354 5  -4954861.76921
  22772649.2304   -9087773.97445  -6984186.77061
 91  5 13 19 44 29.9990000  0  6G18G11G19G 2G16G 6
  22358227.737     8584361.882 6   6689103.72921
  22823150.534    -8472302.640 6  -6601787.54721
  20820692.433     -307478.825 6   -239593.85523
  21295437.651   -15582659.397 7 -12101402.16923
  23137291.8554   -6553353.20845  -4958679.09161
  22765103.6904   -9127432.30745  -7015089.32761
 91  5 13 19 44 44.9990000  0  6G18G11G19G 2G16G 6
  22365595.128     8623067.972 6   6719264.23521
  22822208.7144   -8477250.03546  -6605642.66661
  20821772.190     -301813.704 6   -235179.48722
  21288297.597   -15620189.945 7 -12130646.73122
  23136386.1054   -6558119.13245  -4962392.82661
  22757558.8234   -9167073.34545  -7045978.40861
 91  5 13 19 44 59.9990000  0  6G18G11G19G 2G16G 6
  22372971.855     8661836.541 6   6749473.43421
  22821294.8864   -8482047.67346  -6609381.10061
  20822859.276     -296098.283 6   -230725.92322
  21281169.042   -15657641.895 7 -12159830.05022
  23135503.347    -6562755.915 5  -4966005.93221
  22750022.667    -9206700.650 5  -7076856.80421
 91  5 13 19 45 14.9990000  0  6G18G11G19G 2G16G 6
  22380359.308     8700667.346 6   6779731.12721
  22820410.9724   -8486695.79946  -6613003.02861
  20823956.206     -290332.842 6   -226233.38522
  21274058.995   -15695015.517 7 -12188952.33723
  23134641.7454   -6567264.36345  -4969519.04861
  22742478.1674   -9246314.50345  -7107724.71361
 91  5 13 19 45 29.9990000  0  6G18G11G19G 2G16G 6
  22387762.315     8739556.645 6   6810034.39121
  22819550.730    -8491197.750 6  -6616511.04721
  20825062.8944    -284520.67346   -221704.43262
  21266959.776   -15732314.007 7 -12218016.08022
  23133810.9254   -6571647.67045  -4972934.64361
  22734945.1904   -9285918.33645  -7138584.81261
 91  5 13 19 45 44.9990000  0  6G18G11G19G 2G16G 6
  22395173.675     8778503.873 6   6840382.79921
  22818723.1054   -8495554.09546
  20826177.644     -278662.164 6   -217139.37622
  21259877.519   -15769537.844 7 -12247021.64823
  23133001.3784   -6575906.43145
  22727407.214    -9325512.591 5  -7169437.44121
 91  5 13 19 45 59.9990000  0  6G18G11G19G 2G16G 6
  22402598.3944    8817516.14346   6870781.89361
  22817922.511    -8499757.359 6
  20827302.448     -272750.000 6   -212532.50722
  21252808.800   -15806679.461 7 -12275963.15023
  23132217.4724   -6580033.27145
  22719878.081    -9365089.723 5  -7200276.74021
 91  5 13 19 46 14.9990000  0  6G18G11G19G 2G16G 6
  22410031.987     8856594.578 6   6901232.54021
  22817153.136    -8503806.162 6
  20828438.659     -266782.586 6   -207882.59322
  21245757.019   -15843737.534 7 -12304839.55523
  23131455.3394   -6584027.09945
  22712351.1054   -9404648.41045  -7231101.66261
 91  5 13 19 46 29.9990000  0  6G18G11G19G 2G16G 6
  22417479.784     8895734.169 6   6931730.83721
  22816408.573    -8507705.246 6
  20829583.308     -260764.600 6   -203193.27022
  21238721.862   -15880716.773 7 -12333654.52923
  23130718.7304   -6587892.82945
  22704824.8154   -9444193.43945  -7261915.93061
 91  5 13 19 46 44.9990000  0  6G18G11G19G 2G16G 6
  22424940.597     8934934.977 6   6962276.84121
  22815698.5194   -8511454.57246
  20830738.706     -254695.922 6   -198464.44223
  21231697.425   -15917617.071 7 -12362407.99523
  23130006.2144   -6591630.13545
  22697303.011    -9483724.675 6  -7292719.47421
 91  5 13 19 46 59.9990000  0  6G18G11G19G 2G16G 6
  22432411.159     8974196.942 6   6992870.50521
  22815013.730    -8515053.846 6
  20831901.995     -248576.298 6   -193695.91923
  21224690.940   -15954437.948 7 -12391099.56922
  23129319.7764   -6595239.30745
  22689782.9094   -9523241.94246  -7323512.11861
 91  5 13 19 47 14.9990000  0  6G18G11G19G 2G16G 6
  22439895.8084    9013524.34746   7023515.14661
  22814356.792    -8518498.515 6
  20833078.019     -242401.025 6   -188884.03323
  21217699.558   -15991174.864 7 -12419725.71923
  23128656.6444   -6598715.88445
  22682265.175    -9562740.535 5  -7354290.23321
 91  5 13 19 47 29.9990000  0  6G18G11G19G 2G16G 6
  22447389.433     9052909.482 6   7054204.78621
  22813731.3394   -8521795.74346
  20834262.519     -236177.292 6   -184034.38622
  21210724.2924  -16027834.86447 -12448291.94463
  23128021.2844   -6602066.63145
  22674750.2144   -9602227.69546  -7385059.40361
 91  5 13 19 47 44.9990000  0  6G18G11G19G 2G16G 6
  22454894.5734    9092351.79346   7084938.95861
  22813131.2374   -8524946.23146
  20835456.542     -229905.585 6   -179147.36122
  21203761.800   -16064418.677 7 -12476798.79823
  23127407.5114   -6605292.68445
  22667238.886    -9641704.035 5  -7415820.16721
 91  5 13 19 47 59.9990000  0  6G18G11G19G 2G16G 6
  22462413.222     9131850.660 6   7115717.22021
  22812559.1204   -8527950.25546  -6645149.49961
  20836659.605     -223586.322 6   -174223.27122
  21196815.120   -16100926.482 7 -12505246.41923
  23126819.6124   -6608394.48645  -5001568.87761
  22659727.339    -9681169.755 5  -7446572.64321
 91  5 13 19 48 14.9990000  0  6G18G11G19G 2G16G 6
  22469939.8474    9171408.86046   7146541.70261
  22812016.112    -8530805.058 6  -6647374.02921
  20837870.284     -217216.654 6   -169259.91223
  21189882.472   -16137355.423 7 -12533632.59823
  23126252.659    -6611369.560 5  -5003887.16121
  22652220.3704   -9720622.23245  -7477314.80261
 91  5 13 19 48 29.9990000  0  6G18G11G19G 2G16G 6
  22477477.5194    9211028.49446   7177414.05161
  22811501.5114   -8533508.09246  -6649480.28661
  20839091.8554    -210794.02646   -164255.27662
  21182964.651   -16173702.920 7 -12561955.30223
  23125707.550    -6614215.371 5  -5006104.70621
  22644718.417    -9760058.844 5  -7508044.61121
 91  5 13 19 48 44.9990000  0  6G18G11G19G 2G16G 6
  22485031.190     9250706.132 6   7208331.60821
  22811012.597    -8536062.476 6  -6651470.73621
  20840322.808     -204321.611 6   -159211.85323
  21176064.776   -16209972.179 7 -12590217.05323
  23125192.5034   -6616935.08845  -5008224.01261
  22637214.292    -9799482.706 5  -7538764.48421
 91  5 13 19 48 59.9990000  0  6G18G11G19G 2G16G 6
  22492590.159     9290438.774 6   7239292.02821
  22810555.7614   -8538470.93546  -6653347.46161
  20841565.198     -197801.865 6   -154131.55423
  21169176.6364  -16246165.69947 -12618419.78163
  23124697.722    -6619531.510 5  -5010247.22321
  22629713.1984   -9838896.49945  -7569476.50661
 91  5 13 19 49 14.9990000  0  6G18G11G19G 2G16G 6
  22500163.378     9330231.711 6   7270299.40821
  22810128.120    -8540728.198 6  -6655106.38221
  20842814.214     -191229.376 6   -149010.14522
  21162305.6594  -16282278.18147 -12646559.36863
  23124228.784    -6621999.713 6  -5012170.54021
  22622216.917    -9878294.931 5  -7600176.56121
 91  5 13 19 49 29.9990000  0  6G18G11G19G 2G16G 6
  22507747.8624    9370086.54146   7301355.02361
  22809727.8554   -8542832.45946  -6656746.09961
  20844074.698     -184602.465 6   -143846.33622
  21155449.855   -16318307.810 7 -12674634.39323
  23123781.886    -6624338.055 5  -5013992.66721
  22614722.7064   -9917676.22945  -7630863.25961
 91  5 13 19 49 44.9990000  0  6G18G11G19G 2G16G 6
  22515342.659     9409998.674 6   7332455.30321
  22809354.620    -8544788.094 6  -6658269.99821
  20845347.011     -177925.384 6   -138643.43122
  21148609.503   -16354258.866 7 -12702648.18523
  23123365.987    -6626550.552 5  -5015716.73221
  22607234.417    -9957044.671 5  -7661539.95321
 91  5 13 19 49 59.9990000  0  6G18G11G19G 2G16G 6
  22522948.7614    9449970.91146   7363602.41761
  22809010.495    -8546591.879 6  -6659675.55621
  20846627.019     -171194.813 6   -133398.85122
  21141783.1834  -16390128.09447 -12730598.21863
  23122968.901    -6628634.671 5  -5017340.77321
  22599744.706    -9996397.082 5  -7692204.13921
 91  5 13 19 50 14.9990000  0  6G18G11G19G 2G16G 6
  22530566.995     9490007.721 6   7394799.82921
  22808698.401    -8548239.196 6  -6660959.20121
  20847919.331     -164405.988 6   -128108.87322
  21134971.605   -16425910.797 7 -12758480.83423
  23122599.9334   -6630585.70745  -5018861.10061
  22592258.909   -10035728.658 5  -7722852.10521
 91  5 13 19 50 29.9990000  0  6G18G11G19G 2G16G 6
  22538200.4174    9530108.88046   7426047.39661
  22808414.925    -8549730.179 6  -6662121.01621
  20849224.339     -157558.937 6   -122773.52822
  21128181.503   -16461607.076 7 -12786296.10323
  23122252.4254   -6632403.79446  -5020277.82261
  22584777.472   -10075039.602 5  -7753483.97921
 91  5 13 19 50 44.9990000  0  6G18G11G19G 2G16G 6
  22545838.8554    9570264.12846   7457337.10661
  22808160.198    -8551074.715 6  -6663168.72021
  20850533.456     -150663.494 6   -117400.47522
  21121402.167   -16497226.821 7 -12814051.73523
  23121923.737    -6634098.889 5  -5021598.72021
  22577300.831   -10114339.728 6  -7784107.43421
 91  5 13 19 50 59.9990000  0  6G18G11G19G 2G16G 6
  22553493.6674    9610476.65046   7488671.44961
  22807930.823    -8552269.411 6  -6664099.66521
  20851857.362     -143716.115 6   -111986.94822
  21114637.5654  -16532766.50747 -12841744.98463
  23121627.7374   -6635667.81145  -5022821.29261
  22569824.651   -10153625.655 6  -7814719.82421
 91  5 13 19 51 14.9990000  0  6G18G11G19G 2G16G 6
  22561155.5034    9650745.14046   7520049.40361
  22807732.2694   -8553315.54446  -6664914.85061
  20853188.800     -136718.203 6   -106534.05322
  21107890.1514  -16568227.18047 -12869376.67063
  23121355.526    -6637111.723 5  -5023946.46421
  22562352.198   -10192898.577 5  -7845322.08321
 91  5 13 19 51 29.9990000  0  6G18G11G19G 2G16G 6
  22568828.7924    9691069.56546   7551470.93261
  22807561.8394   -8554212.85146  -6665614.06561
  20854530.073     -129669.327 6   -101041.44222
  21101160.730   -16603608.572 7 -12896946.57423
  23121101.636    -6638430.798 5  -5024974.37021
  22554879.308   -10232158.210 6  -7875913.98921
 91  5 13 19 51 44.9990000  0  6G18G11G19G 2G16G 6
  22576513.8624    9731446.15846   7582933.11761
  22807416.409    -8554964.768 6  -6666199.98721
  20855879.206     -122572.905 6    -95511.78122
  21094438.292   -16638913.968 7 -12924457.25523
  23120873.4954   -6639628.64945  -5025907.82461
  22547411.370   -10271407.791 6  -7906498.05621
 91  5 13 19 51 59.9990000  0  6G18G11G19G 2G16G 6
  22584208.7064    9771879.51846   7614439.53861
  22807302.105    -8555566.725 6  -6666669.07321
  20857242.612     -115424.302 6    -89941.46522
  21087737.4174  -16674138.81747 -12951905.18363
  23120673.800    -6640700.283 5  -5026742.89221
  22539944.5264  -10310642.76745  -7937070.74461
 91  5 13 19 52 14.9990000  0  6G18G11G19G 2G16G 6
  22591911.4564    9812367.91546   7645988.83661
  22807219.440    -8556020.283 6  -6667022.50921
  20858610.206     -108224.807 6    -84331.48522
  21081048.940   -16709284.652 7 -12979291.53523
  23120490.0424   -6641647.83945  -5027481.28761
  22532479.7454  -10349864.66746  -7967633.23561
 91  5 13 19 52 29.9990000  0  6G18G11G19G 2G16G 6
  22599626.2694    9852911.05646   7677580.81261
  22807158.784    -8556325.276 6  -6667260.18721
  20859989.097     -100974.205 6    -78681.68622
  21074374.3004  -16744351.30747 -13006616.18763
  23120331.144    -6642471.374 5  -5028123.05221
  22525020.175   -10389073.345 6  -7998185.43121
 91  5 13 19 52 44.9990000  0  6G18G11G19G 2G16G 6
  22607354.7844    9893509.58046   7709215.92661
  22807128.151    -8556481.095 6
  20861382.144      -93671.982 6    -72991.66522
  21067718.8704  -16779337.88447 -13033878.44863
  23120202.6284   -6643170.25045  -5028667.69061
  22517563.7924  -10428268.06246  -8028726.75961
 91  5 13 19 52 59.9990000  0  6G18G11G19G 2G16G 6
  22615089.9404    9934164.87646   7740895.28161
  22807130.440    -8556485.862 6
  20862783.628      -86316.174 6    -67259.89222
  21061076.4484  -16814242.62247 -13061076.93263
  23120090.3864   -6643742.78745  -5029113.86061
  22510106.6124  -10467447.03046  -8059255.79761
 91  5 13 19 53 14.9990000  0  6G18G11G19G 2G16G 6
  22622835.5894    9974871.51046   7772614.63561
  22807158.667    -8556345.034 6
  20864190.394      -78911.955 6    -61490.39422
  21054447.261   -16849070.805 7 -13088215.76423
  23120004.6284   -6644194.51245  -5029465.90761
  22502649.011   -10506615.439 6  -8089776.60921
 91  5 13 19 53 29.9990000  0  6G18G11G19G 2G16G 6
  22630593.073    10015630.787 6   7804375.00821
  22807212.3784   -8556057.07446
  20865608.456      -71457.461 6    -55681.71922
  21047835.9014  -16883820.55047 -13115293.47663
  23119942.5344   -6644523.46945  -5029722.27561
  22495197.987   -10545771.588 6  -8120287.86621
 91  5 13 19 53 44.9990000  0  6G18G11G19G 2G16G 6
  22638361.5194   10056448.39046   7836180.84161
  22807294.901    -8555616.167 6  -6666707.70921
  20867037.7534     -63947.05046    -49829.47962
  21041238.339   -16918486.267 7 -13142305.71123
  23119904.5894   -6644724.33545
  22487750.925   -10584909.684 6  -8150785.06221
 91  5 13 19 53 59.9990000  0  6G18G11G19G 2G16G 6
  22646134.112    10097318.697 6   7868027.72621
  22807405.651    -8555027.654 6  -6666249.14021
  20868479.128      -56386.039 6    -43937.80822
  21034656.995   -16953073.286 7 -13169256.62423
  23119888.3624   -6644802.75045
  22480308.2534  -10624035.16046  -8181272.42261
 91  5 13 19 54 14.9990000  0  6G18G11G19G 2G16G 6
  22653924.0974   10138243.44446   7899917.03361
  22807547.1204   -8554289.71046  -6665674.13061
  20869925.7694     -48772.47846    -38005.18862
  21028091.1054  -16987579.49647 -13196144.57063
  23119896.5194   -6644756.97145
  22472866.167   -10663146.025 6  -8211748.40421
 91  5 13 19 54 29.9990000  0  6G18G11G19G 2G16G 6
  22661726.8554   10179224.09046   7931849.91061
  22807716.370    -8553400.507 6  -6664981.26421
  20871387.5194     -41104.30046    -32030.00962
  21021538.9564  -17022002.98847 -13222968.06263
  23119933.503    -6644585.243 5
  22465426.9804  -10702240.46846  -8242211.57461
 91  5 13 19 54 44.9990000  0  6G18G11G19G 2G16G 6
  22669532.050    10220262.224 6   7963827.57221
  22807914.7924   -8552358.46046  -6664169.28361
  20872853.5584     -33379.86346    -26010.99362
  21015005.190   -17056341.997 7 -13249725.71823
  23119987.2224   -6644286.07645
  22457990.9254  -10741316.60646  -8272660.47861
 91  5 13 19 54 59.9990000  0  6G18G11G19G 2G16G 6
  22677352.7454   10261351.67646   7995845.21261
  22808141.339    -8551169.662 6  -6663242.95421
  20874334.440      -25605.182 6    -19952.81822
  21008485.8234  -17090602.66647 -13276422.33063
  23120072.9404   -6643865.75445  -5029210.10561
  22450553.6834  -10780380.59046  -8303099.93961
 91  5 13 19 55 14.9990000  0  6G18G11G19G 2G16G 6
  22685184.464    10302494.633 6   8027904.56721
  22808395.542    -8549831.551 6  -6662200.29121
  20875822.2224     -17777.61246    -13853.45062
  21001982.800   -17124782.429 7 -13303055.90223
  23120168.3394   -6643321.54545  -5028786.10861
  22443125.3004  -10819429.94846  -8333527.97961
 91  5 13 19 55 29.9990000  0  6G18G11G19G 2G16G 6
  22693019.628    10343691.658 6   8060006.04321
  22808679.456    -8548343.081 6  -6661040.46321
  20877323.4174      -9896.10446     -7712.03662
  20995492.276   -17158880.175 7 -13329625.56523
  23120300.073    -6642652.644 5  -5028264.92921
  22435697.5114  -10858463.46046  -8363943.67261
 91  5 13 19 55 44.9990000  0  6G18G11G19G 2G16G 6
  22700869.519    10384945.772 6   8092151.99621
  22808993.245    -8546701.324 6  -6659761.19621
  20878833.214       -1957.392 6     -1526.05422
  20989020.581   -17192892.661 7 -13356128.78823
  23120454.9254   -6641856.27945  -5027644.45361
  22428272.511   -10897478.009 6  -8394344.59521
 91  5 13 19 55 59.9990000  0  6G18G11G19G 2G16G 6
  22708732.0734   10426251.38146   8124338.09661
  22809333.175    -8544911.780 6  -6658366.76621
  20880352.776        6033.081 6      4700.26522
  20982563.2844  -17226825.38847 -13382569.86563
  23120625.745    -6640938.123 5  -5026929.07621
  22420851.1514  -10936479.09646  -8424735.03361
 91  5 13 19 56 14.9990000  0  6G18G11G19G 2G16G 6
  22716605.7224   10467606.87946   8156563.05461
  22809700.3314   -8542975.69046  -6656858.13861
  20881882.4254      14074.10946     10965.97462
  20976120.2374  -17260679.59947 -13408949.75963
  23120823.003    -6639899.620 5  -5026119.90221
  22413429.9484  -10975467.86246  -8455115.86461
 91  5 13 19 56 29.9980000  0  6G18G11G19G 2G16G 6
  22724477.561    10509014.940 6   8188828.97321
  22810096.732    -8540887.575 6  -6655231.05021
  20883425.3504      22170.78746     17275.04462
  20969695.7564  -17294447.21647 -13435262.17763
  23121044.8574   -6638735.16645  -5025212.58561
  22406020.420   -11014435.910 6  -8485480.55621
 91  5 13 19 56 44.9980000  0  6G18G11G19G 2G16G 6
  22732371.9754   10550483.16846   8221141.77061
  22810524.412    -8538645.140 6  -6653483.71721
  20884976.201       30326.523 6     23630.14122
  20963285.5534  -17328130.66047 -13461509.00863
  23121290.9044   -6637442.81345  -5024205.60561
  22398603.365   -11053386.410 6  -8515831.57721
 91  5 13 19 56 59.9980000  0  6G18G11G19G 2G16G 6
  22740271.123    10592005.889 6   8253497.03221
  22810980.1934   -8536251.08746  -6651618.22261
  20886541.1474      38538.23446     30028.84762
  20956891.6474  -17361730.22447 -13487690.48563
  23121561.162    -6636025.201 5  -5023101.02021
  22391197.537   -11092319.278 6  -8546168.85421
 91  5 13 19 57 14.9980000  0  6G18G11G19G 2G16G 6
  22748183.3344   10633578.85746   8285891.45261
  22811464.389    -8533709.356 6  -6649637.66921
  20888110.709       46802.288 6     36468.34722
  20950514.3344  -17395249.79247 -13513809.61663
  23121853.850    -6634486.421 5  -5021902.03421
  22383786.873   -11131238.311 6  -8576495.34921
 91  5 13 19 57 29.9980000  0  6G18G11G19G 2G16G 6
  22756106.6474   10675200.60446   8318323.88161
  22811974.647    -8531021.532 6  -6647543.27021
  20889695.615       55117.163 6     42947.44922
  20944148.8034  -17428690.72047 -13539867.47563
  23122163.6074   -6632828.16345  -5020609.95261
  22376386.068   -11170145.099 6  -8606812.31121
 91  5 13 19 57 44.9980000  0  6G18G11G19G 2G16G 6
  22764035.8974   10716873.38546   8350796.06361
  22812515.357    -8528185.350 6  -6645333.27421
  20891285.4824      63485.27646     49468.03062
  20937801.4594  -17462050.79247 -13565862.33063
  23122507.514    -6631048.120 5  -5019222.98121
  22368984.139   -11209037.051 6  -8637117.69921
 91  5 13 19 57 59.9980000  0  6G18G11G19G 2G16G 6
  22771978.975    10758596.722 6   8383307.64921
  22813079.4284   -8525200.89346  -6643007.75061
  20892890.029       71906.589 6     56030.06722
  20931468.3344  -17495329.82047 -13591794.03263
  23122870.7724   -6629146.54245  -5017741.29361
  22361588.1074  -11247914.25446  -8667411.60361
 91  5 13 19 58 14.9980000  0  6G18G11G19G 2G16G 6
  22779926.873    10800372.841 6   8415860.35321
  22813678.318    -8522065.606 6  -6640564.69321
  20894500.740       80383.697 6     62635.58322
  20925151.0064  -17528525.07447 -13617660.45663
  23123257.615    -6627120.981 5  -5016162.98821
  22354195.873   -11286774.062 6  -8697691.95221
 91  5 13 19 58 29.9980000  0  6G18G11G19G 2G16G 6
  22787887.482    10842199.545 6   8448452.48821
  22814304.6314   -8518781.65146  -6638005.77861
  20896127.1004      88914.62946     69283.03362
  20918849.7014  -17561638.68147 -13643463.26163
  23123663.779    -6624973.735 5  -5014489.86121
  22346800.904   -11325618.445 6  -8727960.27521
 91  5 13 19 58 44.9980000  0  6G18G11G19G 2G16G 6
  22795854.4514   10884076.72846   8481083.94161
  22814957.451    -8515348.865 6  -6635330.89221
  20897757.350       97499.629 6     75972.61922
  20912564.1234  -17594670.27847 -13669202.16463
  23124095.1314   -6622704.82145  -5012721.91261
  22339409.740   -11364447.248 6  -8758216.47021
 91  5 13 19 58 59.9980000  0  6G18G11G19G 2G16G 6
  22803832.436    10926007.691 6   8513757.32421
  22815638.5684   -8511764.08346  -6632537.56061
  20899402.615      106142.084 6     82706.98022
  20906294.7724  -17627616.74447 -13694874.72363
  23124550.2644   -6620310.77845  -5010856.49861
  22332027.529   -11403257.171 6  -8788457.94121
 91  5 13 19 59 14.9980000  0  6G18G11G19G 2G16G 6
  22811822.334    10967984.822 6   8546466.66721
  22816347.482    -8508034.542 6  -6629631.44221
  20901057.990      114834.894 6     89480.56622
  20900040.2874  -17660485.14247 -13720486.46063
  23125029.2564   -6617799.57345  -5008899.78361
  22324646.053   -11442055.364 6  -8818690.28521
 91  5 13 19 59 29.9980000  0  6G18G11G19G 2G16G 6
  22819819.7564   11010015.25646   8579217.52861
  22817088.522    -8504152.828 6  -6626606.73921
  20902723.7174     123585.49246     96299.18662
  20893802.5844  -17693268.06247 -13746031.58663
  23125531.5144   -6615163.84245  -5006846.02661
  22317266.115   -11480834.302 6  -8848907.61621
 91  5 13 19 59 44.9980000  0  6G18G11G19G 2G16G 6
  22827824.459    11052092.527 6   8612004.89521
  22817855.5764   -8500125.43746  -6623468.53861
  20904398.568      132387.678 6    103158.00722
  20887578.3184  -17725971.84247 -13771515.04263
  23126055.482    -6612409.935 5  -5004700.17321
  22309890.0614  -11519600.29446  -8879114.84861
 91  5 13 19 59 59.9980000  0  6G18G11G19G 2G16G 6
  22835841.772    11094215.449 6   8644827.84621
  22818647.459    -8495953.360 6  -6620217.58821
  20906082.6704     141240.57246    110056.33562
  20881370.2254  -17758597.23047 -13796937.41963
  23126596.6864   -6609539.09045  -5002463.21761
  22302514.279   -11558354.213 6  -8909312.69621
 91  5 13 20  0 14.9980000  0  6G18G11G19G 2G16G 6
  22843868.3264   11136388.03846   8677689.47961
  22819470.5924   -8491632.08246  -6616850.36661
  20907777.264      150148.897 6    116997.86322
  20875179.8184  -17791139.72747 -13822295.20263
  23127169.2094   -6606546.69445  -5000131.52861
  22295140.3504  -11597091.54846  -8939497.59761
 91  5 13 20  0 29.9980000  0  6G18G11G19G 2G16G 6
  22851901.8654   11178606.69646   8710587.01261
  22820320.0924   -8487165.41846  -6613369.84261
  20909485.7014     159108.89246    123979.64662
  20869000.5844  -17823603.03047 -13847591.26963
  23127761.9904   -6603436.93945  -4997708.41161
  22287774.818   -11635815.942 6  -8969672.43221
 91  5 13 20  0 44.9980000  0  6G18G11G19G 2G16G 6
  22859946.287    11220877.172 6   8743524.93321
  22821197.1864   -8482547.44346  -6609771.41961
  20911200.498      168126.684 6    131006.47222
  20862839.1934  -17855980.99547 -13872820.84963
  23128376.2954   -6600203.79145  -4995189.13761
  22280408.5924  -11674521.29046  -8999832.40861
 91  5 13 20  0 59.9980000  0  6G18G11G19G 2G16G 6
  22867996.912    11263196.548 6   8776500.95721
  22822104.2644   -8477780.92346  -6606057.25961
  20912926.5534     177199.58046    138076.23162
  20856692.9674  -17888276.34747 -13897986.05463
  23129020.631    -6596850.337 5  -4992576.11921
  22273044.350   -11713210.249 6  -9029979.63221
 91  5 13 20  1 14.9980000  0  6G18G11G19G 2G16G 6
  22876062.1394   11305565.37046   8809515.51261
  22823042.8114   -8472865.08346  -6602226.73661
  20914662.0294     186328.46246    145189.61862
  20850564.6864  -17920488.03347 -13923086.06163
  23129683.4364   -6593375.72245  -4989868.69161
  22265683.7874  -11751881.92746  -9060113.37661
 91  5 13 20  1 29.9980000  0  6G18G11G19G 2G16G 6
  22884135.5454   11347983.87246   8842568.75161
  22824006.248    -8467799.553 6  -6598279.57721
  20916411.404      195513.912 6    152347.08622
  20844448.6154  -17952615.80947 -13948120.68863
  23130364.4754   -6589779.82045  -4987066.73761
  22258329.240   -11790535.771 6  -9090233.23221
 91  5 13 20  1 44.9980000  0  6G18G11G19G 2G16G 6
  22892213.342    11390447.722 6   8875657.33121
  22824996.061    -8462588.491 6  -6594219.03321
  20918167.4044     204751.89946    159545.48862
  20838350.6074  -17984663.76247 -13973093.11363
  23131073.6394   -6586066.59645  -4984173.38961
  22250979.451   -11829175.899 6  -9120342.39221
 91  5 13 20  1 59.9980000  0  6G18G11G19G 2G16G 6
  22900304.4984   11432962.66346   8908785.74861
  22826019.1394   -8457226.19346  -6590040.63061
  20919938.068      214048.383 6    166789.47422
  20832268.7874  -18016625.76147 -13997998.55663
  23131795.2174   -6582230.37445  -4981184.20161
  22243626.4124  -11867796.34946  -9150436.22461
 91  5 13 20  2 14.9980000  0  6G18G11G19G 2G16G 6
  22908404.7404   11475523.59446   8941949.99261
  22827065.6394   -8451717.46746  -6585748.12361
  20921715.475      223398.763 6    174075.45922
  20826201.9824  -18048506.63347 -14022840.79163
  23132547.8424   -6578276.20245  -4978103.09361
  22236281.295   -11906401.798 6  -9180518.36421
 91  5 13 20  2 29.9980000  0  6G18G11G19G 2G16G 6
  22916512.186    11518134.771 6   8975153.38721
  22828143.4124   -8446057.89746  -6581338.07861
  20923508.1154     232807.62146    181407.00462
  20820151.4044  -18080301.86047 -14047616.28763
  23133331.5764   -6574199.81945  -4974926.76061
  22228939.357   -11944987.761 6  -9210585.31821
 91  5 13 20  2 44.9980000  0  6G18G11G19G 2G16G 6
  22924630.982    11560793.518 5   9008393.83121
  22829249.3424   -8440250.19246  -6576812.59861
  20925307.975      242272.226 6    188781.99822
  20814117.4364  -18112013.93547 -14072326.99063
  23134123.8184   -6570003.97545  -4971657.32561
  22221595.865   -11983556.687 6  -9240639.00221
 91  5 13 20  2 59.9980000  0  6G18G11G19G 2G16G 6
  22932758.506    11603503.818 6   9041674.45821
  22830381.4594   -8434290.19446  -6572168.45661
  20927123.8504     251797.08746    196203.94262
  20808098.0534  -18143638.57047 -14096969.55563
  23134943.865    -6565684.808 5  -4968291.78821
  22214263.8974  -12022104.30346  -9270676.07961
 91  5 13 20  3 14.9980000  0  6G18G11G19G 2G16G 6
  22940892.428    11646260.483 5   9074991.20121
  22831546.2564   -8428182.77446  -6567409.43561
  20928944.6474     261377.36747    203669.06262
  20802098.139   -18175180.754 7 -14121547.87023
  23135790.5454   -6561247.27645  -4964834.03261
  22206930.5294  -12060635.48846  -9300700.35961
 91  5 13 20  3 29.9980000  0  6G18G11G19G 2G16G 6
  22949039.7794   11689066.49646   9108346.40761
  22832735.9674   -8421924.69646  -6562533.00661
  20930777.670      271016.416 6    211179.99122
  20796112.1704  -18206637.05847 -14146059.27763
  23136661.654    -6556688.145 5  -4961281.54921
  22199602.373   -12099146.901 6  -9330709.22721
 91  5 13 20  3 44.9980000  0  6G18G11G19G 2G16G 6
  22957194.568    11731915.399 6   9141735.05221
  22833952.811    -8415522.494 6  -6557544.29421
  20932621.3974     280707.84346    218731.72362
  20790141.5294  -18238013.80547 -14170508.68363
  23137548.350    -6552014.105 5  -4957639.51321
  22192279.264   -12137644.795 6  -9360707.56121
 91  5 13 20  3 59.9980000  0  6G18G11G19G 2G16G 6
  22965358.4124   11774813.11646   9175161.71961
  22835202.7254   -8408969.99146  -6552438.44761
  20934478.131      290458.126 6    226329.31822
  20784184.7874  -18269304.59047 -14194891.10563
  23138458.834    -6547219.089 5  -4953903.20621
  22184953.8184  -12176122.80846  -9390690.40261
 91  5 13 20  4 14.9980000  0  6G18G11G19G 2G16G 6
  22973531.4594   11817756.58146   9208624.03161
  22836475.3424   -8402270.23346  -6547217.86961
  20936345.943      300264.493 6    233970.62122
  20778245.9124  -18300512.42047 -14219208.89363
  23139393.1544   -6542306.08445  -4950074.96061
  22177637.061   -12214583.924 6  -9420660.07921
 91  5 13 20  4 29.9980000  0  6G18G11G19G 2G16G 6
  22981710.139    11860748.039 6   9242123.74721
  22837777.4674   -8395420.91846  -6541880.74661
  20938224.404      310129.108 6    241657.30922
  20772325.2644  -18331635.06747 -14243460.30263
  23140353.631    -6537273.147 5  -4946153.25921
  22170321.6154  -12253025.62446  -9450614.62261
 91  5 13 20  4 44.9980000  0  6G18G11G19G 2G16G 6
  22989900.615    11903785.895 6   9275659.60021
  22839110.897    -8388423.530 6  -6536428.24321
  20940108.857      320050.859 6    249388.52022
  20766418.9284  -18362673.62447 -14267646.18363
  23141336.4514   -6532121.84545  -4942139.31261
  22163006.670   -12291449.229 6  -9480555.06521
 91  5 13 20  4 59.9980000  0  6G18G11G19G 2G16G 6
  22998099.2644   11946874.11546   9309234.71561
  22840471.7484   -8381273.55646  -6530856.85561
  20942009.2094     330034.40446    257167.87762
  20760530.3734  -18393623.59947 -14291763.03963
  23142336.1864   -6526847.60645  -4938029.58761
  22155700.756   -12329850.095 6  -9510477.80121
 91  5 13 20  5 14.9980000  0  6G18G11G19G 2G16G 6
  23006309.553    11990010.554 6   9342847.39121
  22841860.014    -8373973.481 6  -6525168.49721
  20943920.576      340077.400 6    264993.56522
  20754655.3504  -18424487.24247 -14315812.62663
  23143363.514    -6521452.939 5  -4933826.02421
  22148397.6624  -12368230.52246  -9540384.59461
 91  5 13 20  5 29.9980000  0  6G18G11G19G 2G16G 6
  23014526.740    12033192.534 6   9376495.57021
  22843276.5614   -8366525.66946  -6519365.01261
  20945844.170      350177.561 6    272863.79522
  20748798.7724  -18455266.69747 -14339796.60663
  23144413.787    -6515940.136 5  -4929530.39921
  22141096.7324  -12406592.68446  -9570277.16361
 91  5 13 20  5 44.9980000  0  6G18G11G19G 2G16G 6
  23022754.7254   12076422.41046   9410181.05961
  22844726.1074   -8358927.43646  -6513444.30961
  20947776.045      360337.862 6    280780.88822
  20742957.9044  -18485959.25247 -14363712.87663
  23145485.2954   -6510306.73245  -4925140.81461
  22133802.092   -12444933.745 6  -9600153.29621
 91  5 13 20  5 59.9980000  0  6G18G11G19G 2G16G 6
  23030989.5144   12119700.57846   9443904.19461
  22846197.600    -8351178.506 6  -6507406.20421
  20949721.647      370558.821 6    288745.24922
  20737134.0224  -18516564.66147 -14387561.24563
  23146579.772    -6504552.881 5  -4920657.34121
  22126511.0684  -12483253.41146  -9630012.73861
 91  5 13 20  6 14.9980000  0  6G18G11G19G 2G16G 6
  23039231.2794   12163021.15246   9477660.35761
  22847700.0684   -8343284.57546  -6501255.08961
  20951676.2954     380834.72446    296752.42562
  20731324.9754  -18547088.28947 -14411345.87963
  23147701.7954   -6498684.34645  -4916084.53261
  22119220.943   -12521557.086 6  -9659859.74021
 91  5 13 20  6 29.9980000  0  6G18G11G19G 2G16G 6
  23047485.045    12206389.740 6   9511453.93421
  22849233.9364   -8335240.07746  -6494986.65361
  20953648.459      391171.473 6    304807.00822
  20725533.8894  -18577524.32547 -14435062.26663
  23148834.9514   -6492695.54845  -4911417.98561
  22111934.0614  -12559839.00446  -9689689.77661
 91  5 13 20  6 44.9980000  0  6G18G11G19G 2G16G 6
  23055742.303    12249798.061 6   9545278.46621
  22850790.389    -8327052.964 6  -6488607.09221
  20955618.8894     401561.46946    312903.08762
  20719758.1784  -18607880.61147 -14458716.50563
  23149999.2564   -6486594.42145  -4906663.93061
  22104655.2874  -12598106.93046  -9719508.91461
 91  5 13 20  6 59.9980000  0  6G18G11G19G 2G16G 6
  23064014.3424   12293251.37146   9579138.06061
  22852376.3034   -8318717.54946  -6482111.97461
  20957612.787      412010.357 6    321045.05722
  20713998.1004  -18638151.69847 -14482304.35663
  23151180.1004   -6480375.30545  -4901817.93261
  22097374.1234  -12636355.15746  -9749312.69861
 91  5 13 20  7 14.9980000  0  6G18G11G19G 2G16G 6
  23072292.576    12336748.258 6   9613031.60721
  22853989.2174   -8310235.36646  -6475502.50061
  20959607.178      422516.819 6    329231.89122
  20708250.8974  -18668338.82847 -14505826.79063
  23152382.006    -6474040.201 5  -4896881.56321
  22090099.865   -12674585.085 6  -9779102.22421
 91  5 13 20  7 29.9980000  0  6G18G11G19G 2G16G 6
  23080576.732    12380291.368 6   9646961.17921
  22855631.8034   -8301603.86246  -6468776.64961
  20961621.373      433083.534 6    337465.67722
  20702523.3114  -18698439.27547 -14529281.67563
  23153613.068    -6467586.480 5  -4891852.74421
  22082829.9984  -12712793.78746  -9808875.21361
 91  5 13 20  7 44.9980000  0  6G18G11G19G 2G16G 6
  23088871.8344   12423882.30646   9680928.01661
  22857301.4824   -8292821.19146  -6461933.01861
  20963641.115      443712.517 6    345747.98022
  20696811.9364  -18728450.82547 -14552667.29263
  23154866.3344   -6461012.00645  -4886729.86861
  22075564.506   -12750979.288 6  -9838630.12721
 91  5 13 20  7 59.9980000  0  6G18G11G19G 2G16G 6
  23097178.037    12467518.586 6   9714930.16721
  22859000.4364   -8283889.77246  -6454973.47561
  20965680.584      454401.600 6    354077.11822
  20691118.3424  -18758375.96147 -14575985.57263
  23156137.490    -6454319.818 5  -4881515.23621
  22068300.6314  -12789143.95346  -9868368.79761
 91  5 13 20  8 14.9980000  0  6G18G11G19G 2G16G 6
  23105488.545    12511198.769 5   9748966.54721
  22860729.732    -8274810.766 6  -6447898.93721
  20967722.256      465149.737 6    362452.27322
  20685440.4754  -18788215.62747 -14599237.25063
  23157437.584    -6447511.050 5  -4876209.79421
  22061041.389   -12827288.663 6  -9898091.91721
 91  5 13 20  8 29.9980000  0  6G18G11G19G 2G16G 6
  23113809.1474   12554921.43045   9783036.01861
  22862485.6234   -8265585.74846  -6440710.62361
  20969778.889      475955.772 6    370872.53722
  20679777.6314  -18817971.19847 -14622423.40263
  23158751.7094   -6440587.09445  -4870814.54461
  22053785.240   -12865414.626 6  -9927800.44121
 91  5 13 20  8 44.9980000  0  6G18G11G19G 2G16G 6
  23122138.2324   12598690.33745   9817141.52761
  22864269.2724   -8256210.66546  -6433405.36561
  20971847.279      486823.846 6    379341.15322
  20674131.2874  -18847638.57347 -14645540.82863
  23160095.1544   -6433543.89945  -4865326.42761
  22046534.9124  -12903517.78046  -9957491.17461
 91  5 13 20  8 59.9980000  0  6G18G11G19G 2G16G 6
  23130473.584    12642498.989 5   9851278.00121
  22866080.0294   -8246692.00746  -6425988.23761
  20973926.795      497747.582 6    387853.13122
  20668502.9594  -18877224.15047 -14668594.51563
  23161454.592    -6426388.401 5  -4859750.77621
  22039288.084   -12941604.286 6  -9987168.95721
 91  5 13 20  9 14.9980000  0  6G18G11G19G 2G16G 6
  23138819.6624   12686354.79445   9885451.24061
  22867920.3184   -8237022.12046  -6418453.26961
  20976013.951      508734.922 6    396414.67422
  20662888.5684  -18906719.98747 -14691578.27963
  23162837.701    -6419112.990 5  -4854081.70521
  22032046.1934  -12979666.48246 -10016827.77461
 91  5 13 20  9 29.9980000  0  6G18G11G19G 2G16G 6
  23147174.9594   12730259.28445   9919662.37361
  22869790.389    -8227199.409 6  -6410799.22421
  20978120.834      519787.767 6    405027.25922
  20657292.7794  -18936124.28547 -14714490.71063
  23164244.607    -6411716.199 5  -4848318.03521
  22024809.615   -13017702.379 6 -10046466.11421
 91  5 13 20  9 44.9980000  0  6G18G11G19G 2G16G 6
  23155535.943    12774210.454 5   9953909.90621
  22871689.522    -8217225.909 6  -6403027.67921
  20980233.2484     530904.04846    413689.28962
  20651714.8734  -18965439.11347 -14737333.42463
  23165680.350    -6404200.061 5  -4842461.36621
  22017572.982   -13055714.120 6 -10076085.62421
 91  5 13 20  9 59.9980000  0  6G18G11G19G 2G16G 6
  23163908.6234   12818204.97745   9988191.20561
  22873615.3654   -8207104.74646  -6395141.08061
  20982362.584      542080.958 6    422398.54822
  20646154.0374  -18994667.29647 -14760108.62663
  23167128.4824   -6396567.88245  -4836514.26961
  22010344.7644  -13093704.37446 -10105688.38361
 91  5 13 20 10 14.9980000  0  6G18G11G19G 2G16G 6
  23172291.350    12862239.084 5  10022503.36721
  22875568.998    -8196839.707 6  -6387142.35821
  20984499.209      553314.920 6    431152.27222
  20640608.584   -19023812.609 7 -14782819.25123
  23168606.334    -6388823.494 5  -4830479.76521
  22003119.4984  -13131676.65546 -10135277.15961
 91  5 13 20 10 29.9980000  0  6G18G11G19G 2G16G 6
  23180676.592    12906310.916 6  10056844.90921
  22877547.1704   -8186432.07746  -6379032.52161
  20986647.873      564604.708 6    439949.49122
  20635079.2094  -19052876.33947 -14805466.30363
  23170097.693    -6380968.113 5  -4824358.75521
  21995894.506   -13169632.415 6 -10164853.04321
 91  5 13 20 10 44.9980000  0  6G18G11G19G 2G16G 6
  23189070.3114   12950424.52545  10091219.01961
  22879558.248    -8175878.097 6  -6370808.65321
  20988807.865      575954.456 6    448793.43722
  20629562.6704  -19081854.29247 -14828046.52163
  23171614.037    -6372998.197 5  -4818148.50121
  21988677.217   -13207567.455 6 -10194412.79321
 91  5 13 20 10 59.9980000  0  6G18G11G19G 2G16G 6
  23197476.2484   12994586.10445  10125630.50961
  22881596.5144   -8165171.54246  -6362465.89861
  20990978.725      587370.679 6    457689.17222
  20624066.0534  -19110740.03447 -14850554.88663
  23173156.639    -6364907.421 5  -4811844.08521
  21981462.193   -13245475.177 6 -10223951.25221
 91  5 13 20 11 14.9980000  0  6G18G11G19G 2G16G 6
  23205886.451    13038789.125 5  10160074.28521
  22883658.326    -8154318.540 6  -6354009.02621
  20993162.1394     598847.25046    466631.94862
  20618585.2324  -19139539.63047 -14872996.11963
  23174717.272    -6356702.254 5  -4805450.53021
  21974254.537   -13283361.809 6 -10253473.27421
 91  5 13 20 11 29.9980000  0  6G18G11G19G 2G16G 6
  23214307.1784   13083034.53745  10194551.07261
  22885753.3034   -8143318.29146  -6345437.40561
  20995361.084      610385.168 6    475622.51722
  20613122.9824  -19168252.12047 -14895369.48463
  23176299.4824   -6348381.80445  -4798967.13661
  21967047.3974  -13321226.19546 -10282977.95661
 91  5 13 20 11 44.9980000  0  6G18G11G19G 2G16G 6
  23222731.811    13127323.864 5  10229062.09021
  22887875.014    -8132169.090 6  -6336749.72821
  20997565.8734     621986.45746    484662.46962
  20607675.6154  -19196875.69647 -14917673.55863
  23177905.623    -6339944.573 5  -4792392.72721
  21959848.162   -13359066.551 6 -10312463.92821
 91  5 13 20 11 59.9980000  0  6G18G11G19G 2G16G 6
  23231170.600    13171652.029 5  10263603.39921
  22890024.1544   -8120876.02046  -6327949.94461
  20999783.920      633646.345 6    493748.08122
  20602244.2644  -19225415.14247 -14939912.07263
  23179532.764    -6331395.560 5  -4785731.24321
  21952651.6864  -13396887.52546 -10341934.78361
 91  5 13 20 12 14.9980000  0  6G18G11G19G 2G16G 6
  23239610.0534   13216013.81745  10298170.86761
  22892199.0614   -8109444.02046  -6319041.89561
  21002014.623      645360.016 6    502875.60722
  20596828.2644  -19253875.28647 -14962088.80563
  23181179.2874   -6322739.79745  -4778986.53561
  21945456.2724  -13434693.78346 -10371394.17461
 91  5 13 20 12 29.9980000  0  6G18G11G19G 2G16G 6
  23248062.3184   13260417.03145  10332770.63261
  22894401.482    -8097865.322 6  -6310019.55421
  21004256.959      657135.405 6    512051.21422
  20591428.3184  -19282248.25147 -14984197.60363
  23182847.8894   -6313969.89845  -4772152.92861
  21938264.553   -13472477.592 6 -10400836.07721
 91  5 13 20 12 44.9980000  0  6G18G11G19G 2G16G 6
  23256518.131    13304863.243 5  10367403.90121
  22896632.9204   -8086138.39346
  21006509.350      668974.269 6
  20586047.6784  -19310532.25947 -15006237.08163
  23184541.9904   -6305084.32545  -4765229.18961
  21931080.4124  -13510237.01046 -10430258.96961
 91  5 13 20 12 59.9980000  0  6G18G11G19G 2G16G 6
  23264986.412    13349351.110 5  10402069.63321
  22898893.8734   -8074264.30346
  21008775.818      680875.713 6    530550.13422
  20580680.8034  -19338728.32147 -15028208.03363
  23186251.4984   -6296084.10645  -4758216.13461
  21923902.9904  -13547973.10046 -10459663.68561
 91  5 13 20 13 14.9980000  0  6G18G11G19G 2G16G 6
  23273459.8424   13393881.30045  10436768.34161
  22901180.8734   -8062242.24946
  21011050.029      692840.625 6    539873.41922
  20575334.3504  -19366835.47147 -15050109.70063
  23187988.2794   -6286968.48245  -4751113.11261
  21916721.9514  -13585684.76646 -10489049.36861
 91  5 13 20 13 29.9980000  0  6G18G11G19G 2G16G 6
  23281942.9124   13438454.32745  10471500.43661
  22903496.9514   -8050071.63846
  21013339.553      704869.942 6    549246.89422
  20570000.6934  -19394853.06547 -15071941.58563
  23189740.772    -6277737.019 5  -4743919.83421
  21909552.7954  -13623371.16746 -10518415.35661
 91  5 13 20 13 44.9980000  0  6G18G11G19G 2G16G 6
  23290432.7874   13483075.82145  10506270.29761
  22905842.201    -8037746.902 6        -0.13231
  21015641.217      716969.574 6    558675.16322
  20564689.2174  -19422775.20347 -15093699.08763
  23191521.053    -6268384.511 5  -4736632.20721
  21902385.045   -13661026.405 6 -10547757.07721
 91  5 13 20 13 59.9980000  0  6G18G11G19G 2G16G 6
  23298932.3344   13527738.67745  10541072.37461
  22908216.303    -8025274.925 6      9718.27921
  21017956.014      729132.730 6    568152.92722
  20559390.5294  -19450608.65647 -15115387.48563
  23193325.006    -6258917.987 5  -4729255.80321
  21895228.3424  -13698657.31046 -10577079.82361
 91  5 13 20 14 14.9980000  0  6G18G11G19G 2G16G 6
  23307441.811    13572441.606 5  10575905.66221
  22910615.779    -8012656.957 6     19550.44321
  21020282.748      741358.529 6    577679.51222
  20554112.4594  -19478354.54047 -15137007.64963
  23195144.7014   -6249338.21345  -4721791.09661
  21888068.8184  -13736264.75446 -10606384.28561
 91  5 13 20 14 29.9980000  0  6G18G11G19G 2G16G 6
  23315953.2564   13617186.87845  10610771.97261
  22913042.6314   -7999890.68246     29498.18061
  21022625.264      753649.509 6    587256.88022
  20548847.6474  -19506010.25347 -15158557.54463
  23196989.818    -6239642.980 5  -4714236.45621
  21880916.8814  -13773846.20846 -10635668.50561
 91  5 13 20 14 44.9980000  0  6G18G11G19G 2G16G 6
  23324475.8264   13661976.45845  10645672.79161
  22915507.5684   -7986974.16446     39562.99661
  21024970.693      766007.780 6    596886.68622
  20543604.6784  -19533573.77147 -15180035.59863
  23198862.9124   -6229830.68845  -4706590.59961
  21873774.1934  -13811399.45746 -10664930.74861
 91  5 13 20 14 59.9980000  0  6G18G11G19G 2G16G 6
  23333006.928    13706812.773 5  10680610.06221
  22917990.928    -7973904.461 6     49747.16321
  21027340.459      778436.624 6    606571.48022
  20538375.2254  -19561042.00047 -15201439.40963
  23200756.8574   -6219898.78245  -4698851.54161
  21866631.272   -13848921.472 6 -10694168.64421
 91  5 13 20 15 14.9980000  0  6G18G11G19G 2G16G 6
  23341550.897    13751697.813 5  10715585.25821
  22920506.436    -7960679.980 6     60051.92421
  21029718.178      790937.851 6    616312.68622
  20533169.1474  -19588412.95147 -15222767.41363
  23202663.1004   -6209845.60145  -4691017.97761
  21859499.014   -13886410.156 6 -10723380.56321
 91  5 13 20 15 29.9980000  0  6G18G11G19G 2G16G 6
  23350100.662    13796626.974 5  10750594.84021
  22923053.2094   -7947305.05646     70473.93261
  21032110.451      803507.222 6    626106.98322
  20527977.4674  -19615690.89347 -15244022.94263
  23204599.9824   -6199675.28045  -4683093.12861
  21852369.4754  -13923869.75946 -10752569.82061
 91  5 13 20 15 44.9980000  0  6G18G11G19G 2G16G 6
  23358659.5534   13841603.82745  10785641.61461
  22925628.670    -7933775.942 6     81016.07221
  21034514.201      816148.828 6    635957.56222
  20522805.592   -19642871.917 7 -15265202.95223
  23206555.6234   -6189384.22245  -4675074.20961
  21845246.006   -13961296.341 6 -10781733.35821
 91  5 13 20 15 59.9980000  0  6G18G11G19G 2G16G 6
  23367223.779    13886618.889 5  10820718.11921
  22928227.967    -7920102.342 6     91670.81521
  21036934.1154     828853.16446    645857.03362
  20517649.4754  -19669965.55547 -15286314.86563
  23208538.2794   -6178982.45345  -4666968.99961
  21838127.9754  -13998699.31146 -10810878.48961
 91  5 13 20 16 14.9980000  0  6G18G11G19G 2G16G 6
  23375799.7174   13931670.03045  10855822.76061
  22930856.5614   -7906286.07746    102436.72761
  21039363.139      841618.676 6    655804.16622
  20512510.1934  -19696973.47947 -15307359.99463
  23210540.084    -6168471.484 5  -4658778.72521
  21831016.2874  -14036080.26946 -10840006.47361
 91  5 13 20 16 29.9980000  0  6G18G11G19G 2G16G 6
  23384377.662    13976750.403 5  10890950.18721
  22933516.029    -7892333.956 6    113308.48321
  21041800.803      854438.615 6    665793.71722
  20507384.662   -19723902.351 7 -15328343.52023
  23212561.232    -6157858.355 5  -4650508.82921
  21823904.654   -14073445.717 6 -10869122.36421
 91  5 13 20 16 44.9980000  0  6G18G11G19G 2G16G 6
  23392963.8114   14021872.04645  10926109.73661
  22936196.9824   -7878233.97146    124295.46561
  21044252.779      867325.271 6    675835.25122
  20502277.6934  -19750740.09347 -15349256.03563
  23214597.0224   -6147131.13945  -4642150.04561
  21816802.240   -14110783.326 6 -10898216.56221
 91  5 13 20 16 59.9980000  0  6G18G11G19G 2G16G 6
  23401557.5534   14067029.73745  10961297.40761
  22938907.029    -7863991.453 6    135393.51721
  21046720.865      880273.732 6    685924.94222
  20497187.4594  -19777491.67447 -15370101.41563
  23216662.600    -6136295.088 5  -4633706.44021
  21809700.428   -14148098.331 6 -10927293.15321
 91  5 13 20 17 14.9980000  0  6G18G11G19G 2G16G 6
  23410157.889    14112220.487 5  10996510.82821
  22941642.897    -7849608.982 6    146600.61821
  21049193.279      893281.621 6    696060.94222
  20492113.1624  -19804159.56747 -15390881.58063
  23218745.959    -6125353.106 5  -4625180.31021
  21802601.5534  -14185393.00546 -10956353.88861
 91  5 13 20 17 29.9980000  0  6G18G11G19G 2G16G 6
  23418766.318    14157445.876 5  11031751.22421
  22944406.5374   -7835084.96646    157918.02561
  21051682.107      906350.769 6    706244.67322
  20487054.4124  -19830741.90947 -15411595.08763
  23220844.2254   -6114303.33945  -4616570.18861
  21795509.4044  -14222665.37746 -10985397.26461
 91  5 13 20 17 44.9980000  0  6G18G11G19G 2G16G 6
  23427376.436    14202704.997 5  11067017.92721
  22947196.9754   -7820420.11046    169345.17061
  21054181.709      919480.685 6    716475.75922
  20482013.053   -19857239.321 7 -15432242.40723
  23222965.3184   -6103147.12845  -4607877.12361
  21788420.7094  -14259916.13746 -11014423.78961
 91  5 13 20 17 59.9980000  0  6G18G11G19G 2G16G 6
  23435996.037    14248004.108 5  11102315.78121
  22950018.232    -7805608.322 6    180886.80321
  21056693.428      932677.638 6    726759.08122
  20476986.8814  -19883645.30247 -15452818.48563
  23225114.147    -6091878.260 5  -4599096.27221
  21781338.2404  -14297138.52746 -11043428.20261
 91  5 13 20 18 14.9980000  0  6G18G11G19G 2G16G 6
  23444621.6784   14293333.24145  11137636.99661
  22952861.2254   -7790659.69146    192535.06261
  21059211.436      945931.875 6    737087.04222
  20471977.7564  -19909969.98047 -15473331.20863
  23227280.428    -6080506.752 5  -4590235.43721
  21774256.334   -14334342.830 6 -11072418.51921
 91  5 13 20 18 29.9980000  0  6G18G11G19G 2G16G 6
  23453253.7564   14338689.08745  11172979.06261
  22955731.850    -7775577.153 6    204287.66421
  21061744.850      959240.776 6    747457.59422
  20466982.068   -19936216.140 7 -15493782.75123
  23229457.6544   -6069035.48545  -4581296.84261
  21767182.889   -14371531.393 6 -11101396.58321
 91  5 13 20 18 44.9980000  0  6G18G11G19G 2G16G 6
  23461892.092    14384079.535 5  11208348.09421
  22958631.7404   -7760352.81346    216150.78361
  21064288.975      972612.331 6    757876.97222
  20462005.5064  -19962375.56047 -15514166.70663
  23231659.9204   -6057456.52845  -4572274.37561
  21760110.647   -14408696.308 6 -11130356.20921
 91  5 13 20 18 59.9980000  0  6G18G11G19G 2G16G 6
  23470531.6784   14429505.02745  11243744.38061
  22961554.1934   -7744986.16546    228124.78861
  21066847.334      986047.278 6    768345.75422
  20457045.006   -19988447.766 7 -15534482.69623
  23233888.951    -6045769.806 5  -4563167.91421
  21753040.834   -14445836.609 6 -11159296.66421
 91  5 13 20 19 14.9980000  0  6G18G11G19G 2G16G 6
  23479185.7954   14474967.04045  11279169.21961
  22964504.1704   -7729475.78046    240210.78761
  21069416.045      999547.439 6    778865.33822
  20452097.8734  -20014431.00647 -15554729.36663
  23236135.5684   -6033974.01745  -4553976.48761
  21745977.506   -14482950.671 6 -11188216.67121
 91  5 13 20 19 29.9980000  0  6G18G11G19G 2G16G 6
  23487846.0534   14520466.03245  11314622.80361
  22967484.967    -7713821.184 6    252409.14621
  21072000.529     1013113.473 6    789436.25322
  20447171.3034  -20040324.59147 -15574906.17363
  23238397.1864   -6022068.49145  -4544699.56361
  21738920.8814  -14520037.72646 -11217115.64761
 91  5 13 20 19 44.9980000  0  6G18G11G19G 2G16G 6
  23496512.451    14566003.124 5  11350106.10021
  22970491.2014   -7698021.16046    264720.85361
  21074590.975     1026746.795 6    800059.60122
  20442262.670   -20066127.032 7 -15595011.96523
  23240683.7254   -6010052.53745  -4535336.55661
  21731869.7254  -14557096.25546 -11245992.37461
 91  5 13 20 19 59.9980000  0  6G18G11G19G 2G16G 6
  23505184.9044   14611574.25945  11385615.87161
  22973523.553    -7682079.568 6    277142.86021
  21077198.920     1040443.740 6    810732.52222
  20437368.014   -20091842.259 7 -15615049.78723
  23242993.7174   -5997929.67045  -4525890.24061
  21724821.420   -14594129.848 6 -11274849.67521
 91  5 13 20 20 14.9980000  0  6G18G11G19G 2G16G 6
  23513861.4904   14657177.04445  11421150.39361
  22976585.7014   -7665998.77846    289673.33961
  21079816.076     1054202.249 6    821453.42722
  20432490.982   -20117472.299 7 -15635021.23623
  23245317.7014   -5985702.43645  -4516362.62961
  21717778.740   -14631140.566 6 -11303689.14921
 91  5 13 20 20 29.9980000  0  6G18G11G19G 2G16G 6
  23522544.584    14702810.309 5  11456708.60821
  22979668.9674   -7649780.17146    302311.21461
  21082446.381     1068021.490 6    832221.64322
  20427630.404   -20143018.198 7 -15654927.11823
  23247667.295    -5973372.156 5  -4506754.68221
  21710739.881   -14668129.622 6 -11332511.75121
 91  5 13 20 20 44.9980000  0  6G18G11G19G 2G16G 6
  23531234.662    14748475.184 5  11492291.44321
  22982782.889    -7633422.278 6    315057.60221
  21085085.725     1081902.910 6    843038.31622
  20422784.428   -20168478.474 7 -15674766.28023
  23250027.8574   -5960937.49245  -4497065.42461
  21703705.662   -14705095.158 6 -11361316.03321
 91  5 13 20 20 59.9980000  0  6G18G11G19G 2G16G 6
  23539928.3894   14794168.87645  11527896.76661
  22985923.4204   -7616928.00846    327910.28261
  21087740.631     1095843.937 6    853901.42922
  20417956.1074  -20193855.78047 -15694540.79863
  23252418.6704   -5948401.49845  -4487297.18861
  21696676.186   -14742039.880 6 -11390104.08421
 91  5 13 20 21 14.9980000  0  6G18G11G19G 2G16G 6
  23548628.412    14839894.709 5  11563527.14221
  22989086.615    -7600293.875 6    340871.92021
  21090404.568     1109848.261 6    864813.86922
  20413140.889   -20219146.451 7 -15714247.79523
  23254822.9984   -5935760.72645  -4477447.32261
  21689650.2014  -14778959.92046 -11418872.91261
 91  5 13 20 21 29.9980000  0  6G18G11G19G 2G16G 6
  23557337.264    14885650.595 5  11599180.90221
  22992274.6474   -7583521.69846    353941.13061
  21093084.397     1123914.198 6    875774.31722
  20408345.7014  -20244352.19747 -15733888.62963
  23257247.225    -5923017.220 5  -4467517.42221
  21682628.803   -14815857.070 6 -11447623.88521
 91  5 13 20 21 44.9980000  0  6G18G11G19G 2G16G 6
  23566054.404    14931438.321 5  11634859.49321
  22995497.943    -7566609.936 6    367119.10521
  21095769.365     1138043.695 6    886784.29422
  20403568.014   -20269471.195 7 -15753461.85923
  23259697.8734   -5910169.38745  -4457506.19961
  21675613.4594  -14852729.29946 -11476355.45761
 91  5 13 20 21 59.9980000  0  6G18G11G19G 2G16G 6
  23574771.5534   14977257.66045  11670562.71061
  22998740.9984   -7549558.58446    380405.86761
  21098470.584     1152237.082 6    897844.05922
  20398803.381   -20294503.160 7 -15772967.26823
  23262156.592    -5897217.417 5  -4447413.84921
  21668601.053   -14889576.363 6 -11505067.41121
 91  5 13 20 22 14.9980000  0  6G18G11G19G 2G16G 6
  23583496.029    15023105.672 5  11706288.29821
  23002012.772    -7532370.704 6    393799.02021
  21101182.576     1166491.251 6    908951.18322
  20394055.053   -20319451.172 7 -15792407.26623
  23264641.225    -5884164.589 5  -4437242.89521
  21661592.225   -14926400.985 6 -11533761.88221
 91  5 13 20 22 29.9980000  0  6G18G11G19G 2G16G 6
  23592222.318    15068981.936 5  11742035.86621
  23005311.0614   -7515046.74546    407298.18861
  21103907.475     1180806.256 6    920105.71322
  20389324.811   -20344315.395 7 -15811781.97223
  23267142.9364   -5871011.02145  -4426993.44961
  21654586.889   -14963203.230 6 -11562438.90221
 91  5 13 20 22 44.9980000  0  6G18G11G19G 2G16G 6
  23600958.334    15114888.247 5  11777806.86321
  23008634.092    -7497584.660 6    420904.99521
  21106642.217     1195184.294 6    931309.35822
  20384610.092   -20369093.650 7 -15831089.68723
  23269666.5764   -5857754.77045  -4416663.99861
  21647591.131   -14999980.953 6 -11591096.83421
 91  5 13 20 22 59.9980000  0  6G18G11G19G 2G16G 6
  23609701.8574   15160826.31945  11813602.59061
  23011983.2484   -7479982.94146    434620.60561
  21109391.545     1209627.327 6    942563.65122
  20379910.834   -20393784.168 7 -15850329.04023
  23272207.459    -5844394.453 5  -4406253.44521
  21640597.381   -15036732.252 6 -11619734.16221
 91  5 13 20 23 14.9980000  0  6G18G11G19G 2G16G 6
  23618448.3504   15206792.69945  11849420.37161
  23015358.6544   -7462244.88046    448442.45461
  21112152.904     1224132.330 6    953866.23622
  20375227.318   -20418389.991 7 -15869502.39223
  23274776.3654   -5830933.45745  -4395764.43661
  21633610.5844  -15073460.08546 -11648353.21361
 91  5 13 20 23 29.9980000  0  6G18G11G19G 2G16G 6
  23627202.318    15252781.275 5  11885255.47121
  23018757.5684   -7444376.66946    462365.73161
  21114923.545     1238693.273 6    965212.40722
  20370559.631   -20442917.147 7 -15888614.44923
  23277350.6394   -5817378.18245  -4385201.96861
  21626622.662   -15110170.439 6 -11676958.64421
 91  5 13 20 23 44.9980000  0  6G18G11G19G 2G16G 6
  23635956.717    15298792.529 5  11921108.21621
  23022179.6704   -7426377.67746    476390.91661
  21117706.123     1253311.166 6    976602.95622
  20365908.772   -20467364.839 7 -15907664.58223
  23279948.701    -5803727.873 5  -4374565.44421
  21619640.389   -15146862.288 6 -11705549.64721
 91  5 13 20 23 59.9980000  0  6G18G11G19G 2G16G 6
  23644718.9364   15344834.22945  11956984.73961
  23025633.8814   -7408240.03646    490524.14861
  21120498.318     1267994.154 6    988044.23122
  20361272.350   -20491724.888 7 -15926646.42423
  23282565.5614   -5789974.69345  -4363848.78261
  21612663.6934  -15183527.44446 -11734119.85261
 91  5 13 20 24 14.9980000  0  6G18G11G19G 2G16G 6
  23653484.6544   15390905.98345  11992884.61961
  23029111.2094   -7389964.25846    504764.98961
  21123304.732     1282742.015 6    999536.05122
  20356653.9514  -20515997.75747 -15945560.33863
  23285203.9754   -5776119.34945  -4353052.50061
  21605689.1234  -15220166.20246 -11762669.50061
 91  5 13 20 24 29.9980000  0  6G18G11G19G 2G16G 6
  23662258.076    15436999.258 4  12028801.30121
  23032613.420    -7371558.666 6    519106.99021
  21126123.436     1297546.611 6   1011072.07622
  20352049.998   -20540191.496 7 -15964412.58623
  23287854.803    -5762170.312 5  -4342183.20621
  21598722.506   -15256786.549 6 -11791204.77821
 91  5 13 20 24 44.9980000  0  6G18G11G19G 2G16G 6
  23671035.4984   15483119.29244  12064738.80561
  23036143.9674   -7353018.37446    533553.96961
  21128950.412     1312413.085 6   1022656.32522
  20347461.756   -20564300.915 7 -15983199.13223
  23290529.1934   -5748122.82245  -4331237.20061
  21591758.498   -15293383.263 6 -11819721.65921
 91  5 13 20 24 59.9980000  0  6G18G11G19G 2G16G 6
  23679813.1394   15529264.57844  12100695.98461
  23039696.5294   -7334344.26946    548105.20861
  21131792.701     1327340.800 6   1034288.28622
  20342890.217   -20588326.724 7 -16001920.52523
  23293217.631    -5733977.723 5  -4320215.11621
  21584797.647   -15329956.897 6 -11848220.54421
 91  5 13 20 25 14.9980000  0  6G18G11G19G 2G16G 6
  23688599.1704   15575433.36245  12136671.49861
  23043273.162    -7315538.456 6    562759.07121
  21134642.412     1342327.883 6   1045966.52122
  20338333.506   -20612270.918 7 -16020578.32923
  23295932.5064   -5719737.09145  -4309118.58961
  21577842.9754  -15366509.30146 -11876702.89461
 91  5 13 20 25 29.9980000  0  6G18G11G19G 2G16G 6
  23697394.022    15621627.138 5  12172666.48321
  23046879.0294   -7296599.20046    577516.91061
  21137508.709     1357376.265 6   1057692.51122
  20333792.498   -20636131.602 7 -16039171.05723
  23298653.3814   -5705399.43545  -4297946.46461
  21570890.9904  -15403038.47546 -11905167.13261
 91  5 13 20 25 44.9980000  0  6G18G11G19G 2G16G 6
  23706185.1624   15667848.54945  12208682.99261
  23050508.842    -7277523.799 6    592380.85621
  21140380.928     1372488.985 6   1069468.63422
  20329269.834   -20659905.712 7 -16057696.32323
  23301409.904    -5690961.989 5  -4286696.58921
  21563944.412   -15439541.389 6 -11933610.91721
 91  5 13 20 25 59.9980000  0  6G18G11G19G 2G16G 6
  23714985.482    15714100.933 4  12244723.66821
  23054165.1234   -7258309.14846    607353.30061
  21143273.623     1387669.681 6   1081297.72322
  20324762.107   -20683589.953 7 -16076151.56523
  23304171.0064   -5676421.51445  -4275366.44361
  21557004.092   -15476014.462 6 -11962031.44721
 91  5 13 20 26 14.9980000  0  6G18G11G19G 2G16G 6
  23723793.686    15760373.463 5  12280780.01721
  23057846.8734   -7238965.78146    622426.04161
  21146171.7324    1402907.83746   1093171.58762
  20320269.9984  -20707194.86747 -16094544.98963
  23306957.014    -5661788.881 5  -4263964.47921
  21550068.670   -15512468.069 6 -11990436.81821
 91  5 13 20 26 29.9980000  0  6G18G11G19G 2G16G 6
  23732602.0064   15806662.62944  12316849.33861
  23061550.5684   -7219497.50746    637596.12861
  21149081.842     1418200.047 6   1105087.57222
  20315793.389   -20730724.005 7 -16112879.37023
  23309753.943    -5647068.114 5  -4252493.85421
  21543133.053   -15548905.677 6 -12018829.70821
 91  5 13 20 26 44.9980000  0  6G18G11G19G 2G16G 6
  23741416.4594   15852971.93245  12352934.32861
  23065276.240    -7199900.787 6    652866.28021
  21152003.201     1433550.134 6   1117048.65622
  20311330.7954  -20754173.63447 -16131151.79663
  23312577.6704   -5632255.25845  -4240951.47361
  21536204.014   -15585323.451 6 -12047207.14221
 91  5 13 20 26 59.9980000  0  6G18G11G19G 2G16G 6
  23750234.818    15899304.055 5  12389037.13821
  23069032.1004   -7180172.53546    668238.94461
  21154935.975     1448961.575 6   1129057.55322
  20306883.4594  -20777540.31547 -16149359.58763
  23315412.678    -5617347.506 5  -4229335.10521
  21529276.584   -15621717.827 6 -12075566.35221
 91  5 13 20 27 14.9980000  0  6G18G11G19G 2G16G 6
  23759053.342    15945661.881 5  12425159.93321
  23072813.623    -7160310.284 6    683716.00321
  21157881.772     1464437.028 6   1141116.32922
  20302453.514   -20800821.230 7 -16167500.54523
  23318269.748    -5602342.626 5  -4217643.07221
  21522358.295   -15658086.107 6 -12103905.22521
 91  5 13 20 27 29.9980000  0  6G18G11G19G 2G16G 6
  23767878.1544   15992039.98845  12461298.54861
  23076618.9824   -7140319.14546    699293.50261
  21160838.115     1479971.637 6   1153221.19522
  20298039.811   -20824021.370 7 -16185578.56623
  23321146.920    -5587245.242 5  -4205878.98121
  21515441.248   -15694433.004 6 -12132227.42921
 91  5 13 20 27 44.9980000  0  6G18G11G19G 2G16G 6
  23776708.4204   16038436.53245  12497451.56261
  23080446.568    -7120201.094 6    714969.92721
  21163803.147     1495563.754 6   1165370.87422
  20293639.4754  -20847142.58247 -16203595.08463
  23324036.9754   -5572057.86845  -4194044.72661
  21508527.584   -15730760.143 6 -12160534.24521
 91  5 13 20 27 59.9980000  0  5G11G19G 2G16G 6
  23084300.217    -7099953.533 6    730747.25221
  21166784.186     1511216.146 6   1177567.52322
  20289255.576   -20870182.025 7 -16221547.88323
  23326943.3504   -5556777.99345  -4182138.41561
  21501617.272   -15767064.772 6 -12188823.51921
 91  5 13 20 28 14.9980000  0  5G11G19G 2G16G 6
  23088176.412    -7079582.181 6    746621.02521
  21169770.701     1526923.613 6   1189807.09222
  20284885.647   -20893145.213 7 -16239441.25923
  23329868.4594   -5541411.29545  -4170164.46161
  21494713.467   -15803352.115 6 -12217099.32621
 91  5 13 20 28 29.9980000  0  5G11G19G 2G16G 6
  23092078.670    -7059080.444 6    762596.38721
  21172770.990     1542692.845 6   1202094.79022
  20280529.6394  -20916025.43247 -16257269.98963
  23332807.1474   -5525951.39845  -4158117.87661
  21487812.256   -15839615.322 6 -12245356.31521
 91  5 13 20 28 44.9980000  0  5G11G19G 2G16G 6
  23096004.1864   -7038450.65946    778671.54661
  21175785.2324    1558521.80546   1214429.02262
  20276193.451   -20938824.742 7 -16275035.67023
  23335768.3034   -5510400.57545  -4146000.45061
  21480915.084   -15875856.320 6 -12273596.00621
 91  5 13 20 28 59.9980000  0  5G11G19G 2G16G 6
  23099951.7874   -7017694.12746    794845.46461
  21178808.811     1574409.545 6   1226809.05522
  20271869.522   -20961544.258 7 -16292739.17823
  23338745.178    -5494760.010 5  -4133813.06021
  21474023.686   -15912076.164 6 -12301819.21921
 91  5 13 20 29 14.9980000  0  5G11G19G 2G16G 6
  23103925.897    -6996812.544 6    811116.84221
  21181842.272     1590354.754 6   1239233.87022
  20267560.857   -20984185.190 7 -16310381.44823
  23341738.8114   -5479031.64545  -4121557.30261
  21467135.0294  -15948276.00846 -12330026.84861
 91  5 13 20 29 29.9980000  0  5G11G19G 2G16G 6
  23107925.8504   -6975798.76946    827491.19461
  21184891.576     1606364.588 6   1251709.04822
  20263268.420   -21006740.313 7 -16327956.85723
  23344752.9824   -5463208.29945  -4109227.49061
  21460251.318   -15984448.557 6 -12358213.20321
 91  5 13 20 29 44.9980000  0  5G11G19G 2G16G 6
  23111948.498    -6954657.893 6    843964.59621
  21187946.584     1622434.209 6   1264230.80822
  20258992.1004  -21029214.54047 -16345469.23063
  23347776.0844   -5447295.08645  -4096827.69761
  21453372.248   -16020598.570 6 -12386382.00021
 91  5 13 20 29 59.9980000  0  5G11G19G 2G16G 6
  23115994.092    -6933394.056 6    860533.78621
  21191015.264     1638559.940 6   1276796.29022
  20254730.186   -21051611.872 7 -16362921.68323
  23350824.1154   -5431296.60645  -4084361.42761
  21446496.662   -16056729.788 6 -12414536.15021
 91  5 13 20 30 14.9980000  0  5G11G19G 2G16G 6
  23120067.225    -6912000.569 6    877204.05821
  21194095.803     1654748.925 6
  20250483.920   -21073925.540 7 -16380308.94323
  23353878.7404   -5415205.72044
  21439626.381   -16092835.336 6 -12442670.30221
 91  5 13 20 30 29.9980000  0  5G11G19G 2G16G 6
  23124159.3184   -6890485.89546    893968.72161
  21197190.193     1670992.940 6
  20246252.7324  -21096163.52447 -16397637.23263
  23356957.8264   -5399031.03845
  21432761.1624  -16128923.01846 -12470790.53861
 91  5 13 20 30 44.9980000  0  5G11G19G 2G16G 6
  23128276.1394   -6868846.69846    910830.44161
  21200290.084     1687295.419 6
  20242033.592   -21118322.343 7 -16414903.82523
  23360056.0684   -5382769.49745
  21425895.350   -16164989.386 6 -12498894.15021
 91  5 13 20 30 59.9980000  0  5G11G19G 2G16G 6
  23132417.9514   -6847083.93346    927788.42561
  21203404.5064    1703655.65546
  20237832.834   -21140402.786 7 -16432109.35023
  23363166.0844   -5366422.11845
  21419034.9754  -16201035.07646 -12526981.66261
 91  5 13 20 31 14.9980000  0  5G11G19G 2G16G 6
  23136584.0924   -6825194.17246    944845.38261
  21206527.498     1720077.470 6
  20233648.592   -21162401.063 7 -16449250.85023
  23366292.8654   -5349985.49445
  21412182.232   -16237056.085 6 -12555049.93721
 91  5 13 20 31 29.9980000  0  5G11G19G 2G16G 6
  23140773.0844   -6803180.05446    961999.22261
  21209665.436     1736558.444 6
  20229475.748   -21184319.745 7 -16466330.32823
  23369440.7324   -5333462.36845
  21405332.209   -16273054.880 6 -12583100.90321
 91  5 13 20 31 44.9980000  0  5G11G19G 2G16G 6
  23144983.8034   -6781047.18946    979245.60161
  21212809.529     1753093.419 6
  20225319.873   -21206164.156 7 -16483351.93423
  23372595.8034   -5316858.31945
  21398485.264   -16309036.689 6 -12611138.64221
 91  5 13 20 31 59.9980000  0  5G11G19G 2G16G 6
  23149219.107    -6758790.871 6    996588.16721
  21215971.6474    1769687.42146   1378973.38862
  20221177.404   -21227929.334 7 -16500311.79823
  23375773.9434   -5300168.38145
  21391639.693   -16344996.360 6 -12639159.11421
 91  5 13 20 32 14.9980000  0  5G11G19G 2G16G 6
  23153478.1394   -6736411.75946   1014026.43861
  21219138.076     1786340.021 6   1391949.41822
  20217051.920   -21249615.816 7 -16517210.33923
  23378967.6004   -5283393.46945  -4042071.07961
  21384804.756   -16380934.317 6 -12667162.68221
 91  5 13 20 32 29.9980000  0  5G11G19G 2G16G 6
  23157761.982    -6713911.509 6   1031559.07421
  21222319.0924    1803049.87946   1404970.06962
  20212938.670   -21271224.894 7 -16534048.56723
  23382182.514    -5266535.353 5  -4028934.96121
  21377968.0064  -16416851.70746 -12695150.22161
 91  5 13 20 32 44.9980000  0  5G11G19G 2G16G 6
  23162069.9984   -6691289.80646   1049186.36361
  21225506.795     1819817.686 6   1418035.87122
  20208842.889   -21292756.165 7 -16550826.16823
  23385399.811    -5249593.717 5  -4015733.79021
  21371137.0764  -16452747.94146 -12723121.28261
 91  5 13 20 32 59.9980000  0  5G11G19G 2G16G 6
  23166392.732    -6668542.958 6   1066911.19521
  21228711.756     1836647.349 6   1431149.87422
  20204759.740   -21314205.614 7 -16567540.00923
  23388641.834    -5232565.220 5  -4002464.92621
  21364309.8184  -16488618.98446 -12751072.70461
 91  5 13 20 33 14.9980000  0  5G11G19G 2G16G 6
  23170746.8264   -6645669.01646   1084735.04261
  21231926.123     1853541.340 6   1444314.00422
  20200694.670   -21335570.963 7 -16584188.31523
  23391898.350    -5215447.660 5  -3989126.66521
  21357488.7874  -16524462.38146 -12779002.57961
 91  5 13 20 33 29.9980000  0  5G11G19G 2G16G 6
  23175122.4434   -6622668.45646   1102657.55161
  21235154.678     1870499.260 6   1457527.94822
  20196644.607   -21356852.557 7 -16600771.35723
  23395170.0144   -5198241.66544  -3975719.51361
  21350674.8574  -16560278.36746 -12806911.10661
 91  5 13 20 33 44.9980000  0  5G11G19G 2G16G 6
  23179523.256    -6599548.461 6   1120673.11421
  21238390.881     1887514.201 6   1470786.32622
  20192610.053   -21378057.452 7 -16617294.64323
  23398467.975    -5180954.485 5  -3962249.08121
  21343863.6934  -16596073.74646 -12834803.57461
 91  5 13 20 33 59.9980000  0  5G11G19G 2G16G 6
  23183945.3114   -6576311.17646   1138780.09261
  21241636.607     1904584.398 6   1484087.75922
  20188589.670   -21399187.565 7 -16633759.64623
  23401765.2014   -5163588.44144  -3948717.21261
  21337051.1234  -16631850.28946 -12862681.36861
 91  5 13 20 34 14.9980000  0  5G11G19G 2G16G 6
  23188389.0924   -6552955.76946   1156979.11661
  21244896.029     1921710.901 6   1497433.06622
  20184582.693   -21420241.660 7 -16650165.42123
  23405085.139    -5146142.650 4  -3935123.18621
  21330249.9434  -16667606.67146 -12890543.44861
 91  5 13 20 34 29.9980000  0  5G11G19G 2G16G 6
  23192859.2724   -6529475.19146   1175275.65861
  21248168.147     1938901.150 6   1510828.04522
  20180590.209   -21441212.613 7 -16666506.40423
  23408424.451    -5128610.164 5  -3921461.61521
  21323451.4594  -16703335.68246 -12918384.19761
 91  5 13 20 34 44.9980000  0  5G11G19G 2G16G 6
  23197347.443    -6505871.880 6   1193667.84021
  21251450.748     1956152.982 6   1524271.01322
  20176616.873   -21462102.508 7 -16682784.23123
  23411770.350    -5110993.186 4  -3907734.19321
  21316656.1474  -16739039.24846 -12946205.12861
 91  5 13 20 34 59.9980000  0  5G11G19G 2G16G 6
  23201865.9044   -6482144.26746   1212156.86661
  21254746.186     1973468.421 6   1537763.54522
  20172656.662   -21482909.535 7 -16698997.48223
  23415143.240    -5093290.208 4  -3893939.76921
  21309867.1154  -16774715.35846 -12974004.65561
 91  5 13 20 35 14.9980000  0  5G11G19G 2G16G 6
  23206403.0764   -6458297.41346   1230738.81461
  21258052.998     1990842.565 6   1551301.81422
  20168710.920   -21503638.630 7 -16715150.00923
  23418528.5224   -5075506.75144  -3880082.64261
  21303083.857   -16810368.809 6 -13001786.54221
 91  5 13 20 35 29.9980000  0  5G11G19G 2G16G 6
  23210963.8654   -6434329.96546   1249414.74461
  21261370.3034    2008277.05546   1564887.12162
  20164783.107   -21524288.358 7 -16731240.68923
  23421925.107    -5057641.485 4  -3866161.73621
  21296304.3034  -16845997.94246 -13029549.46261
 91  5 13 20 35 44.9980000  0  5G11G19G 2G16G 6
  23215543.490    -6410245.226 5   1268182.05821
  21264699.326     2025768.953 6   1578517.15522
  20160869.217   -21544861.561 7 -16747271.74223
  23425335.4984   -5039697.48144  -3852179.50061
  21289530.2564  -16881605.57746 -13057295.64361
 91  5 13 20 35 59.9980000  0  5G11G19G 2G16G 6
  23220153.0374   -6386039.01245   1287044.04161
  21268038.943     2043322.769 6   1592195.43122
  20156967.506   -21565353.850 7 -16763239.74323
  23428773.904    -5021670.736 4  -3838132.79921
  21282753.2564  -16917187.22646 -13085021.56861
 91  5 13 20 36 14.9980000  0  5G11G19G 2G16G 6
  23224780.779    -6361708.727 6   1306002.69421
  21271391.764     2060941.342 6   1605924.17022
  20153085.904   -21585762.502 7 -16779142.57223
  23432219.311    -5003558.706 4  -3824019.63721
  21275989.7484  -16952739.84446 -13112724.87961
 91  5 13 20 36 29.9980000  0  5G11G19G 2G16G 6
  23229435.9204   -6337261.79746   1325052.23661
  21274755.240     2078617.652 6   1619697.90322
  20149215.5064  -21606094.49047 -16794985.66563
  23435676.3504   -4985368.47244  -3809845.55861
  21269230.7174  -16988270.45646 -13140411.03661
 91  5 13 20 36 44.9980000  0  5G11G19G 2G16G 6
  23234110.162    -6312697.709 6   1344193.08321
  21278130.443     2096352.411 6   1633517.18022
  20145361.061   -21626349.235 7 -16810768.56423
  23439159.303    -4967099.945 4  -3795610.45821
  21262472.7794  -17023778.19946 -13168079.37861
 91  5 13 20 36 59.9980000  0  5G11G19G 2G16G 6
  23238803.8894   -6288015.95746   1363425.62361
  21281516.584     2114146.567 6   1647382.74622
  20141521.022   -21646525.838 7 -16826490.58123
  23442646.8814   -4948752.60844  -3781313.95061
  21255719.420   -17059262.067 6 -13195729.12221
 91  5 13 20 37 14.9980000  0  5G11G19G 2G16G 6
  23243524.998    -6263217.886 6   1382748.76821
  21284914.123     2131999.035 6   1661293.73122
  20137695.826   -21666625.562 7 -16842152.68723
  23446156.436    -4930327.963 4  -3766957.18321
  21248970.4434  -17094723.07646 -13223361.03961
 91  5 13 20 37 29.9980000  0  5G11G19G 2G16G 6
  23248262.9754   -6238304.33346   1402161.93161
  21288323.053     2149909.273 6   1675249.74122
  20133886.037   -21686648.970 7 -16857755.32423
  23449674.740    -4911826.711 5  -3752540.75521
  21242228.9904  -17130161.72046 -13250975.53661
 91  5 13 20 37 44.9970000  0  5G11G19G 2G16G 6
  23253025.9154   -6213275.35946   1421665.03261
  21291739.954     2167877.874 6   1689251.23122
  20130091.173   -21706592.845 7 -16873295.99823
  23453208.704    -4893248.985 4  -3738064.68621
  21235489.0174  -17165573.61246 -13278569.18461
 91  5 13 20 37 59.9970000  0  5G11G19G 2G16G 6
  23257815.243    -6188127.933 6   1441260.40821
  21295173.673     2185907.518 6   1703300.28122
  20126310.282   -21726459.877 7 -16888776.78223
  23456755.907    -4874592.540 4  -3723527.31621
  21228756.4154  -17200963.27646 -13306145.51561
 91  5 13 20 38 14.9970000  0  5G11G19G 2G16G 6
  23262621.7354   -6162864.57246   1460946.13061
  21298615.439     2203996.457 6   1717395.54122
  20122542.790   -21746249.476 7 -16904197.23323
  23460323.149    -4855859.146 4  -3708929.98321
  21222026.3844  -17236328.86746 -13333703.08861
 91  5 13 20 38 29.9970000  0  5G11G19G 2G16G 6
  23267449.1494   -6137488.86446   1480719.38961
  21302068.259     2222141.256 6   1731534.32322
  20118793.196   -21765965.110 7 -16919560.05023
  23463905.649    -4837052.391 4  -3694275.48321
  21215299.8214  -17271673.73646 -13361244.50861
 91  5 13 20 38 44.9970000  0  5G11G19G 2G16G 6
  23272301.798    -6111997.357 6   1500582.89121
  21305531.829     2240345.876 6   1745719.72222
  20115058.220   -21785602.975 7 -16934862.26723
  23467501.649    -4818168.907 5  -3679561.19521
  21208578.4704  -17306993.99446 -13388766.74861
 91  5 13 20 38 59.9970000  0  5G11G19G 2G16G 6
  23277174.267    -6086389.452 6   1520537.08921
  21309009.931     2258611.305 6   1759952.50421
  20111335.0714  -21805161.94947 -16950103.01463
  23471105.314    -4799208.193 4  -3664786.71821
  21201862.7354  -17342288.46846 -13416268.91061
 91  5 13 20 39 14.9970000  0  5G11G19G 2G16G 6
  23282069.7904   -6060669.13046   1540578.88661
  21312494.696     2276933.775 6   1774229.73521
  20107627.118   -21824645.790 7 -16965285.21523
  23474729.9544   -4780174.20245  -3649955.15061
  21195149.1734  -17377560.78846 -13443753.80661
 91  5 13 20 39 29.9970000  0  5G11G19G 2G16G 6
  23286985.774    -6034832.890 5   1560711.01321
  21315993.478     2295317.032 6   1788554.33121
  20103934.337   -21844050.989 7 -16980406.13623
  23478364.001    -4761063.482 4  -3635063.78021
  21188443.8534  -17412807.05646 -13471218.39361
 91  5 13 20 39 44.9970000  0  5G11G19G 2G16G 6
  23291924.1344   -6008885.12146   1580930.03261
  21319501.8454    2313756.89546   1802923.03162
  20100255.485   -21863381.629 7 -16995468.96323
  23482013.462    -4741880.697 4  -3620116.27721
  21181738.6424  -17448031.37546 -13498665.87662
 91  5 13 20 39 59.9970000  0  5G11G19G 2G16G 6
  23296884.415    -5982823.883 6   1601237.46921
  21323022.478     2332255.561 6   1817337.55121
  20096591.2434  -21882635.72247 -17010472.14163
  23485683.774    -4722623.860 4  -3605111.07121
  21175044.1344  -17483231.35747 -13526094.39661
 91  5 13 20 40 14.9970000  0  5G11G19G 2G16G 6
  23301863.1574   -5956645.21846   1621636.43061
  21326554.9544    2350817.30946   1831801.21861
  20092942.056   -21901808.945 7 -17025412.30223
  23489363.821    -4703289.442 4  -3590045.39021
  21168349.5404  -17518402.67446 -13553500.58461
 91  5 13 20 40 29.9970000  0  5G11G19G 2G16G 6
  23306867.884    -5930351.928 6   1642124.71821
  21330100.306     2369439.946 6   1846312.34321
  20089307.845   -21920903.678 7 -17040291.29923
  23493056.1814   -4683879.67044  -3574921.03161
  21161660.9394  -17553547.53146 -13580886.15561
 91  5 13 20 40 44.9970000  0  5G11G19G 2G16G 6
  23311894.0094   -5903941.88546   1662703.97861
  21333653.954     2388125.956 6   1860872.84722
  20085691.024   -21939917.734 7 -17055107.43723
  23496762.2824   -4664392.69444  -3559736.46761
  21154977.9234  -17588663.43446 -13608249.15161
 91  5 13 20 40 59.9970000  0  5G11G19G 2G16G 6
  23316940.204    -5877423.700 6   1683367.47921
  21337219.493     2406866.845 6   1875476.11421
  20082086.5644  -21958859.58047 -17069867.30463
  23500479.7284   -4644837.22344  -3544498.58061
  21148298.5174  -17623758.68946 -13635596.06761
 91  5 13 20 41 14.9970000  0  5G11G19G 2G16G 6
  23322010.142    -5850786.663 5   1704123.60421
  21340799.587     2425673.673 6   1890130.75721
  20078496.9154  -21977718.03047 -17084562.19364
  23504217.243    -4625202.613 4  -3529198.95521
  21141627.962   -17658822.182 6 -13662918.22922
 91  5 13 20 41 29.9970000  0  4G11G19G 2G 6
  23327096.5644   -5824037.92746   1724966.74161
  21344389.009     2444539.580 6   1904831.44422
  20074923.548   -21996500.008 7 -17099197.48523
  21134960.493   -17693860.599 6 -13690220.84722
 91  5 13 20 41 44.9970000  0  4G11G19G 2G 6
  23332208.985    -5797179.090 6   1745895.68821
  21347989.181     2463463.373 6   1919577.23222
  20071363.2434  -22015206.76647 -17113774.17563
  21128297.837   -17728875.034 7 -13717504.77822
 91  5 13 20 41 59.9970000  0  4G11G19G 2G 6
  23337342.454    -5770209.535 6   1766910.90621
  21351606.0484    2482445.96246   1934368.83261
  20067818.1184  -22033837.63447 -17128291.71963
  21121639.204   -17763864.563 6 -13744769.30921
 91  5 13 20 42 14.9970000  0  4G11G19G 2G 6
  23342495.892    -5743129.916 5   1788011.89421
  21355225.2744    2501487.02946   1949206.00262
  20064287.6494  -22052392.86447 -17142750.33164
  21114986.2984  -17798829.37147 -13772014.57362
 91  5 13 20 42 29.9970000  0  4G11G19G 2G 6
  23347669.384    -5715939.938 6   1809198.87421
  21358859.251     2520587.274 6   1964089.28921
  20060769.235   -22070872.153 7 -17157149.76324
  21108335.9154  -17833768.81446 -13799240.07462
 91  5 13 20 42 44.9970000  0  4G11G19G 2G 6
  23352863.2044   -5688636.55445   1830474.23561
  21362508.649     2539749.962 6   1979021.22322
  20057271.2514  -22089272.18247 -17171487.44063
  21101692.126   -17868679.464 6 -13826443.13622
 91  5 13 20 42 59.9970000  0  4G11G19G 2G 6
  23358082.3604   -5661222.95646   1851835.48561
  21366168.626     2558972.126 6   1993999.51922
  20053783.2044  -22107595.54647 -17185765.37564
  21095055.462   -17903564.023 6 -13853625.85522
 91  5 13 20 43 14.9970000  0  4G11G19G 2G 6
  23363317.6344   -5633699.64046   1873282.22661
  21369833.6184    2578253.80846   2009024.18062
  20050310.017   -22125842.649 7 -17199983.88624
  21088420.5564  -17938422.41446 -13880788.20462
 91  5 13 20 43 29.9970000  0  4G11G19G 2G 6
  23368575.8994   -5606068.83446   1894812.72361
  21373515.642     2597592.928 6   2024093.60521
  20046851.3454  -22144015.65847 -17214144.66264
  21081794.8214  -17973256.64947 -13907931.73062
 91  5 13 20 43 44.9970000  0  4G11G19G 2G 6
  23373856.9784   -5578324.37445   1916431.77261
  21377205.2594    2616996.11646   2039212.95562
  20043408.3684  -22162108.01247 -17228242.59164
  21075172.6654  -18008059.98447 -13935051.17162
 91  5 13 20 43 59.9970000  0  4G11G19G 2G 6
  23379154.618    -5550471.793 5   1938135.05921
  21380914.274     2636458.048 6   2054378.06621
  20039978.860   -22180125.098 7 -17242281.86824
  21068551.540   -18042837.716 7 -13962150.65922
 91  5 13 20 44 14.9970000  0  4G11G19G 2G 6
  23384523.3374   -5522267.03646   1960112.79061
  21384670.923     2656223.300 6   2069779.54422
  20036612.290   -22197822.552 7 -17256072.08224
  21061984.915   -18077345.161 6 -13989039.53322
 91  5 13 20 44 29.9970000  0  4G11G19G 2G 6
  23389936.610    -5493809.978 5   1982287.10321
  21388476.9544    2676192.20746   2085339.70261
  20033287.2514  -22215299.97947 -17269690.85164
  21055452.0174  -18111681.83647 -14015795.34862
 91  5 13 20 44 44.9970000  0  4G11G19G 2G 6
  23395375.0714   -5465244.26546   2004546.11161
  21392283.540     2696221.297 6   2100946.76021
  20029975.1734  -22232700.80947 -17283249.92964
  21048920.189   -18145991.076 6 -14042529.77322
 91  5 13 20 44 59.9970000  0  4G11G19G 2G 6
  23400833.1034   -5436568.23846   2026891.05061
  21396108.3214    2716312.76146   2116602.41861
  20026680.0174  -22250023.02247 -17296747.75263
  21042397.7674  -18180270.65846 -14069241.09962
 91  5 13 20 45 14.9970000  0  4G11G19G 2G 6
  23406310.556    -5407783.623 5   2049320.60021
  21399941.470     2736465.288 6   2132305.66721
  20023397.0794  -22267268.23047 -17310185.56864
  21035881.978   -18214521.947 6 -14095930.37222
 91  5 13 20 45 29.9970000  0  4G11G19G 2G 6
  23411806.3994   -5378893.88845   2071832.07861
  21403789.4854    2756675.66746   2148053.98962
  20020130.1264  -22284439.55047 -17323565.80364
  21029367.1574  -18248748.02146 -14122599.99362
 91  5 13 20 45 44.9970000  0  4G11G19G 2G 6
  23417325.087    -5349899.421 5   2094425.18221
  21407642.5644    2776943.83546   2163847.33261
  20016874.7514  -22301537.07947 -17336888.55164
  21022860.7904  -18282948.66946 -14149249.81562
 91  5 13 20 45 59.9970000  0  4G11G19G 2G 6
  23422863.407    -5320798.810 5   2117100.95521
  21411513.478     2797271.493 6   2179687.03822
  20013636.1814  -22318559.12647 -17350152.47864
  21016356.8994  -18317121.98846 -14175878.33462
 91  5 13 20 46 14.9970000  0  4G11G19G 2G 6
  23428419.8604   -5291592.22145   2139859.32761
  21415392.485     2817658.735 6   2195573.17221
  20010412.3994  -22335505.76047 -17363357.63664
  21009860.4234  -18351267.91846 -14202485.52162
 91  5 13 20 46 29.9970000  0  4G11G19G 2G 6
  23433996.9784   -5262274.43345   2162704.35161
  21419283.790     2838111.248 6   2211510.17221
  20007203.9154  -22352371.54247 -17376499.80164
  21003367.7904  -18385380.69046 -14229066.86262
 91  5 13 20 46 44.9970000  0  4G11G19G 2G 6
  23439597.493    -5232851.332 5   2185631.45121
  21423187.556     2858623.472 6   2227493.70221
  20004008.5244  -22369161.95947 -17389583.23164
  20996881.4074  -18419465.70647 -14255626.58662
 91  5 13 20 46 59.9970000  0  4G11G19G 2G 6
  23445216.3604   -5203328.18945   2208636.50961
  21427101.720     2879190.398 6   2243519.85821
  20000825.5874  -22385882.08747 -17402611.89664
  20990400.1034  -18453527.91646 -14282168.53162
 91  5 13 20 47 14.9970000  0  4G11G19G 2G 6
  23450854.423    -5173703.426 5   2231720.75221
  21431026.939     2899813.938 6   2259590.13521
  19997657.6104  -22402530.27047 -17415584.49963
  20983922.462   -18487565.326 6 -14308691.15022
 91  5 13 20 47 29.9970000  0  4G11G19G 2G 6
  23456511.8924   -5143971.23545   2254888.69061
  21434962.5404    2920500.25546   2275709.31261
  19994505.7044  -22419100.32647 -17428496.22564
  20977451.4154  -18521571.51847 -14335189.44962
 91  5 13 20 47 44.9970000  0  4G11G19G 2G 6
  23462188.470    -5114142.658 5   2278131.72621
  21438910.056     2941238.556 6   2291869.00022
  19991364.1424  -22435602.90547 -17441355.36964
  20970984.4544  -18555557.18746 -14361671.75262
 91  5 13 20 47 59.9970000  0  4G11G19G 2G 6
  23467883.9154   -5084210.58545   2301455.42661
  21442866.3844    2962036.30746   2308075.01261
  19988238.8214  -22452030.69347 -17454156.23664
  20964521.0644  -18589514.77947 -14388132.18462
 91  5 13 20 48 14.9970000  0  4G11G19G 2G 6
  23473598.8454   -5054177.59246   2324857.75861
  21446833.954     2982891.268 6   2324325.61121
  19985125.5794  -22468385.99247 -17466900.61864
  20958065.2984  -18623446.35147 -14414572.33662
 91  5 13 20 48 29.9970000  0  4G11G19G 2G 6
  23479333.6964   -5024040.38446   2348341.27061
  21450816.3684    3003807.28346   2340623.77961
  19982028.7674  -22484665.13847 -17479585.66063
  20951614.149   -18657348.170 6 -14440989.31322
 91  5 13 20 48 44.9970000  0  4G11G19G 2G 6
  23485088.814    -4993797.132 5   2371907.41621
  21454807.118     3024786.281 6   2356971.02322
  19978944.8684  -22500866.18648 -17492209.84764
  20945166.7744  -18691217.92946 -14467381.29462
 91  5 13 20 48 59.9970000  0  4G11G19G 2G 6
  23490861.8684   -4963452.11145   2395552.87861
  21458809.8064    3045824.36746   2373364.30461
  19975875.4464  -22516993.25348 -17504776.38964
  20938730.5484  -18725059.53247 -14493751.33862
 91  5 13 20 49 14.9970000  0  4G11G19G 2G 6
  23496654.6574   -4933007.39845   2419276.03461
  21462825.157     3066919.956 6   2389802.40521
  19972821.2824  -22533048.06647 -17517286.62763
  20932293.501   -18758874.550 7 -14520100.67722
 91  5 13 20 49 29.9970000  0  4G11G19G 2G 6
  23502470.3064   -4902456.92245   2443081.60361
  21466851.1424    3088079.30846   2406290.18561
  19969781.5404  -22549024.15248 -17529735.51964
  20925863.8994  -18792656.49546 -14546424.24462
 91  5 13 20 49 44.9970000  0  4G11G19G 2G 6
  23508301.1104   -4871807.59545   2466964.20161
  21470889.3924    3109295.90046   2422822.56662
  19966754.4394  -22564928.40547 -17542128.43863
  20919441.8844  -18826411.81347 -14572727.06062
 91  5 13 20 49 59.9970000  0  4G11G19G 2G 6
  23514150.8844   -4841063.42345   2490920.69561
  21474937.720     3130566.113 6   2439396.73021
  19963740.9464  -22580764.42247 -17554468.18763
  20913020.7204  -18860144.06347 -14599011.89562
 91  5 13 20 50 14.9970000  0  4G11G19G 2G 6
  23520021.3844   -4810224.80145   2514950.77161
  21478993.712     3151889.868 6   2456012.62621
  19960740.0324  -22596532.24248 -17566754.79463
  20906608.978   -18893853.058 7 -14625278.62122
 91  5 13 20 50 29.9970000  0  4G11G19G 2G 6
  23525907.735    -4779285.125 5   2539059.58421
  21483062.540     3173274.107 6   2472675.65121
  19957755.4234  -22612225.04448 -17578982.94763
  20900198.759   -18927531.867 7 -14651521.82322
 91  5 13 20 50 44.9970000  0  4G11G19G 2G 6
  23531815.103    -4748243.458 5   2563247.88421
  21487145.9784    3194719.90646   2489386.62461
  19954782.5564  -22627841.84947 -17591151.87963
  20893796.5014  -18961179.08447 -14677740.40462
 91  5 13 20 50 59.9970000  0  4G11G19G 2G 6
  23537740.415    -4717102.393 5   2587513.63021
  21491236.8374    3216225.20946   2506143.97661
  19951824.6574  -22643384.88247 -17603263.33463
  20887400.9854  -18994796.74647 -14703935.95862
 91  5 13 20 51 14.9970000  0  4G11G19G 2G 6
  23543685.2284   -4685860.88446   2611857.64261
  21495341.0174    3237791.39246   2522948.76161
  19948880.9934  -22658852.89047 -17615316.31963
  20881008.0404  -19028383.48947 -14730107.40862
 91  5 13 20 51 29.9970000  0  4G11G19G 2G 6
  23549647.8764   -4654519.84246   2636279.24361
  21499456.149     3259417.882 6   2539800.55121
  19945951.1494  -22674246.29448 -17627311.17963
  20874620.345   -19061939.700 7 -14756255.07222
 91  5 13 20 51 44.9970000  0  4G11G19G 2G 6
  23555629.5874   -4623082.00445   2660776.24261
  21503581.8454    3281102.14946   2556697.35461
  19943036.5014  -22689567.71447 -17639249.94063
  20868240.6734  -19095467.60447 -14782380.69162
 91  5 13 20 51 59.9970000  0  4G11G19G 2G 6
  23561631.001    -4591544.996 5   2685350.51521
  21507720.2674    3302846.87946   2573641.28861
  19940135.9464  -22704814.57947 -17651130.61763
  20861867.9234  -19128964.52447 -14808482.16162
 91  5 13 20 52 14.9970000  0  4G11G19G 2G 6
  23567652.0014   -4559913.88845   2709998.10361
  21511868.8604    3324647.43146   2590628.70761
  19937247.1894  -22719991.65947 -17662956.90563
  20855497.3534  -19162434.85447 -14834562.90362
 91  5 13 20 52 29.9970000  0  4G11G19G 2G 6
  23573690.360    -4528183.047 5   2734723.41421
  21516030.579     3346509.690 6   2607664.21321
  19934372.8294  -22735093.06847 -17674724.23763
  20849135.2674  -19195872.58147 -14860618.24462
 91  5 13 20 52 44.9970000  0  4G11G19G 2G 6
  23579745.7744   -4496354.15545   2759525.14561
  21520201.798     3368432.349 6   2624746.78421
  19931514.1034  -22750120.24547 -17686433.71763
  20842778.6034  -19229279.00247 -14886649.19462
 91  5 13 20 52 59.9970000  0  4G11G19G 2G 6
  23585822.3844   -4464433.21845   2784398.57361
  21524386.2514    3390409.90746   2641872.12661
  19928666.3604  -22765078.61147 -17698089.58263
  20836427.6814  -19262659.47547 -14912659.92462
 91  5 13 20 53 14.9970000  0  4G11G19G 2G 6
  23591915.1654   -4432410.61445   2809351.22661
  21528577.446     3412452.272 6   2659047.97321
  19925835.6424  -22779958.45048 -17709684.25763
  20830079.8764  -19296003.90147 -14938642.56462
 91  5 13 20 53 29.9970000  0  4G11G19G 2G 6
  23598028.0404   -4400295.64446   2834375.86861
  21532782.064     3434550.553 6   2676267.38321
  19923015.4394  -22794768.76347 -17721224.75863
  20823742.2674  -19329321.15547 -14964604.03462
 91  5 13 20 53 44.9970000  0  4G11G19G 2G 6
  23604155.696    -4368087.639 5   2859472.99721
  21536998.673     3456705.592 6   2693531.03121
  19920213.1894  -22809508.81248 -17732710.50763
  20817405.3764  -19362610.21547 -14990543.52662
 91  5 13 20 53 59.9970000  0  4G11G19G 2G 6
  23610305.1264   -4335786.92146   2884642.38261
  21541224.728     3478917.269 6   2710838.81421
  19917421.9854  -22824178.65147 -17744141.54363
  20811077.071   -19395870.896 7 -15016460.91422
 91  5 13 20 54 14.9970000  0  4G11G19G 2G 6
  23616465.759    -4303387.170 6   2909888.93621
  21545465.376     3501192.382 6   2728196.02321
  19914645.0244  -22838771.71348 -17755512.75663
  20804757.1654  -19429096.46947 -15042350.94062
 91  5 13 20 54 29.9970000  0  4G11G19G 2G 6
  23622650.962    -4270893.183 6   2935208.91021
  21549715.3144    3523526.63846   2745599.31461
  19911879.8294  -22853292.36847 -17766827.54763
  20798437.2904  -19462291.10947 -15068216.85862
 91  5 13 20 54 44.9970000  0  4G11G19G 2G 6
  23628852.6184   -4238311.52145   2960597.19961
  21553974.0324    3545913.75946   2763043.80061
  19909130.1654  -22867746.92947 -17778090.83163
  20792126.3454  -19495460.87347 -15094063.39962
 91  5 13 20 54 59.9970000  0  4G11G19G 2G 6
  23635071.290    -4205640.022 5   2986055.49221
  21558246.0094    3568356.18146   2780531.36861
  19906393.2434  -22882132.95848 -17789300.72063
  20785819.3374  -19528603.25947 -15119888.59862
 91  5 13 20 55 14.9970000  0  4G11G19G 2G 6
  23641303.2744   -4172881.84745   3011581.31461
  21562527.759     3590851.082 6   2798059.83621
  19903666.4314  -22896453.37048 -17800459.47763
  20779517.4464  -19561720.69847 -15145694.37062
 91  5 13 20 55 29.9970000  0  4G11G19G 2G 6
  23647555.712    -4140035.049 5   3037176.19921
  21566820.7044    3613400.76746   2815631.01261
  19900954.6654  -22910706.02648 -17811565.43663
  20773221.6034  -19594810.94647 -15171478.95062
 91  5 13 20 55 44.9970000  0  4G11G19G 2G 6
  23653820.9074   -4107098.50545   3062841.02361
  21571118.157     3636006.653 6   2833245.96721
  19898256.4704  -22924889.46548 -17822617.46263
  20766926.6964  -19627872.45946 -15197241.13062
 91  5 13 20 55 59.9970000  0  4G11G19G 2G 6
  23660107.6574   -4074066.26045   3088580.40961
  21575433.5174    3658675.02946   2850909.60361
  19895571.6574  -22938997.57348 -17833610.78763
  20760642.8534  -19660898.70847 -15222975.83962
 91  5 13 20 56 14.9970000  0  4G11G19G 2G 6
  23666412.6494   -4040939.91545   3114393.15561
  21579755.884     3681404.687 6   2868620.99421
  19892900.8064  -22953031.65648 -17844546.43163
  20754367.3454  -19693890.78347 -15248683.91662
 91  5 13 20 56 29.9970000  0  4G11G19G 2G 6
  23672733.6734   -4007720.75545   3140278.22061
  21584096.5094    3704194.63046   2886379.35961
  19890244.5564  -22966992.64148 -17855425.11563
  20748092.603   -19726849.612 7 -15274366.09022
 91  5 13 20 56 44.9970000  0  4G11G19G 2G 6
  23679070.3294   -3974410.88745   3166233.93561
  21588443.532     3727043.130 6   2904183.37121
  19887600.3374  -22980882.40648 -17866248.30163
  20741829.8684  -19759776.70947 -15300023.53762
 91  5 13 20 56 59.9970000  0  4G11G19G 2G 6
  23685426.2124   -3941013.02145   3192258.23961
  21592804.2824    3749947.83746   2922031.18261
  19884972.1104  -22994703.46848 -17877017.95463
  20735569.4784  -19792674.33647 -15325658.01762
 91  5 13 20 57 14.9970000  0  4G11G19G 2G 6
  23691798.6654   -3907527.23645   3218351.02661
  21597171.118     3772909.052 6   2939923.01121
  19882356.5714  -23008455.46548 -17887733.78663
  20729314.0244  -19825542.00547 -15351269.15962
 91  5 13 20 57 29.9970000  0  4G11G19G 2G 6
  23698188.915    -3873947.442 5   3244517.08821
  21601554.189     3795933.174 6   2957863.86921
  19879750.6184  -23022132.04648 -17898390.85563
  20723067.1574  -19858373.20147 -15376851.87962
 91  5 13 20 57 44.9970000  0  4G11G19G 2G 6
  23704595.220    -3840281.139 5   3270750.55121
  21605943.8374    3819013.03646   2975848.14661
  19877162.7744  -23035740.52748 -17908994.85862
  20716823.579   -19891174.899 7 -15402411.62222
 91  5 13 20 57 59.9970000  0  3G19G 2G 6
  21610346.9704    3842151.17346   2993877.82861
  19874585.8064  -23049278.30748 -17919543.77163
  20710588.3374  -19923944.42547 -15427946.28562
 91  5 13 20 58 14.9970000  0  3G19G 2G 6
  21614763.1344    3865354.51146   3011958.33161
  19872023.4544  -23062738.47048 -17930032.19463
  20704358.915   -19956674.557 7 -15453450.25322
 91  5 13 20 58 29.9970000  0  3G19G 2G 6
  21619190.290     3888618.854 6   3030086.36421
  19869476.0404  -23076125.48448 -17940463.63263
  20698137.454   -19989369.555 7 -15478926.85022
 91  5 13 20 58 44.9970000  0  3G19G 2G 6
  21623627.564     3911937.494 6   3048256.69421
  19866942.0644  -23089446.23348 -17950843.42663
  20691920.915   -20022035.921 7 -15504381.13922
 91  5 13 20 58 59.9970000  0  3G19G 2G 6
  21628077.5094    3935312.04546   3066470.58561
  19864420.0404  -23102698.98348 -17961170.23663
  20685712.5484  -20054671.86547 -15529811.72462
 91  5 13 20 59 14.9970000  0  3G19G 2G 6
  21632534.7284    3958742.69746   3084728.21161
  19861912.7354  -23115883.68948 -17971444.02263
  20679507.954   -20087277.040 7 -15555218.32822
 91  5 13 20 59 29.9970000  0  3G19G 2G 6
  21637002.5324    3982227.76646   3103028.23361
  19859415.4394  -23129002.10348 -17981666.15563
  20673307.2204  -20119853.04747 -15580602.20362
 91  5 13 20 59 44.9970000  0  3G19G 2G 6
  21641483.189     4005777.839 6   3121378.92121
  19856932.6344  -23142043.44048 -17991828.22863
  20667115.134   -20152388.851 7 -15605954.75022
 91  5 13 20 59 59.9970000  0  3G19G 2G 6
  21645977.923     4029389.086 6   3139777.27621
  19854465.8534  -23155011.70048 -18001933.35663
  20660931.8534  -20184888.31946 -15631278.99062
 91  5 13 21  0 14.9970000  0  3G19G 2G 6
  21650481.9934    4053056.29746   3158219.22061
  19852011.1574  -23167912.43048 -18011985.86563
  20654753.001   -20217356.598 7 -15656578.92222
 91  5 13 21  0 29.9970000  0  3G19G 2G 6
  21654997.4854    4076781.53146   3176706.38661
  19849568.4784  -23180743.43448 -18021984.04163
  20648580.142   -20249791.241 7 -15681852.65022
 91  5 13 21  0 44.9970000  0  3G19G 2G 6
  21659523.4464    4100569.08646   3195242.10161
  19847141.9464  -23193500.41648 -18031924.54263
  20642417.524   -20282187.786 7 -15707096.68022
 91  5 13 21  0 59.9970000  0  3G19G 2G 6
  21664059.5094    4124410.19746   3213819.55761
  19844727.8294  -23206192.41548 -18041814.40463
  20636257.228   -20314555.148 7 -15732317.97922
 91  5 13 21  1 14.9970000  0  3G19G 2G 6
  21668608.9854    4148310.47446   3232443.12361
  19842325.6264  -23218813.91748 -18051649.33363
  20630104.290   -20346887.499 7 -15757511.99422
 91  5 13 21  1 29.9970000  0  3G19G 2G 6
  21673167.110     4172266.846 6   3251110.40621
  19839935.7354  -23231368.14648 -18061431.84263
  20623958.384   -20379187.717 7 -15782680.97222
 91  5 13 21  1 44.9970000  0  3G19G 2G 6
  21677736.814     4196282.254 6   3269823.66021
  19837559.9784  -23243852.10248 -18071159.59463
  20617817.118   -20411452.694 7 -15807822.48522
 91  5 13 21  1 59.9970000  0  3G19G 2G 6
  21682320.1034    4220360.46246   3288585.86361
  19835198.2744  -23256262.08448 -18080829.70563
  20611685.665   -20443678.444 7 -15832933.43822
 91  5 13 21  2 14.9970000  0  3G19G 2G 6
  21686910.5324    4244495.58946   3307392.43161
  19832849.2044  -23268603.72248 -18090446.56563
  20605561.345   -20475870.468 7 -15858018.10922
 91  5 13 21  2 29.9970000  0  3G19G 2G 6
  21691514.7284    4268685.63446   3326241.78961
  19830513.9934  -23280879.12648 -18100011.80763
  20599440.329   -20508030.808 7 -15883078.09222
 91  5 13 21  2 44.9970000  0  3G19G 2G 6
  21696129.0484    4292935.82446   3345138.00561
  19828191.2904  -23293083.33648 -18109521.57363
  20593325.587   -20540153.997 7 -15908109.12122
 91  5 13 21  2 59.9970000  0  3G19G 2G 6
  21700757.7744    4317243.89646   3364079.32461
  19825883.5244  -23305218.56848 -18118977.59263
  20587222.1734  -20572242.17647 -15933112.87463
 91  5 13 21  3 14.9970000  0  3G19G 2G 6
  21705389.2984    4341602.53846   3383060.04861
  19823584.5324  -23317292.34848 -18128385.72663
  20581119.556   -20604302.546 7 -15958094.95922
 91  5 13 21  3 29.9970000  0  3G19G 2G 6
  21710037.931     4366023.694 6   3402089.47721
  19821299.9784  -23329292.84748 -18137736.75263
  20575027.056   -20636322.980 7 -15983045.91922
 91  5 13 21  3 44.9970000  0  3G19G 2G 6
  21714697.290     4390509.069 6   3421168.94621
  19819031.5404  -23341218.42648 -18147029.40163
  20568940.610   -20668301.633 7 -16007964.32922
 91  5 13 21  3 59.9970000  0  3G19G 2G 6
  21719366.8924    4415048.55346   3440290.58861
  19816774.173   -23353079.402 8 -18156271.70923
  20562862.329   -20700248.322 7 -16032857.83322
 91  5 13 21  4 14.9970000  0  3G19G 2G 6
  21724047.048     4439647.629 6   3459458.67121
  19814531.9704  -23364870.07748 -18165459.24263
  20556790.642   -20732157.349 7 -16057721.98522
 91  5 13 21  4 29.9970000  0  3G19G 2G 6
  21728740.2354    4464303.88846   3478671.31461
  19812299.6964  -23376592.63148 -18174593.69263
  20550724.2284  -20764030.90547 -16082558.49562
 91  5 13 21  4 44.9970000  0  3G19G 2G 6
  21733442.095     4489017.700 6   3497928.78321
  19810081.4074  -23388246.85548 -18183674.89363
  20544667.5794  -20795868.43347 -16107366.93062
 91  5 13 21  4 59.9970000  0  3G19G 2G 6
  21738157.368     4513786.781 6   3517229.31221
  19807877.3454  -23399835.39648 -18192704.91863
  20538612.985   -20827672.462 7 -16132149.27322
 91  5 13 21  5 14.9970000  0  3G19G 2G 6
  21742879.829     4538612.065 6   3536573.64421
  19805685.0714  -23411357.41648 -18201683.11063
  20532568.9394  -20859441.64047 -16156904.45262
 91  5 13 21  5 29.9970000  0  3G19G 2G 6
  21747617.6494    4563496.57246   3555964.13661
  19803505.2674  -23422809.99748 -18210607.18963
  20526529.696   -20891172.711 7 -16181629.93822
 91  5 13 21  5 44.9970000  0  3G19G 2G 6
  21752360.610     4588437.452 6   3575398.55121
  19801338.5324  -23434195.86348 -18219479.28763
  20520498.259   -20922868.316 7 -16206327.78722
 91  5 13 21  5 59.9970000  0  3G19G 2G 6
  21757119.470     4613439.259 6   3594880.43821
  19799185.243   -23445510.674 8 -18228296.01223
  20514474.564   -20954523.842 7 -16230994.40522
 91  5 13 21  6 14.9970000  0  3G19G 2G 6
  21761887.118     4638501.371 6   3614409.30021
  19797044.5644  -23456754.94448 -18237057.77663
  20508459.079   -20986139.632 7 -16255630.06022
 91  5 13 21  6 29.9970000  0  3G19G 2G 6
  21766669.9074    4663627.05146   3633987.72461
  19794920.2514  -23467925.59248 -18245762.17163
  20502448.962   -21017712.188 7 -16280232.02622
 91  5 13 21  6 44.9970000  0  3G19G 2G 6
  21771459.931     4688805.846 6   3653607.54321
  19792807.1964  -23479033.22148 -18254417.45563
  20496449.298   -21049251.949 7 -16304808.43822
 91  5 13 21  6 59.9970000  0  3G19G 2G 6
  21776268.2674    4714045.25246   3673274.57461
  19790706.0874  -23490070.26748 -18263017.74363
  20490454.3064  -21080751.19047 -16329353.27162
 91  5 13 21  7 14.9970000  0  3G19G 2G 6
  21781077.3214    4739343.59846   3692987.54761
  19788618.4464  -23501038.35548 -18271564.29863
  20484468.728   -21112211.240 7 -16353867.56922
 91  5 13 21  7 29.9970000  0  3G19G 2G 6
  21785903.8294    4764701.48946   3712746.89561
  19786545.1574  -23511937.01047 -18280056.74763
  20478487.5794  -21143631.49447 -16378350.85962
 91  5 13 21  7 44.9970000  0  3G19G 2G 6
  21790738.7434    4790117.75146   3732551.74861
  19784483.7984  -23522767.40448 -18288496.00663
  20472517.610   -21175012.898 7 -16402803.87322
 91  5 13 21  7 59.9970000  0  3G19G 2G 6
  21795590.056     4815593.347 6   3752402.81221
  19782436.6104  -23533528.79648 -18296881.49863
  20466551.8844  -21206354.23747 -16427225.67062
 91  5 13 21  8 14.9970000  0  3G19G 2G 6
  21800445.954     4841122.383 6   3772295.52721
  19780400.4074  -23544226.87948 -18305217.65963
  20460592.392   -21237661.025 7 -16451620.54822
 91  5 13 21  8 29.9970000  0  3G19G 2G 6
  21805312.7674    4866703.64346   3792228.91561
  19778376.2434  -23554863.06348 -18313505.58763
  20454645.9544  -21268934.49347 -16475989.45462
 91  5 13 21  8 44.9970000  0  3G19G 2G 6
  21810195.118     4892351.417 6   3812214.17621
  19776366.4854  -23565423.02348 -18321734.12663
  20448701.360   -21300160.084 7 -16500321.05322
 91  5 13 21  8 59.9970000  0  3G19G 2G 6
  21815088.5794    4918057.94346   3832245.19561
  19774369.3534  -23575914.83547 -18329909.56262
  20442769.095   -21331345.705 7 -16524621.50922
 91  5 13 21  9 14.9970000  0  3G19G 2G 6
  21819987.751     4943815.906 6   3852316.28321
  19772385.8994  -23586345.77647 -18338037.57063
  20436839.3144  -21362498.21447 -16548896.16362
 91  5 13 21  9 29.9970000  0  3G19G 2G 6
  21824902.720     4969628.973 6   3872430.32021
  19770412.6344  -23596712.09848 -18346115.20663
  20430918.4784  -21393613.57347 -16573141.86762
 91  5 13 21  9 44.9970000  0  3G19G 2G 6
  21829824.321     4995501.944 6   3892591.04521
  19768452.7824  -23607009.24148 -18354138.94563
  20425006.3994  -21424687.04847 -16597354.93562
 91  5 13 21  9 59.9970000  0  3G19G 2G 6
  21834761.165     5021438.167 6   3912801.02721
  19766507.603   -23617233.717 8 -18362106.05823
  20419102.2674  -21455714.92347 -16621532.47062
 91  5 13 21 10 14.9970000  0  3G19G 2G 6
  21839706.657     5047430.653 6   3933054.87821
  19764574.2434  -23627392.65948 -18370022.11463
  20413202.9394  -21486703.99947 -16645679.77062
 91  5 13 21 10 29.9970000  0  3G19G 2G 6
  21844664.814     5073481.667 6   3953354.31721
  19762652.7434  -23637483.79748 -18377885.33063
  20407315.1654  -21517651.90247 -16669794.98962
 91  5 13 21 10 44.9970000  0  3G19G 2G 6
  21849630.212     5099591.644 6   3973699.71521
  19760748.2354  -23647506.66248 -18385695.34663
  20401431.8294  -21548557.75947 -16693877.44362
 91  5 13 21 10 59.9970000  0  3G19G 2G 6
  21854611.4464    5125763.88646   3994093.61461
  19758852.0954  -23657458.31448 -18393449.87163
  20395561.3994  -21579418.50647 -16717924.74862
 91  5 13 21 11 14.9970000  0  3G19G 2G 6
  21859603.8534    5151996.04246   4014534.20761
  19756972.5404  -23667341.06948 -18401150.71163
  20389695.3994  -21610236.02047 -16741938.36562
 91  5 13 21 11 29.9970000  0  3G19G 2G 6
  21864605.8064    5178282.50446   4035017.13261
  19755103.814   -23677160.404 8 -18408802.12623
  20383839.3994  -21641015.77647 -16765922.55362
 91  5 13 21 11 44.9970000  0  3G19G 2G 6
  21869619.095     5204629.920 6   4055547.53021
  19753248.6734  -23686909.91848 -18416399.13863
  20377990.9464  -21671750.86547 -16789871.94362
 91  5 13 21 11 59.9970000  0  3G19G 2G 6
  21874643.7824    5231034.37046   4076122.38461
  19751404.8534  -23696593.58148 -18423944.84563
  20372148.5484  -21702445.17647 -16813789.55662
 91  5 13 21 12 14.9970000  0  3G19G 2G 6
  21879679.2674    5257497.62746   4096743.07561
  19749575.048   -23706209.756 8 -18431437.95823
  20366316.2514  -21733096.72147 -16837673.85563
 91  5 13 21 12 29.9970000  0  3G19G 2G 6
  21884727.4544    5284018.38146   4117408.55761
  19747756.907   -23715759.631 8 -18438879.40723
  20360493.290   -21763706.393 7 -16861525.51623
 91  5 13 21 12 44.9970000  0  3G19G 2G 6
  21889784.860     5310599.723 6   4138121.26221
  19745954.0484  -23725239.98748 -18446266.68763
  20354675.1264  -21794270.97947 -16885342.04363
 91  5 13 21 12 59.9970000  0  3G19G 2G 6
  21894856.6654    5337236.30646   4158877.01261
  19744161.3214  -23734656.36148 -18453604.10863
  20348867.8214  -21824795.64147 -16909127.46362
 91  5 13 21 13 14.9970000  0  3G19G 2G 6
  21899932.7124    5363927.24046   4179675.10161
  19742381.5954  -23744009.78748 -18460892.48763
  20343066.2124  -21855281.23847 -16932882.43762
 91  5 13 21 13 29.9970000  0  3G19G 2G 6
  21905024.0484    5390677.27146   4200519.24961
  19740616.7354  -23753295.45848 -18468128.06563
  20337274.2204  -21885722.48747 -16956602.86062
 91  5 13 21 13 44.9970000  0  3G19G 2G 6
  21910124.048     5417486.020 6   4221409.14221
  19738862.3064  -23762513.90948 -18475311.26663
  20331487.3214  -21916119.79947 -16980289.04962
 91  5 13 21 13 59.9970000  0  3G19G 2G 6
  21915239.5404    5444356.34746   4242347.01661
  19737119.6264  -23771662.30748 -18482439.87763
  20325712.4154  -21946470.07347 -17003938.58263
 91  5 13 21 14 14.9970000  0  3G19G 2G 6
  21920362.1574    5471284.40646   4263329.87761
  19735393.0874  -23780744.70048 -18489517.06063
  20319945.8994  -21976776.90647 -17027554.26063
 91  5 13 21 14 29.9970000  0  3G19G 2G 6
  21925498.1034    5498268.66146   4284356.53061
  19733675.2984  -23789762.30948 -18496543.76263
  20314187.4154  -22007041.35747 -17051136.92162
 91  5 13 21 14 44.9970000  0  4G13G19G 2G 6
  23135734.0794         -0.06552
  21930645.431     5525311.928 6   4305429.19421
  19731973.3214  -23798712.45848 -18503517.89663
  20308434.1034  -22037260.70647 -17074684.43163
 91  5 13 21 14 59.9970000  0  4G13G19G 2G 6
  23122520.2824     -69475.25642
  21935802.1574    5552414.76846   4326548.26061
  19730283.3764  -23807594.76448 -18510439.16563
  20302691.9544  -22067434.17447 -17098196.19663
 91  5 13 21 15 14.9970000  0  4G13G19G 2G 6
  23109300.9394    -138927.85343
  21940969.6574    5579574.59346   4347711.72761
  19728604.3454  -23816411.78848 -18517309.56163
  20296961.1964  -22097563.96947 -17121673.92263
 91  5 13 21 15 29.9970000  0  4G13G19G 2G 6
  23096095.2514    -208354.40143
  21946151.1424    5606794.08346   4368921.69461
  19726938.9314  -23825160.80048 -18524126.96863
  20291236.0644  -22127647.12947 -17145115.31663
 91  5 13 21 15 44.9970000  0  4G13G19G 2G 6
  23082884.7284    -277755.10043
  21951342.056     5634072.883 6   4390177.85721
  19725287.1894  -23833842.38948 -18530891.83963
  20285519.1344  -22157684.07247 -17168520.70163
 91  5 13 21 15 59.9970000  0  4G13G19G 2G 6
  23069684.2904    -347126.13744
  21956543.2904    5661414.33146   4411482.81861
  19723648.4704  -23842453.16448 -18537601.52563
  20279813.1344  -22187671.08247 -17191887.17062
 91  5 13 21 16 14.9970000  0  4G13G19G 2G 6
  23056485.6494    -416473.75343
  21961755.337     5688811.830 6   4432831.47321
  19722022.181   -23851000.032 8 -18544261.41023
  20274117.587   -22217614.653 7 -17215219.79922
 91  5 13 21 16 29.9970000  0  4G13G19G 2G 6
  23043290.0644    -485799.79843
  21966982.1734    5716262.91546   4454221.88561
  19720408.5404  -23859485.23748 -18550873.25063
  20268425.0874  -22247516.83047 -17238520.16463
 91  5 13 21 16 44.9970000  0  4G13G19G 2G 6
  23030107.2904    -555104.03644
  21972215.782     5743767.250 6   4475653.79921
  19718805.7434  -23867909.11048 -18557437.30063
  20262742.118   -22277377.676 7 -17261788.33123
 91  5 13 21 16 59.9970000  0  4G13G19G 2G 6
  23016923.6814    -624379.84044
  21977461.3214    5771331.40146   4497132.29061
  19717214.829   -23876265.051 8 -18563948.40923
  20257068.978   -22307190.505 7 -17285019.08623
 91  5 13 21 17 14.9970000  0  4G13G19G 2G 6
  23003743.1814    -693631.09744
  21982716.6184    5798950.77346   4518653.83561
  19715637.8214  -23884557.67548 -18570410.18663
  20251404.6894  -22336959.70647 -17308215.83563
 91  5 13 21 17 29.9970000  0  4G13G19G 2G 6
  22990570.9314    -762856.12444
  21987984.3144    5826626.86846   4540219.59561
  19714072.5324  -23892785.73448 -18576821.65563
  20245748.446   -22366683.559 7 -17331377.25423
 91  5 13 21 17 44.9970000  0  4G13G19G 2G 6
  22977404.0794    -832048.31644
  21993261.5484    5854366.00946   4561834.46961
  19712518.454   -23900943.055 8 -18583177.99823
  20240101.782   -22396355.737 7 -17354498.41023
 91  5 13 21 17 59.9970000  0  4G13G19G 2G 6
  22964243.3604    -901210.75344        -0.35071
  21998552.345     5882164.701 5   4583495.76321
  19710979.8684  -23909033.16048 -18589481.96663
  20234466.064   -22425979.333 7 -17377581.71123
 91  5 13 21 18 14.9970000  0  4G13G19G 2G 6
  22951087.665     -970346.417 4    -53872.08021
  22003852.657     5910019.219 6   4605200.57421
  19709452.1654  -23917059.58048 -18595736.30563
  20228835.8214  -22455557.87547 -17400629.90063
 91  5 13 21 18 29.9970000  0  4G13G19G 2G 6
  22937935.0094   -1039453.08944   -107721.29061
  22009163.7594    5937931.61246   4626950.47661
  19707936.907   -23925020.447 8 -18601939.56823
  20223217.4234  -22485089.14647 -17423641.25463
 91  5 13 21 18 44.9970000  0  4G13G19G 2G 6
  22924793.0484   -1108538.60544   -161553.93361
  22014482.5244    5965893.58246   4648739.00961
  19706435.228   -23932924.286 8 -18608098.38623
  20217603.579   -22514581.268 7 -17446622.10123
 91  5 13 21 18 59.9970000  0  4G13G19G 2G 6
  22911650.228    -1177595.014 4   -215363.87521
  22019816.681     5993912.586 6   4670571.97221
  19704942.0564  -23940763.56648 -18614206.91063
  20212002.524   -22544026.488 7 -17469566.40523
 91  5 13 21 19 14.9970000  0  4G13G19G 2G 6
  22898511.0874   -1246619.95243   -269149.42361
  22025160.165     6021990.399 6   4692450.72721
  19703462.2904  -23948536.25248 -18620263.54163
  20206407.556   -22573422.639 7 -17492472.47623
 91  5 13 21 19 29.9970000  0  4G13G19G 2G 6
  22885387.7044   -1315615.68044   -322912.09661
  22030511.6034    6050124.31245   4714373.24961
  19701996.306   -23956245.319 8 -18626270.59323
  20200821.993   -22602772.298 7 -17515342.31723
 91  5 13 21 19 44.9970000  0  4G13G19G 2G 6
  22872255.6814   -1384579.07144   -376649.59061
  22035876.657     6078317.225 6   4736341.70621
  19700542.4074  -23963887.87148 -18632225.82063
  20195247.860   -22632072.365 7 -17538173.51223
 91  5 13 21 19 59.9970000  0  4G13G19G 2G 6
  22859142.181    -1453510.659 4   -430362.31121
  22041252.790     6106568.006 6   4758355.24621
  19699098.7824  -23971464.97148 -18638130.04563
  20189681.454   -22661323.620 7 -17560966.67823
 91  5 13 21 20 14.9970000  0  4G13G19G 2G 6
  22846024.9154   -1522411.63642   -484051.22061
  22046641.345     6134875.214 6   4780412.78121
  19697670.5954  -23978978.43048 -18643984.68063
  20184123.837   -22690527.509 7 -17583722.94123
 91  5 13 21 20 29.9970000  0  4G13G19G 2G 6
  22832924.1264   -1591278.61244   -537713.57461
  22052044.0874    6163241.58045   4802516.45061
  19696253.0244  -23986425.41348 -18649787.51563
  20178578.517   -22719680.811 7 -17606439.77323
 91  5 13 21 20 44.9970000  0  4G13G19G 2G 6
  22819824.2594   -1660114.47844   -591351.72061
  22057448.665     6191663.758 6   4824663.57221
  19694846.1184  -23993809.11848 -18655541.03963
  20173038.415   -22748786.665 7 -17629119.63423
 91  5 13 21 20 59.9970000  0  4G13G19G 2G 6
  22806733.5404   -1728918.45444   -644965.03561
  22062869.5874    6220142.32046   4846854.67161
  19693453.7204  -24001129.04948 -18661244.87063
  20167506.962   -22777844.282 7 -17651761.91323
 91  5 13 21 21 14.9960000  0  4G13G19G 2G 6
  22793645.176    -1797689.059 4   -698552.35021
  22068294.926     6248671.736 5   4869085.33521
  19692074.4184  -24008388.47848 -18666901.56163
  20161984.441   -22806855.125 7 -17674367.74523
 91  5 13 21 21 29.9960000  0  4G13G19G 2G 6
  22780563.0824   -1866435.71144   -752120.97061
  22073736.6294    6277254.91545   4891357.86361
  19690702.2704  -24015589.26348 -18672512.54963
  20156474.676   -22835823.656 7 -17696940.60123
 91  5 13 21 21 44.9960000  0  4G13G19G 2G 6
  22767490.7624   -1935149.86044   -805664.28861
  22079186.8094    6305893.71146   4913673.75361
  19689343.418   -24022727.421 8 -18678074.73823
  20150970.309   -22864744.197 7 -17719476.06823
 91  5 13 21 21 59.9960000  0  4G13G19G 2G 6
  22754416.2464   -2003827.21644   -859178.91061
  22084648.793     6334591.860 5   4936035.95221
  19688000.223   -24029799.098 8 -18683585.12423
  20145475.996   -22893612.625 7 -17741970.92923
 91  5 13 21 22 14.9960000  0  4G13G19G 2G 6
  22741359.0204   -2072471.00244   -912667.47561
  22090117.9654    6363345.78845   4958441.59961
  19686665.2704  -24036807.69948 -18689046.36163
  20139992.301   -22922432.239 7 -17764427.74623
 91  5 13 21 22 29.9960000  0  4G13G19G 2G 6
  22728300.9184   -2141084.63144   -966132.38961
  22095600.5124    6392151.53745   4980887.64161
  19685341.902   -24043757.435 8 -18694461.72923
  20134517.0664  -22951206.85147 -17786849.49963
 91  5 13 21 22 44.9960000  0  4G13G19G 2G 6
  22715241.434    -2209668.480 4
  22101088.926     6421008.125 5   5003373.22121
  19684031.2464  -24050648.98448 -18699831.75763
  20129050.551   -22979936.938 7 -17809236.55623
 91  5 13 21 22 59.9960000  0  4G13G19G 2G 6
  22702205.4414   -2278214.06244
  22106595.4184    6449923.59345   5025904.69161
  19682733.4494  -24057474.43948 -18705150.28063
  20123593.246   -23008614.326 7 -17831582.54923
 91  5 13 21 23 14.9960000  0  4G13G19G 2G 6
  22689164.0594   -2346722.24245
  22112105.6914    6478896.67945   5048481.09061
  19681445.426   -24064235.276 8 -18710418.45123
  20118145.488   -23037240.140 7 -17853888.35823
 91  5 13 21 23 29.9960000  0  4G13G19G 2G 6
  22676132.7154   -2415192.34644        -0.21371
  22117629.934     6507927.672 5   5071102.58821
  19680170.793   -24070931.206 8 -18715636.04823
  20112708.379   -23065813.767 7 -17876153.49623
 91  5 13 21 23 44.9960000  0  4G13G19G 2G 6
  22663111.0204   -2483626.68644    -53325.51661
  22123166.160     6537014.123 5   5093767.30221
  19678907.7464  -24077564.82548 -18720805.09163
  20107281.004   -23094337.540 7 -17898379.79223
 91  5 13 21 23 59.9960000  0  4G13G19G 2G 6
  22650102.020    -2552023.322 5   -106621.36721
  22128711.2544    6566157.39145   5116476.31461
  19677659.9104  -24084134.69648 -18725924.46263
  20101861.520   -23122809.744 7 -17920565.90023
 91  5 13 21 24 14.9960000  0  4G13G19G 2G 6
  22637089.348    -2620384.884 4   -159889.98021
  22134267.512     6595354.486 5   5139227.25821
  19676419.4184  -24090643.89948 -18730996.55463
  20096451.926   -23151233.172 7 -17942714.00223
 91  5 13 21 24 29.9960000  0  4G13G19G 2G 6
  22624088.934    -2688705.012 4   -213126.29621
  22139835.0594    6624611.17345   5162024.65261
  19675194.3634  -24097086.48248 -18736016.74063
  20091055.379   -23179601.798 7 -17964819.40523
 91  5 13 21 24 44.9960000  0  4G13G19G 2G 6
  22611093.2544   -2756981.10744   -266328.28661
  22145414.5594    6653929.62845   5184870.11061
  19673981.285   -24103460.530 8 -18740983.51323
  20085667.176   -23207913.212 7 -17986880.22523
 91  5 13 21 24 59.9960000  0  4G13G19G 2G 6
  22598110.5904   -2825222.27444   -319503.06861
  22151007.2544    6683300.21445   5207756.21461
  19672780.770   -24109775.683 8 -18745904.39723
  20080289.441   -23236176.750 7 -18008903.74023
 91  5 13 21 25 14.9960000  0  4G13G19G 2G 6
  22585130.0044   -2893424.50044   -372647.48861
  22156601.731     6712726.539 5   5230685.75921
  19671589.449   -24116028.177 8 -18750776.45923
  20074920.277   -23264388.560 7 -18030886.94823
 91  5 13 21 25 29.9960000  0  4G13G19G 2G 6
  22572160.2704   -2961589.06945   -425762.55661
  22162211.4964    6742206.94445   5253657.47261
  19670410.988   -24122219.932 8 -18755601.19123
  20069560.395   -23292550.133 7 -18052831.01223
 91  5 13 21 25 44.9960000  0  4G13G19G 2G 6
  22559198.5904   -3029713.08145   -478846.03861
  22167834.481     6771743.846 5   5276673.22121
  19669245.5984  -24128348.45248 -18760376.64863
  20064214.160   -23320658.706 7 -18074733.77623
 91  5 13 21 25 59.9960000  0  4G13G19G 2G 6
  22546244.9494   -3097789.36345   -531892.32661
  22173463.816     6801344.052 5   5299738.29521
  19668090.7934  -24134406.89948 -18765097.50963
  20058875.676   -23348707.163 7 -18096589.68823
 91  5 13 21 26 14.9960000  0  4G13G19G 2G 6
  22533294.363    -3165822.887 5   -584905.32221
  22179111.574     6831002.323 5   5322848.62021
  19666952.1064  -24140400.59648 -18769767.91263
  20053549.137   -23376700.655 7 -18118402.77923
 91  5 13 21 26 29.9960000  0  4G13G19G 2G 6
  22520356.3094   -3233819.27145   -637889.32261
  22184764.3794    6860712.24245   5345999.08161
  19665823.270   -24146335.886 8 -18774392.79623
  20048231.449   -23404645.338 7 -18140177.82723
 91  5 13 21 26 44.9960000  0  4G13G19G 2G 6
  22507423.3484   -3301778.68645   -690844.54661
  22190425.1134    6890473.09445   5369189.27661
  19664702.2624  -24152213.68048 -18778972.88663
  20042922.145   -23432541.650 7 -18161915.18923
 91  5 13 21 26 59.9960000  0  4G13G19G 2G 6
  22494499.2934   -3369694.38545   -743765.72961
  22196102.207     6920291.438 5   5392424.34321
  19663597.504   -24158027.477 8 -18783503.10423
  20037624.356   -23460382.626 7 -18183609.42723
 91  5 13 21 27 14.9960000  0  4G13G19G 2G 6
  22481586.4024   -3437568.99545   -796654.84261
  22201784.645     6950164.179 5   5415701.75321
  19662503.6844  -24163780.31948 -18787985.83263
  20032337.184   -23488171.181 7 -18205262.83023
 91  5 13 21 27 29.9960000  0  4G13G19G 2G 6
  22468677.309    -3505398.170 5   -849508.62421
  22207480.9734    6980095.17345   5439024.59261
  19661419.676   -24169468.143 8 -18792417.88223
  20027060.145   -23515903.135 7 -18226872.11723
 91  5 13 21 27 44.9960000  0  4G13G19G 2G 6
  22455776.8404   -3573188.08945   -902331.76861
  22213188.762     7010077.390 5   5462387.34721
  19660352.5434  -24175098.01748 -18796804.78963
  20021791.066   -23543585.291 7 -18248442.60623
 91  5 13 21 27 59.9960000  0  4G13G19G 2G 6
  22442887.5904   -3640932.93445   -955119.76361
  22218906.152     7040116.730 5   5485794.54921
  19659289.2314  -24180664.21848 -18801142.07363
  20016532.770   -23571211.500 7 -18269969.50223
 91  5 13 21 28 14.9960000  0  4G13G19G 2G 6
  22430000.0044   -3708635.83545  -1007875.15061
  22224629.3714    7070209.56445   5509243.45261
  19658241.3874  -24186170.45048 -18805432.63463
  20011286.973   -23598785.193 7 -18291455.47323
 91  5 13 21 28 29.9960000  0  4G13G19G 2G 6
  22417125.113    -3776295.548 5  -1060596.82421
  22230367.902     7100356.542 5   5532734.62021
  19657205.027   -24191615.974 8 -18809675.88623
  20006050.316   -23626305.418 7 -18312899.78123
 91  5 13 21 28 44.9960000  0  4G13G19G 2G 6
  22404259.621    -3843907.785 5  -1113281.53221
  22236113.9814    7130561.48145   5556270.91161
  19656181.4494  -24196996.95248 -18813868.84863
  20000824.9654  -23653768.04347 -18334299.20263
 91  5 13 21 28 59.9960000  0  4G13G19G 2G 6
  22391401.895    -3911474.468 5  -1165930.72421
  22241874.824     7160822.021 5   5579850.48721
  19655169.762   -24202315.883 8 -18818013.45923
  19995608.449   -23681175.259 7 -18355655.45323
 91  5 13 21 29 14.9960000  0  4G13G19G 2G 6
  22378550.6764   -3978997.64545  -1218546.04561
  22247642.074     7191135.465 5   5603471.34021
  19654167.8794  -24207575.55548 -18822111.89163
  19990401.902   -23708529.546 7 -18376970.45923
 91  5 13 21 29 29.9960000  0  4G13G19G 2G 6
  22365712.4494   -4046479.66645  -1271129.28361
  22253419.1604    7221499.47145   5627131.56561
  19653179.488   -24212778.351 8 -18826166.00423
  19985208.9104  -23735832.92547 -18398245.79163
 91  5 13 21 29 44.9960000  0  4G13G19G 2G 6
  22352879.0984   -4113912.05745  -1323673.79161
  22259208.262     7251921.918 5   5650837.27021
  19652199.8794  -24217916.23348 -18830169.53963
  19980023.2774  -23763077.11347 -18419475.00063
 91  5 13 21 29 59.9960000  0  5G13G15G19G 2G 6
  22340060.2464   -4181291.67345  -1376177.22561
  23169215.7624         -0.07755
  22265009.895     7282405.705 5   5674590.87621
  19651236.5514  -24222986.42348 -18834120.33163
  19974849.7934  -23790259.16947 -18440655.79763
 91  5 13 21 30 14.9960000  0  5G13G15G19G 2G 6
  22327243.652    -4248629.838 5  -1428648.41321
  23163769.1214     -28624.35245
  22270816.6064    7312938.63845   5698382.73761
  19650281.9344  -24228001.06148 -18838027.82363
  19969686.7774  -23817390.94847 -18461797.42063
 91  5 13 21 30 29.9960000  0  5G13G15G19G 2G 6
  22314437.246    -4315918.999 5  -1481081.35721
  23158343.9734     -57140.96145
  22276642.332     7343527.794 5   5722218.40621
  19649338.4734  -24232952.99448 -18841886.46464
  19964534.926   -23844465.043 7 -18482894.09223
 91  5 13 21 30 44.9960000  0  5G13G15G19G 2G 6
  22301639.379    -4383167.691 5  -1533482.74721
  23152935.402      -85558.637 5
  22282469.3634    7374164.22945   5746090.93061
  19648408.457   -24237851.217 8 -18845703.24623
  19959391.6914  -23871490.03847 -18503952.49163
 91  5 13 21 30 59.9960000  0  5G13G15G19G 2G 6
  22288856.3714   -4450364.32345  -1585843.62161
  23147544.879     -113865.397 5
  22288313.191     7404859.447 5   5770009.24121
  19647487.6454  -24242684.41348 -18849469.35464
  19954263.512   -23898454.409 7 -18524963.66423
 91  5 13 21 31 14.9960000  0  5G13G15G19G 2G 6
  22276075.7154   -4517515.75445  -1638169.22261
  23142178.004     -142068.310 5        -0.00531
  22294165.7314    7435605.97245   5793967.58661
  19646580.520   -24247460.020 8 -18853190.60323
  19949141.027   -23925365.241 7 -18545933.12123
 91  5 13 21 31 29.9960000  0  5G13G15G19G 2G 6
  22263309.676    -4584611.496 5  -1690451.46621
  23136828.770     -170157.165 5    -21887.37421
  22300023.6064    7466413.63345   5817973.51261
  19645681.4104  -24252168.09248 -18856859.22163
  19944033.5274  -23952212.27947 -18566852.86563
 91  5 13 21 31 44.9960000  0  5G13G15G19G 2G 6
  22250549.215    -4651660.215 5  -1742697.04421
  23131512.106     -198140.824 5    -43692.79921
  22305897.793     7497273.360 5   5842019.99821
  19644799.793   -24256817.856 8 -18860482.40024
  19938933.2464  -23979004.47747 -18587729.87163
 91  5 13 21 31 59.9960000  0  5G13G15G19G 2G 6
  22237800.418    -4718660.395 5  -1794904.82921
  23126208.2544    -226017.82445    -65415.09261
  22311783.6134    7528186.07845   5866107.82461
  19643924.0354  -24261408.11948 -18864059.21964
  19933845.1764  -24005740.49447 -18608563.10463
 91  5 13 21 32 14.9960000  0  5G13G15G19G 2G 6
  22225060.426    -4785608.806 5  -1847072.24821
  23120920.488     -253785.091 5    -87051.90321
  22317672.2384    7559154.76945   5890239.21561
  19643063.8714  -24265936.17848 -18867587.56664
  19928769.6374  -24032417.29347 -18629350.19063
 91  5 13 21 32 29.9960000  0  5G13G15G19G 2G 6
  22212326.449    -4852507.775 5  -1899201.13821
  23115653.4494    -281444.84945   -108604.89861
  22323577.199     7590176.759 5   5914412.13321
  19642211.3014  -24270404.81048 -18871069.61064
  19923704.1844  -24059037.30047 -18650093.02563
 91  5 13 21 32 44.9960000  0  5G13G15G19G 2G 6
  22199604.027    -4919358.981 5  -1951292.85321
  23110416.996     -308998.810 5   -130075.46721
  22329488.6764    7621249.87545   5938624.95561
  19641373.027   -24274816.059 8 -18874506.93723
  19918649.004   -24085602.264 7 -18670792.97323
 91  5 13 21 32 59.9960000  0  5G13G15G19G 2G 6
  22186893.691    -4986159.803 5  -2003345.28221
  23105188.004     -336444.558 5   -151461.69921
  22335416.731     7652376.189 5   5962879.13821
  19640543.5594  -24279167.92348 -18877897.98963
  19913605.1134  -24112109.88247 -18691448.23163
 91  5 13 21 33 14.9960000  0  5G13G15G19G 2G 6
  22174197.0984   -5052915.10245  -2055362.21261
  23099990.3164    -363787.04745   -172767.50261
  22341342.8404    7683550.57345   5987170.82061
  19639729.9414  -24283465.63848 -18881246.84663
  19908568.699   -24138565.019 7 -18712062.59423
 91  5 13 21 33 29.9960000  0  5G13G15G19G 2G 6
  22161498.082    -5119621.322 5  -2107340.92921
  23094803.7624    -391022.87245   -193990.20261
  22347285.246     7714776.059 5   6011502.38421
  19638920.074   -24287706.009 8 -18884551.01823
  19903547.277   -24164964.520 7 -18732633.61323
 91  5 13 21 33 44.9960000  0  5G13G15G19G 2G 6
  22148814.6294   -5186276.40045  -2159279.78761
  23089643.762     -418150.332 5   -215128.43421
  22353239.676     7746053.886 5   6035874.70421
  19638128.0744  -24291887.54248 -18887809.34964
  19898532.910   -24191306.400 7 -18753159.72623
 91  5 13 21 33 59.9960000  0  5G13G15G19G 2G 6
  22136138.434    -5252880.946 5  -2211179.24821
  23084494.957     -445170.029 5   -236182.71221
  22359204.3794    7777382.90045   6060286.86761
  19637338.1524  -24296011.41848 -18891022.74363
  19893533.0514  -24217591.58247 -18773641.65863
 91  5 13 21 34 14.9960000  0  5G13G15G19G 2G 6
  22123473.1134   -5319427.66445  -2263033.69261
  23079386.3564    -472074.46445   -257147.17761
  22365172.887     7808770.352 5   6084744.59721
  19636569.441   -24300070.644 8 -18894185.76823
  19888541.9964  -24243812.77847 -18794073.73063
 91  5 13 21 34 29.9960000  0  5G13G15G19G 2G 6
  22110822.8484   -5385918.06345  -2314844.22461
  23074281.2314    -498865.49645   -278023.25761
  22371162.895     7840214.113 5   6109246.17221
  19635805.3954  -24304067.40048 -18897300.10763
  19883562.9574  -24269971.75747 -18814457.31863
 91  5 13 21 34 44.9960000  0  5G13G15G19G 2G 6
  22098178.9494   -5452362.14145  -2366618.66861
  23069202.3094    -525553.03845   -298818.71061
  22377149.9654    7871703.98445   6133783.68861
  19635059.4104  -24308011.86448 -18900373.71263
  19878596.160   -24296078.553 7 -18834800.24623
 91  5 13 21 34 59.9960000  0  5G13G15G19G 2G 6
  22085546.6764   -5518746.03145  -2418346.21461
  23064149.1604    -552123.63545   -319523.03361
  22383156.090     7903253.337 5   6158367.55321
  19634315.2074  -24311890.66948 -18903396.14363
  19873639.926   -24322119.486 7 -18855091.85923
 91  5 13 21 35 14.9960000  0  5G13G15G19G 2G 6
  22072923.629    -5585085.212 5  -2470038.91821
  23059109.777     -578592.909 5   -340148.37421
  22389167.215     7934846.119 5   6182985.25021
  19633591.0664  -24315719.96048 -18906380.00063
  19868693.8244  -24348110.38247 -18875344.47763
 91  5 13 21 35 29.9960000  0  5G13G15G19G 2G 6
  22060309.887    -5651364.376 5  -2521684.86821
  23054097.3164    -604945.35645   -360682.72061
  22395189.723     7966497.232 5   6207648.46421
  19632870.3014  -24319484.86348 -18909313.68163
  19863760.715   -24374036.044 7 -18895546.26823
 91  5 13 21 35 44.9960000  0  5G13G15G19G 2G 6
  22047706.7854   -5717584.86245  -2573285.10261
  23049109.5274    -631182.37645   -381127.08861
  22401221.449     7998204.900 5   6232355.69621
  19632168.902   -24323186.923 8 -18912198.39123
  19858839.152   -24399897.891 7 -18915698.33223
 91  5 13 21 35 59.9960000  0  5G13G15G19G 2G 6
  22035114.7384   -5783748.72045  -2624841.18461
  23044136.129     -657306.358 5   -401483.40621
  22407266.199     8029966.573 5   6257104.99621
  19631473.8794  -24326828.79048 -18915036.19863
  19853929.340   -24425698.203 7 -18935802.44923
 91  5 13 21 36 14.9960000  0  5G13G15G19G 2G 6
  22022536.0354   -5849862.08345  -2676357.95161
  23039183.3874    -683323.42645   -421756.39561
  22413320.699     8061775.678 5   6281891.32521
  19630791.652   -24330417.040 8 -18917832.22723
  19849031.551   -24451443.259 7 -18955863.50523
 91  5 13 21 36 29.9960000  0  5G13G15G19G 2G 6
  22009965.941    -5915918.939 5  -2727830.68821
  23034249.5354    -709227.96245   -441941.70861
  22419384.738     8093637.665 5   6306718.82121
  19630120.895   -24333946.163 8 -18920582.18524
  19844143.9884  -24477127.24247 -18975876.96863
 91  5 13 21 36 44.9960000  0  5G13G15G19G 2G 6
  21997406.231    -5981919.655 5  -2779259.67421
  23029344.871     -735020.461 5   -462039.73621
  22425456.0824    8125551.65945   6331586.79961
  19629459.5594  -24337417.21148 -18923286.88563
  19839268.512   -24502750.978 7 -18995843.49123
 91  5 13 21 36 59.9960000  0  5G13G15G19G 2G 6
  21984853.5904   -6047870.71145  -2830649.95561
  23024452.387     -760707.480 5
  22431536.856     8157510.572 5   6356489.82621
  19628811.106   -24340836.941 8 -18925951.60023
  19834400.1684  -24528320.94447
 91  5 13 21 37 14.9960000  0  5G13G15G19G 2G 6
  21972317.223    -6113765.010 5  -2881996.00121
  23019587.2934    -786281.95145
  22437628.7934    8189521.27945   6381433.20061
  19628169.8094  -24344198.80248 -18928571.22364
  19829546.6994  -24553830.15947
 91  5 13 21 37 29.9960000  0  5G13G15G19G 2G 6
  21959788.902    -6179602.475 5  -2933297.80921
  23014738.2384    -811743.90245
  22443731.7074    8221583.19545   6406416.44861
  19627541.2074  -24347503.14548 -18931146.02663
  19824704.6454  -24579278.74447
 91  5 13 21 37 44.9960000  0  5G13G15G19G 2G 6
  21947268.6064   -6245382.96845  -2984555.16861
  23009914.2544    -837093.06945
  22449841.3164    8253696.05845   6431439.44961
  19626923.2384  -24350750.24348 -18933676.22563
  19819873.2624  -24604666.70447
 91  5 13 21 37 59.9960000  0  5G13G15G19G 2G 6
  21934763.2314   -6311102.39845  -3035764.97561
  23005120.535     -862325.529 5   -561238.79121
  22455962.402     8285863.702 5   6456505.06321
  19626318.2774  -24353936.41148 -18936158.94464
  19815054.3244  -24629990.03447 -19094990.67163
 91  5 13 21 38 14.9960000  0  5G13G15G19G 2G 6
  21922267.2154   -6376768.48345  -3086933.21061
  23000345.145     -887449.237 5   -580815.65721
  22462093.6684    8318078.03445   6481607.12361
  19625720.9494  -24357069.93348 -18938600.63864
  19810244.613   -24655256.736 7 -19114678.99123
 91  5 13 21 38 29.9960000  0  5G13G15G19G 2G 6
  21909781.723    -6442380.573 5  -3138059.37321
  22995572.2934    -912463.86345   -600307.52361
  22468233.379     8350338.921 5   6506745.48321
  19625133.824   -24360150.491 7 -18941001.05824
  19805448.270   -24680466.298 7 -19134322.78423
 91  5 13 21 38 44.9960000  0  5G13G15G19G 2G 6
  21897309.395    -6507933.945 5  -3189139.80221
  22990843.0594    -937364.78245   -619710.79561
  22474380.621     8382650.756 5   6531923.46321
  19624559.0514  -24363173.73247 -18943356.81964
  19800663.715   -24705614.104 7 -19153918.45123
 91  5 13 21 38 59.9960000  0  5G13G15G19G 2G 6
  21884847.6064   -6573419.54845  -3240167.42661
  22986129.504     -962142.993 5   -639018.44321
  22480540.324     8415022.196 5   6557147.90821
  19623995.6604  -24366131.05847 -18945661.21964
  19795891.879   -24730691.378 7 -19173459.15723
 91  5 13 21 39 14.9960000  0  5G13G15G19G 2G 6
  21872396.473    -6638845.806 5  -3291148.77521
  22981428.668     -986807.067 5   -658237.15221
  22486710.5594    8447444.41145   6582411.93061
  19623444.551   -24369031.449 8 -18947921.25724
  19791130.043   -24755706.567 7 -19192951.49523
 91  5 13 21 39 29.9960000  0  5G13G15G19G 2G 6
  21859956.6374   -6704208.49245  -3342080.59661
  22976767.231    -1011352.859 5   -677363.71021
  22492889.9104    8479921.15145   6607718.46361
  19622904.3954  -24371871.22548 -18950134.06364
  19786383.699   -24780655.707 7 -19212392.36523
 91  5 13 21 39 44.9960000  0  5G13G15G19G 2G 6
  21847530.8564   -6769515.82045  -3392969.30461
  22972110.387    -1035788.721 5   -696404.58821
  22499078.1684    8512443.60545   6633060.56061
  19622374.9734  -24374658.98548 -18952306.33064
  19781646.215   -24805547.162 7 -19231788.27923
 91  5 13 21 39 59.9960000  0  5G13G15G19G 2G 6
  21835115.387    -6834760.741 5  -3443809.38721
  22967486.762    -1060107.961 5   -715354.60821
  22505278.051     8545018.186 5   6658443.33221
  19621855.0354  -24377388.42347 -18954433.15963
  19776922.598   -24830374.241 7 -19251134.03423
 91  5 13 21 40 14.9960000  0  5G13G15G19G 2G 6
  21822712.3874   -6899944.83745  -3494602.05661
  22962872.902    -1084312.076 5   -734214.91921
  22511486.1994    8577642.93945   6683865.21761
  19621346.6914  -24380061.47448 -18956516.04764
  19772210.926   -24855138.429 7 -19270430.78223
 91  5 13 21 40 29.9960000  0  5G13G15G19G 2G 6
  21810319.4264   -6965057.64745  -3545339.18061
  22958290.3484   -1108390.62645   -752977.38061
  22517707.5744    8610328.24645   6709334.29461
  19620849.1134  -24382667.75248 -18958546.90464
  19767511.223   -24879829.462 7 -19289670.52423
 91  5 13 21 40 44.9960000  0  5G13G15G19G 2G 6
  21797937.6524   -7030112.35745  -3596031.03161
  22953736.074    -1132356.820 5   -771652.29321
  22523933.9414    8643060.35745   6734839.77561
  19620366.0984  -24385220.72448 -18960536.22563
  19762823.387   -24904460.529 7 -19308863.53623
 91  5 13 21 40 59.9960000  0  5G13G15G19G 2G 6
  21785572.754    -7095102.469 5  -3646672.53621
  22949201.129    -1156204.690 5   -790235.03021
  22530173.066     8675844.929 5   6760386.12921
  19619888.3634  -24387714.82848 -18962479.67564
  19758148.926   -24929025.684 7 -19328005.19423
 91  5 13 21 41 14.9960000  0  5G13G15G19G 2G 6
  21773219.824    -7160028.928 5  -3697264.47421
  22944679.363    -1179935.246 5   -808726.32921
  22536420.7074    8708680.82045   6785972.49261
  19619424.6524  -24390151.62448 -18964378.47064
  19753486.770   -24953526.011 7 -19347096.33423
 91  5 13 21 41 29.9960000  0  5G13G15G19G 2G 6
  21760878.6294   -7224896.01445  -3747810.10261
  22940184.527    -1203552.940 5   -827129.69121
  22542677.723     8741563.112 5   6811595.04121
  19618971.9264  -24392535.83047 -18966236.28364
  19748836.332   -24977965.886 7 -19366140.37723
 91  5 13 21 41 44.9960000  0  5G13G15G19G 2G 6
  21748541.7934   -7289699.75345  -3798306.41361
  22935706.981    -1227053.663 5   -845441.89321
  22548948.4494    8774495.37845   6837256.50161
  19618528.9344  -24394863.63848 -18968050.15363
  19744197.988   -25002341.364 7 -19385134.23523
 91  5 13 21 41 59.9960000  0  5G13G15G19G 2G 6
  21736221.715    -7354433.660 5  -3848748.27621
  22931254.793    -1250431.086 5   -863658.05121
  22555225.0984    8807483.67345   6862961.59461
  19618097.1994  -24397129.05148 -18969815.39863
  19739573.340   -25026646.219 7 -19404073.07223
 91  5 13 21 42 14.9960000  0  5G13G15G19G 2G 6
  21723915.2934   -7419101.12745  -3899138.39961
  22926836.1214   -1273688.99245   -881781.04461
  22561511.4414    8840524.20945   6888707.42361
  19617677.0354  -24399335.93348 -18971535.03963
  19734959.1214  -25050883.92447 -19422959.58063
 91  5 13 21 42 29.9960000  0  5G13G15G19G 2G 6
  21711624.238    -7483702.858 5  -3949477.27421
  22922428.6844   -1296827.92345   -899811.31761
  22567809.4964    8873615.74445   6914493.04861
  19617267.7234  -24401485.30948 -18973209.87464
  19730361.395   -25075055.383 7 -19441794.46423
 91  5 13 21 42 44.9960000  0  5G13G15G19G 2G 6
  21699344.543    -7548240.398 5  -3999766.12421
  22918067.645    -1319849.836 5   -917750.45321
  22574118.020     8906756.265 5   6940316.81121
  19616868.777   -24403579.326 8 -18974841.56324
  19725773.1064  -25099162.32647 -19460579.08163
 91  5 13 21 42 59.9960000  0  5G13G15G19G 2G 6
  21687072.957    -7612715.554 5  -4050006.38521
  22913681.3634   -1342756.54345   -935599.81061
  22580431.1844    8939943.60045   6966177.03861
  19616482.7774  -24405620.22948 -18976431.86864
  19721197.059   -25123206.532 7 -19479314.80623
 91  5 13 21 43 14.9960000  0  5G13G15G19G 2G 6
  21674815.4264   -7677127.96245  -4100197.74161
  22909360.5204   -1365547.87145   -953359.22761
  22586753.1914    8973177.57645   6992073.62061
  19616103.8324  -24407608.13848 -18977980.88064
  19716635.465   -25147187.938 7 -19498001.59823
 91  5 13 21 43 29.9960000  0  5G13G15G19G 2G 6
  21662567.676    -7741480.979 5  -4150342.80821
  22905037.457    -1388227.592 5   -971031.68321
  22593087.0044    9006454.03045   7018003.28761
  19615733.5594  -24409546.98448 -18979491.66164
  19712081.832   -25171110.378 7 -19516642.43823
 91  5 13 21 43 44.9960000  0  5G13G15G19G 2G 6
  21650337.770    -7805770.288 5  -4200438.27421
  22900742.879    -1410791.418 5   -988613.83821
  22599427.145     9039777.066 5   7043969.26321
  19615376.6604  -24411432.79648 -18980961.11464
  19707541.934   -25194969.536 7 -19535233.97423
 91  5 13 21 43 59.9960000  0  5G13G15G19G 2G 6
  21638113.098    -7869993.303 5  -4250482.03721
  22896473.7314   -1433236.83745  -1006103.75361
  22605778.1064    9073148.98845   7069973.33961
  19615028.8014  -24413263.30248 -18982387.48064
  19703013.4024  -25218762.87547 -19553774.22663
 91  5 13 21 44 14.9960000  0  5G13G15G19G 2G 6
  21625902.840    -7934160.570 5  -4300482.38821
  22892228.1844   -1455574.40945  -1023509.59761
  22612135.137     9106558.758 5   7096006.89321
  19614686.6374  -24415049.53048 -18983779.33563
  19698495.387   -25242500.903 7 -19572271.36723
 91  5 13 21 44 29.9960000  0  5G13G15G19G 2G 6
  21613708.1064   -7998253.93245  -4350425.16161
  22888005.8564   -1477786.17045  -1040817.43361
  22618511.191     9140023.848 5   7122083.53821
  19614359.3874  -24416773.95648 -18985123.03564
  19693993.121   -25266165.915 7 -19590711.61923
 91  5 13 21 44 44.9960000  0  5G13G15G19G 2G 6
  21601526.238    -8062278.865 5  -4400314.59021
  22883784.1134   -1499877.62145  -1058031.50961
  22624882.4654    9173538.41445   7148198.77461
  19614041.3564  -24418442.34848 -18986423.07564
  19689501.731   -25289763.458 7 -19609099.30123
 91  5 13 21 44 59.9960000  0  5G13G15G19G 2G 6
  21589354.8794   -8126236.38945  -4450151.49461
  22879613.3164   -1521850.21945  -1075152.97061
  22631266.6764    9207100.81145   7174351.29361
  19613736.1134  -24420056.35348 -18987680.72964
  19685024.551   -25313294.785 7 -19627435.38323
 91  5 13 21 45 14.9960000  0  5G13G15G19G 2G 6
  21577196.6994   -8190125.02545  -4499934.72261
  22875454.8404   -1543702.30345  -1092180.52761
  22637665.8484    9240712.17045   7200541.94061
  19613438.9734  -24421614.83548 -18988895.12364
  19680560.137   -25336758.504 7 -19645718.78223
 91  5 13 21 45 29.9960000  0  5G13G15G19G 2G 6
  21565052.082    -8253939.310 5  -4549660.00721
  22871325.9964   -1565428.69045  -1109110.15461
  22644075.4184    9274377.69345   7226774.81361
  19613151.7624  -24423112.77048 -18990062.33464
  19676110.629   -25360149.267 7 -19663945.32423
 91  5 13 21 45 44.9960000  0  5G13G15G19G 2G 6
  21552922.465    -8317686.289 5  -4599332.87721
  22867212.0044   -1587036.58845  -1125947.41661
  22650486.504     9308089.793 5   7253043.97921
  19612877.5354  -24424557.53648 -18991188.11664
  19671670.738   -25383474.233 7 -19682120.60623
 91  5 13 21 45 59.9960000  0  5G13G15G19G 2G 6
  21540799.2074   -8381359.21845  -4648948.02661
  22863123.043    -1608519.462 5  -1142687.27821
  22656914.0664    9341854.62945   7279354.24161
  19612612.9494  -24425942.85648 -18992267.57764
  19667245.199   -25406726.866 7 -19700239.52223
 91  5 13 21 46 14.9960000  0  5G13G15G19G 2G 6
  21528701.5274   -8444960.39145  -4698507.24761
  22859049.5354   -1629879.78645  -1159331.65361
  22663345.301     9375669.256 5   7305703.28921
  19612362.8014  -24427271.79448 -18993303.10663
  19662834.504   -25429909.738 7 -19718304.06823
 91  5 13 21 46 29.9960000  0  5G13G15G19G 2G 6
  21516611.9024   -8508491.07045  -4748011.56361
  22855016.3874   -1651119.34945  -1175881.93161
  22669792.5354    9409531.94044   7332089.79061
  19612119.590   -24428545.877 8 -18994295.88524
  19658436.668   -25453024.336 7 -19736315.41923
 91  5 13 21 46 44.9960000  0  5G13G15G19G 2G 6
  21504535.0514   -8571950.36745  -4797460.23461
  22850999.5044   -1672236.97045  -1192337.17861
  22676241.801     9443443.524 5   7358514.37821
  19611887.4884  -24429764.20648 -18995245.22364
  19654050.066   -25476069.649 7 -19754272.78623
 91  5 13 21 46 59.9960000  0  5G13G15G19G 2G 6
  21492470.965    -8635342.330 5  -4846856.46221
  22847000.285    -1693236.610 5  -1208700.48321
  22682707.379     9477399.197 5   7384973.33021
  19611663.801   -24430931.673 8 -18996154.92523
  19649677.902   -25499049.879 7 -19772179.43923
 91  5 13 21 47 14.9960000  0  5G13G15G19G 2G 6
  21480422.7934   -8698661.00245  -4896195.56761
  22843025.941    -1714112.431 5  -1224967.33421
  22689178.8484    9511404.76345   7411471.18661
  19611453.504   -24432042.546 8 -18997020.52924
  19645318.512   -25521959.177 7 -19790030.81723
 91  5 13 21 47 29.9960000  0  5G13G15G19G 2G 6
  21468386.9734   -8761908.31045  -4945479.06961
  22839083.941    -1734866.923 5  -1241139.63221
  22695655.3324    9545457.75744   7438005.97161
  19611252.6764  -24433099.28048 -18997843.94763
  19640969.981   -25544799.752 7 -19807828.64723
 91  5 13 21 47 44.9960000  0  5G13G15G19G 2G 6
  21456367.6454   -8825087.87846  -4994709.77761
  22835155.106    -1755503.957 5  -1257220.39121
  22702145.207     9579553.861 5   7464574.34021
  19611059.8874  -24434106.24048 -18998628.57963
  19636636.918   -25567575.376 7 -19825575.86523
 91  5 13 21 47 59.9960000  0  5G13G15G19G 2G 6
  21444358.449    -8888198.498 6  -5043886.77521
  22831252.3324   -1776022.45845  -1273208.78961
  22708642.7384    9613693.60445   7491176.73961
  19610878.238   -24435062.427 8 -18999373.64524
  19632316.410   -25590285.118 7 -19843271.74323
 91  5 13 21 48 14.9960000  0  5G13G15G19G 2G 6
  21432358.4494   -8951236.47846  -5093007.15861
  22827369.4184   -1796418.64745  -1289101.90761
  22715148.0824    9647880.57945   7517815.95361
  19610708.5514  -24435964.64848 -19000076.66863
  19628006.488   -25612925.350 7 -19860913.46423
 91  5 13 21 48 29.9960000  0  5G13G15G19G 2G 6
  21420375.832    -9014201.210 5  -5142070.48521
  22823503.6374   -1816692.11845  -1304899.36961
  22721661.4964    9682114.69744   7544491.89161
  19610545.574   -24436812.656 8 -19000737.44023
  19623713.223   -25635495.614 7 -19878500.66423
 91  5 13 21 48 44.9960000  0  5G13G15G19G 2G 6
  21408412.293    -9077088.035 6  -5191073.07321
  22819677.793    -1836838.462 5  -1320597.78021
  22728184.8244    9716400.37345   7571208.01361
  19610393.7774  -24437602.07848 -19001352.55963
  19619432.129   -25657991.182 7 -19896029.64823
 91  5 13 21 48 59.9960000  0  5G13G15G19G 2G 6
  21396459.199    -9139899.849 6  -5240017.25021
  22815865.223    -1856860.874 5  -1336199.62021
  22734720.566     9750734.136 5   7597961.57821
  19610254.395   -24438336.370 8 -19001924.72223
  19615165.988   -25680415.357 7 -19913503.00823
 91  5 13 21 49 14.9960000  0  5G13G15G19G 2G 6
  21384519.3954   -9202638.50246  -5288904.39361
  22812070.2234   -1876761.28145  -1351706.38861
  22741262.8164    9785113.42545   7624750.62961
  19610128.207   -24439018.141 8 -19002455.96623
  19610911.2314  -25702770.24647 -19930922.37563
 91  5 13 21 49 29.9960000  0  5G13G15G19G 2G 6
  21372596.629    -9265302.080 6  -5337733.03721
  22808313.332    -1896537.641 5  -1367116.51421
  22747810.0274    9819540.05744   7651576.55261
  19610006.0664  -24439645.37948 -19002944.71163
  19606669.652   -25725053.911 7 -19948286.24523
 91  5 13 21 49 44.9960000  0  5G13G15G19G 2G 6
  21360683.762    -9327890.234 6  -5386502.92121
  22804567.637    -1916189.842 5  -1382429.86121
  22754373.3634    9854013.87645   7678439.25861
  19609897.535   -24440218.495 8 -19003391.28223
  19602443.238   -25747266.094 7 -19965594.41223
 91  5 13 21 49 59.9960000  0  5G13G15G19G 2G 6
  21348787.9654   -9390403.93846  -5435214.80161
  22800865.535    -1935719.189 5  -1397647.51921
  22760940.9344    9888533.41144   7705337.60761
  19609800.5124  -24440738.78448 -19003796.69263
  19598230.395   -25769407.924 7 -19982847.76223
 91  5 13 21 50 14.9960000  0  5G13G15G19G 2G 6
  21336907.160    -9452840.120 6  -5483866.25521
  22797163.363    -1955122.995 5  -1412767.33221
  22767519.0904    9923101.28345   7732273.61561
  19609710.223   -24441203.811 8 -19004159.03523
  19594029.660   -25791476.508 7 -20000044.04123
 91  5 13 21 50 29.9960000  0  5G13G15G19G 2G 6
  21325040.0904   -9515201.25146  -5532459.24061
  22793496.8404   -1974403.60745  -1427791.14161
  22774109.332     9957714.325 5   7759244.80921
  19609630.0664  -24441616.39848 -19004480.52563
  19589842.926   -25813474.520 7 -20017185.32323
 91  5 13 21 50 44.9960000  0  5G13G15G19G 2G 6
  21313188.871    -9577486.981 6  -5580993.46321
  22789848.973    -1993561.032 5  -1442718.97921
  22780701.059     9992372.527 5   7786251.18221
  19609561.309   -24441976.586 8 -19004761.17323
  19585671.6064  -25835401.68947 -20034271.40463
 91  5 13 21 50 59.9960000  0  5G13G15G19G 2G 6
  21301350.1994   -9639691.63746  -5629464.52861
  22786223.941    -2012589.751 5  -1457546.51821
  22787303.9414   10027080.98045   7813296.72461
  19609506.9344  -24442279.29348 -19004997.04063
  19581512.457   -25857252.629 7 -20051298.08323
 91  5 13 21 51 14.9960000  0  5G13G15G19G 2G 6
  21289528.5124   -9701822.61646  -5677878.15961
  22782636.8014   -2031497.10445  -1472279.48461
  22793919.1214   10061832.03944   7840375.48161
  19609459.410   -24442532.222 8 -19005194.11323
  19577369.395   -25879034.765 7 -20068271.15323
 91  5 13 21 51 29.9960000  0  5G13G15G19G 2G 6
  21277719.434    -9763877.537 6  -5726232.53421
  22779054.566    -2050281.212 5  -1486916.39921
  22800541.129    10096627.436 4   7867488.75521
  19609419.1524  -24442733.39248 -19005350.85863
  19573237.629   -25900746.035 7 -20085189.00323
 91  5 13 21 51 44.9960000  0  5G13G15G19G 2G 6
  21265924.770    -9825849.707 6  -5774522.44821
  22775510.004    -2068935.754 5  -1501452.38321
  22807172.121    10131473.392 4   7894641.44521
  19609393.098   -24442876.666 8
  19569119.3634  -25922379.89947 -20102046.53263
 91  5 13 21 51 59.9960000  0  5G13G15G19G 2G 6
  21254147.957    -9887739.413 6  -5822748.07821
  22771980.3244   -2087460.75045  -1515887.40761
  22813815.1914   10166369.14644   7921832.94061
  19609373.410   -24442962.659 8
  19565017.668   -25943936.656 7 -20118843.97923
 91  5 13 21 52 14.9960000  0  5G13G15G19G 2G 6
  21242387.160    -9949541.962 6  -5870905.80121
  22768476.082    -2105851.657 5  -1530217.95021
  22820462.5744   10201319.03644   7949066.62961
  19609369.160   -24442987.160 8
  19560931.590   -25965411.803 7 -20135577.83423
 91  5 13 21 52 29.9960000  0  5G13G15G19G 2G 6
  21230641.301   -10011263.616 6  -5919000.49521
  22765008.3714   -2124114.77945  -1544448.91461
  22827123.7154   10236316.51145   7976337.36861
  19609377.629   -24442956.603 8
  19556858.738   -25986811.613 7 -20152252.99023
 91  5 13 21 52 44.9960000  0  5G13G15G19G 2G 6
  21218911.426   -10072907.979 6  -5967034.95921
  22761547.9344   -2142254.25545  -1558583.52961
  22833791.988    10271357.401 4   8003641.96321
  19609391.949   -24442875.176 8
  19552801.910   -26008139.790 7 -20168872.32623
 91  5 13 21 52 59.9960000  0  5G13G15G19G 2G 6
  21207197.3014  -10134469.15946  -6015004.61761
  22758133.324    -2160264.206 5  -1572617.22421
  22840465.8714   10306447.19444   8030984.63661
  19609419.684   -24442737.352 8
  19548756.918   -26029390.738 7 -20185431.48123
 91  5 13 21 53 14.9960000  0  5G13G15G19G 2G 6
  21195496.137   -10195952.712 6  -6062913.78421
  22754719.3164   -2178150.16845  -1586554.27861
  22847150.887    10341579.743 4   8058360.61821
  19609456.215   -24442549.150 8
  19544725.441   -26050569.962 7 -20201934.74723
 91  5 13 21 53 29.9960000  0  5G13G15G19G 2G 6
  21183813.035   -10257357.457 6  -6110761.52821
  22751348.160    -2195911.741 5  -1600394.43721
  22853847.1374   10376755.68144   8085770.41061
  19609501.590   -24442310.120 8 -19005020.93523
  19540710.6294  -26071676.66147 -20218381.50063
 91  5 13 21 53 44.9960000  0  5G13G15G19G 2G 6
  21172144.348   -10318680.712 6  -6158545.78721
  22747988.1524   -2213546.10045  -1614135.47761
  22860551.926    10411977.259 4   8113215.76521
  19609552.902   -24442017.813 8 -19004793.14923
  19536706.293   -26092708.230 7 -20234769.70523
 91  5 13 21 53 59.9960000  0  5G13G15G19G 2G 6
  21160488.949   -10379922.457 6  -6206266.52821
  22744658.1524   -2231053.16845  -1627777.30461
  22867261.8564   10447244.26144   8140696.55161
  19609619.676   -24441672.154 8 -19004523.79423
  19532719.332   -26113664.464 7 -20251099.22023
 91  5 13 21 54 14.9960000  0  5G13G15G19G 2G 6
  21148850.668   -10441077.497 6  -6253919.69921
  22741347.3324   -2248427.94245  -1641316.04861
  22873981.8324   10482561.20844   8168216.23661
  19609695.598   -24441268.753 8 -19004209.44224
  19528748.191   -26134540.587 7 -20267366.30823
 91  5 13 21 54 29.9960000  0  5G13G15G19G 2G 6
  21137231.816   -10502147.425 6  -6301506.55821
  22738050.488    -2265672.154 5  -1654753.07021
  22880711.6914   10517925.96944   8195773.17061
  19609783.340   -24440809.700 8 -19003851.72623
  19524789.309   -26155338.331 7 -20283572.31723
 91  5 13 21 54 44.9960000  0  5G13G15G19G 2G 6
  21125623.2384  -10563135.23746  -6349029.43961
  22734805.918    -2282788.913 5  -1668090.78721
  22887450.145    10553335.156 4   8223364.69421
  19609881.387   -24440298.233 8 -19003453.17323
  19520844.340   -26176060.787 7 -20299719.66023
 91  5 13 21 54 59.9960000  0  5G13G15G19G 2G 6
  21114036.363   -10624042.458 6  -6396489.50821
  22731586.2934   -2299780.09145  -1681330.62361
  22894196.762    10588786.898 4   8250989.39121
  19609988.106   -24439736.328 8 -19003015.30923
  19516915.527   -26196709.441 7 -20315809.49923
 91  5 13 21 55 14.9960000  0  5G13G15G19G 2G 6
  21102461.5984  -10684861.33246  -6443880.74161
  22728370.957    -2316638.592 5  -1694467.07521
  22900954.1374   10624288.19444   8278652.70161
  19610105.965   -24439116.887 8 -19002532.62123
  19513003.387   -26217277.003 7 -20331836.14623
 91  5 13 21 55 29.9960000  0  5G13G15G19G 2G 6
  21090900.1764  -10745598.77446  -6491208.52161
  22725184.082    -2333370.989 5  -1707505.29721
  22907717.535    10659831.820 4   8306349.02421
  19610234.715   -24438447.048 8 -19002010.65023
  19509102.660   -26237770.309 7 -20347804.93523
 91  5 13 21 55 44.9960000  0  5G13G15G19G 2G 6
  21079359.566   -10806252.149 6  -6538470.80221
  22722027.754    -2349974.973 5  -1720443.44121
  22914485.8484   10695420.07844   8334080.11061
  19610371.481   -24437724.666 8 -19001447.74823
  19505217.5664  -26258186.89447 -20363713.93563
 91  5 13 21 55 59.9960000  0  5G13G15G19G 2G 6
  21067833.660   -10866819.909 6  -6585666.35521
  22718887.418    -2366449.305 5  -1733280.52921
  22921265.652    10731053.925 4   8361846.72321
  19610519.254   -24436948.376 8 -19000842.83723
  19501346.941   -26278525.284 7 -20379562.00923
 91  5 13 21 56 14.9960000  0  5G13G15G19G 2G 6
  21056324.9574  -10927302.91146  -6632795.87761
  22715788.0594   -2382795.16445  -1746017.52661
  22928058.2704   10766731.86043   8389647.67961
  19610676.754   -24436119.886 8 -19000197.24623
  19497492.418   -26298786.834 7 -20395350.20623
 91  5 13 21 56 29.9960000  0  5G13G15G19G 2G 6
  21044831.9654  -10987701.00146  -6679859.23061
  22712697.6374   -2399012.14545  -1758654.11361
  22934855.3714   10802453.90544   8417483.03861
  19610844.145   -24435239.043 8 -18999510.86223
  19493650.590   -26318971.118 7 -20411078.20223
 91  5 13 21 56 44.9960000  0  5G13G15G19G 2G 6
  21033352.6764  -11048016.43346  -6726858.17361
  22709637.9574   -2415102.70545  -1771192.17361
  22941664.231    10838217.192 4   8445350.49621
  19611021.145   -24434308.759 8 -18998785.95723
  19489823.160   -26339080.606 7 -20426747.91323
 91  5 13 21 56 59.9960000  0  5G13G15G19G 2G 6
  21021892.113   -11108243.509 6  -6773788.28121
  22706593.0204   -2431061.58645  -1783627.63361
  22948478.2704   10874026.91843   8473254.15761
  19611208.9264  -24433323.71748 -18998018.38163
  19486012.731   -26359109.786 7 -20442355.04523
 91  5 13 21 57 14.9960000  0  5G13G15G19G 2G 6
  21010448.0594  -11168384.27146  -6820651.11461
  22703590.9184   -2446891.26345  -1795962.41061
  22955296.606    10909880.322 3   8501191.83521
  19611407.7774  -24432286.40148 -18997210.07163
  19482214.481   -26379061.024 7 -20457901.43923
 91  5 13 21 57 29.9960000  0  5G13G15G19G 2G 6
  20999019.6684  -11228447.31946  -6867453.39461
  22700595.1454   -2462600.23145  -1808203.14861
  22962124.0044   10945768.64743   8529156.72861
  19611611.8634  -24431205.74948 -18996368.00063
  19478432.410   -26398942.992 7 -20473393.86423
 91  5 13 21 57 44.9960000  0  5G13G15G19G 2G 6
  20987605.152   -11288423.396 6  -6914187.92621
  22697627.324    -2478179.772 5  -1820343.00721
  22968963.2384   10981700.42743   8557155.49261
  19611827.8714  -24430073.23648 -18995485.51263
  19474664.754   -26418746.507 7 -20488825.15723
 91  5 13 21 57 59.9960000  0  5G13G15G19G 2G 6
  20976209.0124  -11348308.18246  -6960851.29961
  22694687.4494   -2493625.31445  -1832378.49861
  22975812.879    11017679.732 3   8585191.29821
  19612053.293   -24428884.628 8 -18994559.31323
  19470910.512   -26438467.419 7 -20504192.07923
 91  5 13 21 58 14.9960000  0  5G13G15G19G 2G 6
  20964831.8404  -11408102.09146  -7007443.86061
  22691777.5124   -2508937.68045  -1844310.16261
  22982666.551    11053705.788 3   8613263.49921
  19612290.871   -24427640.564 8 -18993589.90623
  19467173.309   -26458106.022 7 -20519494.87423
 91  5 13 21 58 29.9960000  0  5G13G15G19G 2G 6
  20953468.512   -11467810.577 6  -7053969.87421
  22688888.9884   -2524122.43845  -1856142.41361
  22989534.324    11089772.630 3   8641367.51921
  19612539.129   -24426347.161 8 -18992582.04723
  19463450.824   -26477667.978 7 -20534737.93523
 91  5 13 21 58 44.9960000  0  5G13G15G19G 2G 6
  20942123.2074  -11527433.78946  -7100429.43561
  22686020.973    -2539179.834 5  -1867875.40821
  22996401.863    11125879.789 4   8669502.93921
  19612792.723   -24425004.893 8 -18991536.11023
  19459744.082   -26497153.573 7 -20549921.49723
 91  5 13 21 58 59.9960000  0  5G13G15G19G 2G 6
  20930792.8244  -11586971.78446  -7146822.58161
  22683185.1374   -2554110.10745  -1879509.36061
  23003286.9104   11162026.62543   8697669.26961
  19613059.0904  -24423614.27648 -18990452.50363
  19456050.324   -26516563.118 7 -20565045.80123
 91  5 13 21 59 14.9960000  0  5G13G15G19G 2G 6
  20919480.199   -11646414.924 6  -7193141.82421
  22680368.363    -2568903.678 5  -1891036.77121
  23010169.301    11198222.197 4   8725873.58221
  19613331.7154  -24422166.19148 -18989324.11563
  19452373.356   -26535886.899 7 -20580103.27223
 91  5 13 21 59 29.9960000  0  5G13G15G19G 2G 6
  20908190.121   -11705767.885 6  -7239390.80021
  22677578.2544   -2583565.86845  -1902461.81361
  23017067.7384   11234461.28944   8754111.80061
  19613619.652   -24420665.525 8 -18988154.75424
  19448710.762   -26555129.969 7 -20595097.85023
 91  5 13 21 59 44.9960000  0  5G13G15G19G 2G 6
  20896908.738   -11765032.292 6  -7285570.77921
  22674808.9494   -2598098.26345  -1913785.73361
  23023966.9814   11270742.01744   8782382.48661
  19613912.1994  -24419114.09748 -18986945.83864
  19445065.066   -26574293.725 7 -20610030.62723
 91  5 13 21 59 59.9960000  0  5G13G15G19G 2G 6
  20885648.473   -11824203.102 6  -7331677.80321
  22672065.9024   -2612495.83945  -1925004.59161
  23030880.152    11307068.784 4   8810689.05121
  19614219.0354  -24417507.54648 -18985693.97264
  19441433.613   -26593373.547 7 -20624898.00323
 91  5 13 22  0 14.9960000  0  5G13G15G19G 2G 6
  20874406.363   -11883289.785 6  -7377719.29521
  22669353.0744   -2626768.59045  -1936126.17061
  23037799.4264   11343431.66544   8839023.73761
  19614533.746   -24415855.750 8 -18984406.84724
  19437816.637   -26612379.068 7 -20639707.48323
 91  5 13 22  0 29.9960000  0  5G13G15G19G 2G 6
  20863176.457   -11942297.521 6  -7423699.27021
  22666662.1684   -2640921.86745  -1947154.66461
  23044725.5744   11379824.85243   8867382.04061
  19614855.4104  -24414164.49248 -18983088.97564
  19434213.441   -26631315.614 7 -20654463.21423
 91  5 13 22  0 44.9960000  0  5G13G15G19G 2G 6
  20851968.543   -12001209.847 6  -7469604.89521
  22663998.449    -2654939.470 5  -1958077.45521
  23051658.7074   11416264.45343   8895776.49461
  19615188.277   -24412417.670 8 -18981727.80322
  19430625.902   -26650166.843 7 -20669152.46822
 91  5 13 22  0 59.9960000  0  5G13G15G19G 2G 6
  20840774.8014  -12060027.17146  -7515436.49661
  22661356.8874   -2668822.03045  -1968894.99461
  23058602.832    11452749.581 3   8924206.40821
  19615529.168   -24410616.195 8 -18980324.04723
  19427056.9494  -26668933.36247 -20683775.72163
 91  5 13 22  1 14.9960000  0  5G13G15G19G 2G 6
  20829596.9884  -12118758.86546  -7561201.36661
  22658734.762    -2682578.974 5  -1979614.66621
  23065555.004    11489270.530 3   8952664.27621
  19615882.7624  -24408769.68748 -18978885.21161
  19423499.246   -26687624.400 7 -20698340.15121
 91  5 13 22  1 29.9960000  0  4G13G15G 2G 6
  20818440.5664  -12177398.00446  -7606894.11161
  22656139.606    -2696203.533 5  -1990231.16421
  19616241.957   -24406871.341 8 -18977405.95823
  19419956.410   -26706233.060 7 -20712840.38023
 91  5 13 22  1 44.9960000  0  4G13G15G 2G 6
  20807295.410   -12235942.819 6  -7652513.36921
  22653572.3794   -2709694.39845  -2000743.50661
  19616613.8564  -24404919.78848 -18975885.26564
  19416431.918   -26724757.979 7 -20727275.36323
 91  5 13 22  1 59.9960000  0  4G13G15G 2G 6
  20796173.285   -12294398.105 6  -7698062.85521
  22651028.285    -2723056.425 5  -2011155.43921
  19616994.9024  -24402920.39348 -18974327.28664
  19412921.387   -26743203.817 7 -20741648.72523
 91  5 13 22  2 14.9960000  0  4G13G15G 2G 6
  20785068.4414  -12352752.82246  -7743534.00361
  22648508.2934   -2736278.55545  -2021458.34261
  19617386.4104  -24400862.31348 -18972723.58364
  19409428.879   -26761559.689 7 -20755951.98523
 91  5 13 22  2 29.9960000  0  4G13G15G 2G 6
  20773983.043   -12411013.058 6  -7788931.50221
  22646022.8324   -2749367.36745  -2031657.39461
  19617788.3794  -24398752.46848 -18971079.53964
  19405951.160   -26779832.184 7 -20770190.27823
 91  5 13 22  2 44.9960000  0  4G13G15G 2G 6
  20762915.434   -12469179.754 6  -7834256.12121
  22643553.1914   -2762323.94445  -2041753.39261
  19618199.5824  -24396591.94148 -18969396.00664
  19402492.121   -26798022.064 7 -20784364.19223
 91  5 13 22  2 59.9960000  0  4G13G15G 2G 6
  20751862.496   -12527250.430 6  -7879505.93021
  22641120.363    -2775145.977 6  -2051744.53921
  19618619.0274  -24394378.71448 -18967671.40564
  19399043.566   -26816127.022 7 -20798471.93023
 91  5 13 22  3 14.9960000  0  4G13G15G 2G 6
  20740830.1844  -12585231.02246  -7924685.54161
  22638700.2074   -2787839.54746  -2061635.60361
  19619050.5274  -24392118.99348 -18965910.57764
  19395614.754   -26834153.083 7 -20812518.19323
 91  5 13 22  3 29.9960000  0  4G13G15G 2G 6
  20729813.4184  -12643120.62246  -7969794.25361
  22636312.6684   -2800404.07045  -2071426.12261
  19619488.246   -24389812.335 7 -18964113.17024
  19392198.207   -26852099.465 7 -20826502.37323
 91  5 13 22  3 44.9960000  0  4G13G15G 2G 6
  20718816.4494  -12700914.89246  -8014828.67561
  22633946.9964   -2812835.51446  -2081112.92461
  19619937.9414  -24387454.89148 -18962276.19264
  19388800.441   -26869961.978 7 -20840421.20023
 91  5 13 22  3 59.9960000  0  4G13G15G 2G 6
  20707833.3634  -12758615.05446  -8059789.77661
  22631605.785    -2825135.153 6  -2090697.01521
  19620397.4734  -24385048.15448 -18960400.80764
  19385416.598   -26887742.026 7 -20854275.76523
 91  5 13 22  4 14.9960000  0  4G13G15G 2G 6
  20696870.949   -12816219.144 6  -8104676.00521
  22629292.309    -2837300.947 5  -2100176.83021
  19620863.8874  -24382590.37348 -18958485.64164
  19382051.098   -26905437.331 7 -20868064.29723
 91  5 13 22  4 29.9960000  0  4G13G15G 2G 6
  20685929.863   -12873728.168 6  -8149488.15721
  22627001.4264   -2849334.39245  -2109553.51761
  19621338.6374  -24380083.07047 -18956531.89464
  19378697.481   -26923049.352 7 -20881787.93423
 91  5 13 22  4 44.9950000  0  4G13G15G 2G 6
  20675004.2264  -12931141.02346  -8194225.37561
  22624732.937    -2861237.706 5  -2118828.77021
  19621829.187   -24377529.757 8 -18954542.29124
  19375361.007   -26940579.900 7 -20895448.08723
 91  5 13 22  4 59.9950000  0  4G13G15G 2G 6
  20664099.2024  -12988455.22146  -8238885.71861
  22622494.616    -2873002.436 6  -2127996.08121
  19622321.6874  -24374920.08647 -18952508.77764
  19372044.741   -26958021.001 7 -20909038.53423
 91  5 13 22  5 14.9950000  0  4G13G15G 2G 6
  20653209.2654  -13045671.13346  -8283469.47761
  22620277.2734   -2884632.44846  -2137058.38861
  19622829.5934  -24372258.99548 -18950435.19264
  19368739.913   -26975376.300 7 -20922562.12723
 91  5 13 22  5 29.9950000  0  4G13G15G 2G 6
  20642342.7264  -13102784.36646  -8327973.23161
  22618105.648    -2896123.501 6  -2146012.43821
  19623346.7964  -24369542.17047 -18948318.17964
  19365455.983   -26992640.962 7 -20936015.09523
 91  5 13 22  5 44.9950000  0  4G13G15G 2G 6
  20631489.5774  -13159802.94146  -8372403.22761
  22615934.3984   -2907483.80046  -2154864.57361
  19623874.6324  -24366778.24647 -18946164.46764
  19362185.530   -27009823.447 7 -20949404.02923
 91  5 13 22  5 59.9950000  0  4G13G15G 2G 6
  20620661.5074  -13216720.78446  -8416754.72761
  22613797.3984   -2918707.62945  -2163610.39061
  19624407.3514  -24363961.72447 -18943969.76764
  19358932.312   -27026917.681 7 -20962724.19523
 91  5 13 22  6 14.9950000  0  4G13G15G 2G 6
  20609846.8514  -13273535.72946  -8461026.04961
  22611692.0464   -2929792.67246  -2172248.05961
  19624956.4914  -24361090.45047 -18941732.40764
  19355696.601   -27043921.453 7 -20975973.87023
 91  5 13 22  6 29.9950000  0  4G13G15G 2G 6
  20599055.0544  -13330252.68646  -8505221.01461
  22609607.3044   -2940744.27446  -2180781.74061
  19625510.4684  -24358169.85647 -18939456.61364
  19352477.694   -27060840.006 7 -20989157.13823
 91  5 13 22  6 44.9950000  0  4G13G15G 2G 6
  20588283.0074  -13386871.31546  -8549339.35761
  22607550.8824   -2951562.50346  -2189211.49161
  19626074.937   -24355200.133 7 -18937142.52924
  19349273.405   -27077673.119 7 -21002273.83223
 91  5 13 22  6 59.9950000  0  4G13G15G 2G 6
  20577524.9214  -13443388.09146  -8593378.33461
  22605515.280    -2962244.091 6  -2197534.77721
  19626652.0464  -24352178.18848 -18934787.77064
  19346087.913   -27094417.361 7 -21015321.27723
 91  5 13 22  7 14.9950000  0  4G13G15G 2G 6
  20566790.7804  -13499807.30046  -8637341.28361
  22603508.241    -2972793.325 6  -2205754.91621
  19627234.9214  -24349108.53447 -18932395.82564
  19342918.312   -27111077.064 7 -21028302.84623
 91  5 13 22  7 29.9950000  0  4G13G15G 2G 6
  20556071.929   -13556125.760 6  -8681225.74321
  22601520.702    -2983206.985 5  -2213869.43021
  19627827.9524  -24345988.04847 -18929964.26764
  19339763.812   -27127649.140 7 -21041216.13723
 91  5 13 22  7 44.9950000  0  4G13G15G 2G 6
  20545375.155   -13612343.552 6  -8725031.74521
  22599571.1714   -2993485.45745  -2221878.60561
  19628432.8124  -24342817.21348 -18927493.48264
  19336625.687   -27144133.551 7 -21054061.11623
 91  5 13 22  7 59.9950000  0  4G13G15G 2G 6
  20534695.4214  -13668464.59246  -8768762.36061
  22597638.773    -3003632.927 5  -2229785.68121
  19629043.9444  -24339600.61148 -18924987.03364
  19333505.335   -27160534.470 7 -21066841.03923
 91  5 13 22  8 14.9950000  0  4G13G15G 2G 6
  20524034.5624  -13724486.26846  -8812415.55461
  22595735.9214   -3013646.92446  -2237588.76361
  19629665.0154  -24336335.89748 -18922443.09664
  19330401.163   -27176849.467 7 -21079554.00923
 91  5 13 22  8 29.9950000  0  4G13G15G 2G 6
  20513396.0154  -13780405.73346  -8855989.10061
  22593849.4294   -3023525.14945  -2245286.04761
  19630297.0854  -24333020.70248 -18919859.81864
  19327313.468   -27193075.873 7 -21092197.94523
 91  5 13 22  8 44.9950000  0  4G13G15G 2G 6
  20502771.6554  -13836224.80446  -8899484.40861
  22591996.202    -3033269.682 5  -2252879.17421
  19630936.0934  -24329657.26747 -18917238.95564
  19324240.007   -27209215.507 7 -21104774.26223
 91  5 13 22  8 59.9950000  0  4G13G15G 2G 6
  20492172.4834  -13891928.76946  -8942890.03161
  22590172.374    -3042865.894 5  -2260356.71621
  19631588.1554  -24326231.16547 -18914569.26564
  19321190.710   -27225253.980 7 -21117271.76523
 91  5 13 22  9 14.9950000  0  4G13G15G 2G 6
  20481593.3824  -13947528.04946  -8986214.08061
  22588375.0464   -3052324.36946  -2267726.91361
  19632250.9604  -24322753.28448 -18911859.21764
  19318153.108   -27241201.663 7 -21129698.51423
 91  5 13 22  9 29.9950000  0  4G13G15G 2G 6
  20471032.3194  -14003024.59946  -9029458.09161
  22586600.327    -3061647.404 5  -2274991.60121
  19632920.3044  -24319225.70248 -18909110.44764
  19315137.0384  -27257060.37247 -21142055.94363
 91  5 13 22  9 44.9950000  0  4G13G15G 2G 6
  20460489.913   -14058422.335 6  -9072625.08121
  22584843.976    -3070838.942 5  -2282153.81221
  19633602.3434  -24315652.66848 -18906326.26263
  19312135.374   -27272834.262 7 -21154347.27223
 91  5 13 22  9 59.9950000  0  4G13G15G 2G 6
  20449967.038   -14113718.031 6  -9115712.58321
  22583130.0304   -3079896.16045  -2289211.35561
  19634291.9684  -24312031.52648 -18903504.58564
  19309151.233   -27288520.451 7 -21166570.26223
 91  5 13 22 10 14.9950000  0  4G13G15G 2G 6
  20439466.6014  -14168906.73646  -9158716.71461
  22581430.7494   -3088814.36345  -2296160.56861
  19634989.4994  -24308357.49948 -18900641.70364
  19306184.343   -27304113.782 7 -21178720.89223
 91  5 13 22 10 29.9950000  0  4G13G15G 2G 6
  20428983.4994  -14223992.53646  -9201640.65261
  22579756.2184   -3097597.79445  -2303004.76861
  19635698.4524  -24304635.13748 -18897741.15864
  19303233.687   -27319618.599 7 -21190802.55523
 91  5 13 22 10 44.9950000  0  4G13G15G 2G 6
  20418517.3824  -14278976.75546  -9244485.43461
  22578111.835    -3106248.048 6  -2309745.20421
  19636414.9994  -24300866.08248 -18894804.22164
  19300297.3514  -27335036.31847 -21202816.35263
 91  5 13 22 10 59.9950000  0  4G13G15G 2G 6
  20408077.1874  -14333855.13646  -9287247.75561
  22576486.819    -3114761.106 5  -2316378.74121
  19637140.6554  -24297046.54748 -18891827.95464
  19297382.5934  -27350362.88447 -21214759.11663
 91  5 13 22 11 14.9950000  0  4G13G15G 2G 6
  20397654.1944  -14388626.25146  -9329926.47961
  22574893.7334   -3123136.26645  -2322904.81461
  19637880.0934  -24293175.61048 -18888811.63664
  19294483.6484  -27365597.19247 -21226629.99863
 91  5 13 22 11 29.9950000  0  4G13G15G 2G 6
  20387250.9444  -14443291.30146  -9372522.56661
  22573334.874    -3131374.365 5  -2329324.09121
  19638623.4834  -24289254.71147 -18885756.38364
  19291603.390   -27380740.119 7 -21238429.66723
 91  5 13 22 11 44.9950000  0  4G13G15G 2G 6
  20376868.5234  -14497852.22946  -9415037.51261
  22571779.1014   -3139477.44745  -2335638.15161
  19639380.2104  -24285285.82948 -18882663.74364
  19288737.3744  -27395793.57347 -21250159.62363
 91  5 13 22 11 59.9950000  0  4G13G15G 2G 6
  20366505.6324  -14552310.34046  -9457472.34061
  22570270.8044   -3147447.16245  -2341848.29461
  19640142.9444  -24281270.87247 -18879535.19864
  19285889.296   -27410759.198 7 -21261821.14023
 91  5 13 22 12 14.9950000  0  4G13G15G 2G 6
  20356162.4994  -14606660.66046  -9499823.17661
  22568781.710    -3155278.953 5  -2347950.96721
  19640916.6794  -24277205.14248 -18876367.09764
  19283059.8984  -27425632.12347 -21273410.41963
 91  5 13 22 12 29.9950000  0  4G13G15G 2G 6
  20345839.9684  -14660910.61846  -9542095.80861
  22567315.538    -3162980.455 5  -2353952.12321
  19641699.7104  -24273096.55148 -18873165.59564
  19280245.8744  -27440419.96947 -21284933.40763
 91  5 13 22 12 44.9950000  0  4G13G15G 2G 6
  20335534.9914  -14715052.45246  -9584284.19461
  22565877.1794   -3170543.83745  -2359845.63861
  19642490.9834  -24268937.46448 -18869924.74564
  19277449.0304  -27455114.71947 -21296383.85163
 91  5 13 22 12 59.9950000  0  4G13G15G 2G 6
  20325252.9764  -14769085.25846  -9626387.62361
  22564464.319    -3177968.859 5  -2365631.34221
  19643291.2104  -24264727.65648 -18866644.37464
  19274669.6634  -27469715.82247 -21307761.32263
 91  5 13 22 13 14.9950000  0  4G13G15G 2G 6
  20314992.9914  -14823013.33146  -9668409.43461
  22563074.2334   -3185259.96145  -2371312.70061
  19644101.3044  -24260471.56348 -18863327.93364
  19271909.569   -27484227.801 7 -21319069.34723
 91  5 13 22 13 29.9950000  0  4G13G15G 2G 6
  20304750.2734  -14876835.60446  -9710348.81461
  22561713.437    -3192416.432 5  -2376889.16621
  19644919.2494  -24256168.62148 -18859974.99064
  19269165.7264  -27498649.66647 -21330307.15563
 91  5 13 22 13 44.9950000  0  4G13G15G 2G 6
  20294529.788   -14930550.140 6  -9752204.25521
  22560384.593    -3199436.523 6  -2382359.34121
  19645748.1484  -24251817.31248 -18856584.35964
  19266438.9134  -27512979.55047 -21341473.29063
 91  5 13 22 13 59.9950000  0  4G13G15G 2G 6
  20284328.3984  -14984156.22746  -9793975.16861
  22559065.2654   -3206319.63745  -2387722.79461
  19646584.6324  -24247416.94248 -18853155.49664
  19263729.749   -27527216.754 7 -21352567.19923
 91  5 13 22 14 14.9950000  0  4G13G15G 2G 6
  20274149.6714  -15037653.66246  -9835661.41661
  22557781.257    -3213065.686 5  -2392979.45421
  19647432.3584  -24242967.67448 -18849688.53064
  19261039.1084  -27541360.99347 -21363588.67763
 91  5 13 22 14 29.9950000  0  4G13G15G 2G 6
  20263989.460   -15091036.504 6  -9877258.38321
  22556520.882    -3219669.186 5  -2398125.01421
  19648289.5074  -24238464.12848 -18846179.27164
  19258364.4134  -27555406.71347 -21374533.38963
 91  5 13 22 14 44.9950000  0  4G13G15G 2G 6
  20253853.0934  -15144306.21346  -9918767.18861
  22555301.6484   -3226131.89646  -2403160.89061
  19649155.7494  -24233908.16148 -18842629.16764
  19255708.687   -27569355.249 7 -21385402.36223
 91  5 13 22 14 59.9950000  0  4G13G15G 2G 6
  20243735.7264  -15197461.97746  -9960187.20361
  22554095.460    -3232453.267 5  -2408086.62421
  19650033.4834  -24229299.18748 -18839037.75864
  19253073.3584  -27583206.01247 -21396195.16263
 91  5 13 22 15 14.9950000  0  4G13G15G 2G 6
  20233641.608   -15250512.397 6 -10001525.14221
  22552917.062    -3238641.851 5  -2412908.86821
  19650919.2574  -24224646.15748 -18835412.01264
  19250455.671   -27596967.720 7 -21406918.55223
 91  5 13 22 15 29.9950000  0  4G13G15G 2G 6
  20223565.8584  -15303458.60646 -10042781.87261
  22551768.398    -3244699.232 5  -2417628.87821
  19651811.2024  -24219950.42748 -18831753.01164
  19247853.2184  -27610641.54747 -21417573.47063
 91  5 13 22 15 44.9950000  0  4G13G15G 2G 6
  20213514.101   -15356291.464 6 -10083950.28521
  22550644.6554   -3250616.65646  -2422239.86261
  19652715.2964  -24215203.21148 -18828053.88064
  19245269.851   -27624218.298 7 -21428152.74523
 91  5 13 22 15 59.9950000  0  4G13G15G 2G 6
  20203481.4054  -15409014.20146 -10125032.88161
  22549534.2184   -3256397.11645  -2426744.11561
  19653627.0624  -24210407.96248 -18824317.31864
  19242704.077   -27637701.288 7 -21438658.95923
 91  5 13 22 16 14.9950000  0  4G13G15G 2G 6
  20193467.9834  -15461624.71346 -10166028.02661
  22548469.7884   -3262038.98745  -2431140.36361
  19654550.6084  -24205563.00548 -18820542.02864
  19240157.5304  -27651088.50947 -21449090.54963
 91  5 13 22 16 29.9950000  0  4G13G15G 2G 6
  20183479.624   -15514124.392 6 -10206936.81421
  22547420.046    -3267543.844 5  -2435429.82821
  19655481.5384  -24200670.26748 -18816729.50664
  19237626.3044  -27664381.78047 -21459448.93963
 91  5 13 22 16 44.9950000  0  4G13G15G 2G 6
  20173510.6014  -15566513.02546 -10247759.07061
  22546393.398    -3272911.816 5  -2439612.65821
  19656421.2494  -24195729.69647 -18812879.70964
  19235113.757   -27677580.859 7 -21469733.92423
 91  5 13 22 16 59.9950000  0  4G13G15G 2G 6
  20163562.6164  -15618782.90446 -10288488.79061
  22545403.4764   -3278135.47645  -2443683.03161
  19657372.8824  -24190733.81548 -18808986.81464
  19232622.976   -27690677.779 7 -21479939.30023
 91  5 13 22 17 14.9950000  0  4G13G15G 2G 6
  20153638.5934  -15670937.75546 -10329128.87861
  22544436.757    -3283218.859 5  -2447644.08921
  19658333.1014  -24185686.85348 -18805054.11464
  19230150.9054  -27703676.51547 -21490068.17563
 91  5 13 22 17 29.9950000  0  4G13G15G 2G 6
  20143736.788   -15722974.580 6 -10369677.00321
  22543488.827    -3288159.152 5  -2451493.66421
  19659304.3044  -24180586.25848 -18801079.62364
  19227693.8984  -27716574.53647 -21500118.57063
 91  5 13 22 17 44.9950000  0  4G13G15G 2G 6
  20133854.8824  -15774900.16646 -10410138.44261
  22542578.0154   -3292963.58345  -2455237.33461
  19660283.0774  -24175439.11648 -18797068.86164
  19225257.171   -27729378.403 7 -21510095.59623
 91  5 13 22 17 59.9950000  0  4G13G15G 2G 6
  20123996.280   -15826709.847 6 -10450509.56821
  22541690.1164   -3297627.71145  -2458871.72761
  19661271.6014  -24170240.90348 -18793018.29864
  19222841.218   -27742083.438 7 -21519995.60823
 91  5 13 22 18 14.9950000  0  4G13G15G 2G 6
  20114157.726   -15878410.709 6 -10490795.90421
  22540828.7184   -3302158.81645  -2462402.45561
  19662270.8984  -24164999.09748 -18788933.77564
  19220439.312   -27754697.088 7 -21529824.41423
 91  5 13 22 18 29.9950000  0  4G13G15G 2G 6
  20104337.6324  -15929995.09446 -10530991.47361
  22539994.5304   -3306549.27545  -2465823.57361
  19663276.4834  -24159706.28448 -18784809.50564
  19218060.3434  -27767211.42747 -21539575.84063
 91  5 13 22 18 44.9950000  0  4G13G15G 2G 6
  20094546.476   -15981466.357 6 -10571098.89321
  22539182.3194   -3310802.83145  -2469138.02461
  19664293.3824  -24154366.22048 -18780648.41764
  19215695.9214  -27779630.09347 -21549252.71463
 91  5 13 22 18 59.9950000  0  4G13G15G 2G 6
  20084773.585   -16032822.479 6 -10611116.59821
  22538407.0074   -3314917.82145  -2472344.51461
  19665319.8984  -24148977.17648 -18776449.16464
  19213349.9054  -27791951.12247 -21558853.50463
 91  5 13 22 19 14.9950000  0  4G13G15G 2G 6
  20075022.202   -16084062.541 6 -10651043.86321
  22537642.6714   -3318893.23545  -2475442.22761
  19666354.2264  -24143538.68148 -18772211.37464
  19211023.819   -27804173.719 7 -21568377.59523
 91  5 13 22 19 29.9950000  0  4G13G15G 2G 6
  20065291.2964  -16135191.01446 -10690884.17961
  22536914.4214   -3322734.17745  -2478435.15961
  19667398.2574  -24138055.54048 -18767938.79564
  19208717.2964  -27816302.37047 -21577828.47863
 91  5 13 22 19 44.9950000  0  4G13G15G 2G 6
  20055584.905   -16186204.986 6 -10730635.27521
  22536213.4524   -3326437.79145  -2481321.09261
  19668450.3984  -24132525.02048 -18763629.29264
  19206427.968   -27828334.393 7 -21587204.06923
 91  5 13 22 19 59.9950000  0  4G13G15G 2G 6
  20045898.819   -16237098.783 6 -10770292.73021
  22535530.1794   -3329998.54745  -2484095.70361
  19669512.6714  -24126941.64548 -18759278.61164
  19204156.5234  -27840263.83247 -21596499.72763
 91  5 13 22 20 14.9950000  0  4G13G15G 2G 6
  20036237.741   -16287867.314 6 -10809852.57621
  22534882.9764   -3333412.01445  -2486755.54661
  19670584.9524  -24121300.99248 -18754883.29364
  19201906.6484  -27852085.95347 -21605711.76163
 91  5 13 22 20 29.9950000  0  4G13G15G 2G 6
  20026601.648   -16338520.335 6 -10849322.41421
  22534258.1244   -3336688.20345  -2489308.41761
  19671666.6714  -24115613.11348 -18750451.18064
  19199675.515   -27863810.956 7 -21614848.11323
 91  5 13 22 20 44.9950000  0  4G13G15G 2G 6
  20016981.882   -16389057.208 6 -10888701.74521
  22533669.6484   -3339826.42145  -2491753.78261
  19672759.1164  -24109877.33848 -18745981.74464
  19197463.0934  -27875437.66747 -21623907.87963
 91  5 13 22 20 59.9950000  0  4G13G15G 2G 6
  20007389.890   -16439474.286 6 -10927987.74121
  22533087.999    -3342823.333 5  -2494089.02121
  19673858.5154  -24104090.37448 -18741472.42464
  19195270.9524  -27886962.69647 -21632888.41763
 91  5 13 22 21 14.9950000  0  4G13G15G 2G 6
  19997815.648   -16489775.369 6 -10967183.34421
  22532547.3664   -3345682.83545  -2496317.20861
  19674969.7184  -24098256.34048 -18736926.42464
  19193096.515   -27898389.880 7 -21641792.70723
 91  5 13 22 21 29.9950000  0  4G13G15G 2G 6
  19988265.608   -16539955.625 6 -11006284.79921
  22532031.3274   -3348400.78845  -2498435.10261
  19676089.2334  -24092371.05548 -18732340.48564
  19190941.2414  -27909714.66047 -21650617.20363
 91  5 13 22 21 44.9950000  0  4G13G15G 2G 6
  19978740.280   -16590015.958 6 -11045292.80721
  22531540.257    -3350978.379 5  -2500443.58921
  19677219.8904  -24086435.62048 -18727715.46964
  19188804.8354  -27920937.99246 -21659362.65163
 91  5 13 22 21 59.9950000  0  4G13G15G 2G 6
  19969238.163   -16639956.053 6 -11084207.12421
  22531074.6164   -3353415.39145  -2502342.55861
  19678359.7184  -24080449.79348 -18723051.18764
  19186688.9524  -27932059.57146 -21668028.81063
 91  5 13 22 22 14.9950000  0  4G13G15G 2G 6
  19959755.7964  -16689783.16046 -11123033.40061
  22530635.2104   -3355719.26645  -2504137.78561
  19679505.4134  -24074421.20748 -18718353.58664
  19184590.3434  -27943086.74047 -21676621.40263
 91  5 13 22 22 29.9950000  0  4G13G15G 2G 6
  19950297.577   -16739492.675 6 -11161768.04421
  22530229.6014   -3357885.56846  -2505825.81961
  19680663.3354  -24068345.58148 -18713619.33163
  19182510.3584  -27954014.89946 -21685136.84463
 91  5 13 22 22 44.9950000  0  4G13G15G 2G 6
  19940860.241   -16789083.773 6 -11200410.41421
  22529840.4054   -3359913.41045  -2507405.94661
  19681829.4764  -24062222.21348 -18708847.87064
  19180450.1324  -27964843.16147 -21693574.44563
 91  5 13 22 22 59.9950000  0  4G13G15G 2G 6
  19931446.2494  -16838554.04646 -11238958.63261
  22529486.1484   -3361801.10346  -2508876.88261
  19683002.0464  -24056049.11548 -18704037.66264
  19178408.0694  -27975569.38346 -21701932.53263
 91  5 13 22 23 14.9950000  0  4G13G15G 2G 6
  19922055.148   -16887906.323 7 -11277414.91321
  22529150.812    -3363551.669 6  -2510240.94221
  19684186.0544  -24049829.36548 -18699191.10464
  19176386.4444  -27986196.39247 -21710213.31563
 91  5 13 22 23 29.9950000  0  4G13G15G 2G 6
  19912686.374   -16937137.790 6 -11315777.04721
  22528839.4294   -3365162.50645  -2511496.14761
  19685378.7964  -24043560.45448 -18694306.23664
  19174384.3124  -27996721.44847 -21718414.64863
 91  5 13 22 23 44.9950000  0  4G13G15G 2G 6
  19903340.335   -16986245.473 6 -11354042.73221
  22528557.1244   -3366630.89145  -2512640.33461
  19686580.9524  -24037239.71748 -18689380.98564
  19172401.1714  -28007141.61147 -21726534.24863
 91  5 13 22 23 59.9950000  0  4G13G15G 2G 6
  19894020.366   -17035232.181 7 -11392214.15221
  22528302.1944   -3367960.04845  -2513676.03961
  19687792.6404  -24030870.51248 -18684417.96364
  19170438.4914  -28017459.89447 -21734574.46863
 91  5 13 22 24 14.9950000  0  4G13G15G 2G 6
  19884719.8434  -17084103.31046 -11430295.51261
  22528085.429    -3369155.520 5  -2514607.56521
  19689014.3514  -24024458.45548 -18679421.55964
  19168494.6014  -28027681.61047 -21742539.43763
 91  5 13 22 24 29.9950000  0  4G13G15G 2G 6
  19875440.4764  -17132858.77246 -11468286.74261
  22527872.9834   -3370217.28345  -2515434.91761
  19690241.6014  -24018003.52048 -18674391.74064
  19166565.8904  -28037806.96847 -21750429.31963
 91  5 13 22 24 44.9950000  0  4G13G15G 2G 6
  19866186.835   -17181489.017 6 -11506180.38921
  22527709.3664   -3371136.49745  -2516151.18261
  19691480.4524  -24011496.70048 -18669321.49064
  19164659.5464  -28047826.28446 -21758236.57463
 91  5 13 22 24 59.9950000  0  4G13G15G 2G 6
  19856955.9914  -17230000.13647 -11543981.22061
  22527551.069    -3371919.285 5  -2516761.12821
  19692726.8904  -24004944.19248 -18664215.63764
  19162771.2264  -28057745.88546 -21765966.13063
 91  5 13 22 25 14.9950000  0  4G13G15G 2G 6
  19847750.4294  -17278387.69947 -11581685.77861
  22527428.452    -3372561.642 5  -2517261.65221
  19693982.5544  -23998342.09248 -18659071.14164
  19160904.2734  -28067561.50846 -21773614.66163
 91  5 13 22 25 29.9950000  0  4G13G15G 2G 6
  19838566.976   -17326644.791 7 -11619288.65721
  22527341.226    -3373056.693 5  -2517647.41821
  19695251.1484  -23991683.52348 -18653882.65164
  19159057.1084  -28077266.00246 -21781176.60563
 91  5 13 22 25 44.9950000  0  4G13G15G 2G 6
  19829404.0934  -17374783.31247 -11656799.15661
  22527271.5624   -3373416.54345  -2517927.82061
  19696526.5154  -23984980.52648 -18648659.53664
  19157229.4684  -28086871.29346 -21788661.24063
 91  5 13 22 25 59.9950000  0  4G13G15G 2G 6
  19820266.351   -17422802.727 7 -11694216.84221
  22527227.366    -3373641.066 5  -2518102.73921
  19697811.3904  -23978233.01148 -18643401.73864
  19155421.4604  -28096377.07346 -21796068.33863
 91  5 13 22 26 14.9950000  0  4G13G15G 2G 6
  19811152.1324  -17470703.92947 -11731542.41461
  22527206.608    -3373731.350 5
  19699102.5384  -23971442.22548 -18638110.21663
  19153630.7964  -28105784.31946 -21803398.65763
 91  5 13 22 26 29.9950000  0  4G13G15G 2G 6
  19802058.679   -17518477.234 7 -11768768.32421
  22527214.023    -3373677.942 5
  19700404.9214  -23964598.71248 -18632777.61364
  19151860.2264  -28115083.35046 -21810644.65263
 91  5 13 22 26 44.9950000  0  4G13G15G 2G 6
  19792993.905   -17566131.083 7 -11805901.15221
  22527253.0544   -3373489.82445
  19701714.4444  -23957711.26548 -18627410.77863
  19150110.1164  -28124282.78646 -21817813.04263
 91  5 13 22 26 59.9950000  0  4G13G15G 2G 6
  19783948.1874  -17613662.95947 -11842938.93861
  22527318.007    -3373164.701 5
  19703036.1084  -23950777.68448 -18622007.99363
  19148377.1874  -28133379.97546 -21824901.75563
 91  5 13 22 27 14.9950000  0  4G13G15G 2G 6
  19774926.3354  -17661068.62947 -11879878.38661
  22527404.1324   -3372698.49945  -2517368.28461
  19704363.6554  -23943793.99048 -18616566.15364
  19146668.6404  -28142370.93146 -21831907.69063
 91  5 13 22 27 29.9950000  0  4G13G15G 2G 6
  19765928.1404  -17708350.39247 -11916721.27761
  22527524.077    -3372093.793 5  -2516897.09721
  19705701.2654  -23936762.55748 -18611087.11864
  19144977.0934  -28151258.08746 -21838832.73863
 91  5 13 22 27 44.9950000  0  4G13G15G 2G 6
  19756954.788   -17755509.905 7 -11953468.90821
  22527657.9764   -3371352.37745  -2516319.35961
  19707047.6014  -23929685.38148 -18605572.44063
  19143305.0464  -28160042.85646 -21845678.01463
 91  5 13 22 27 59.9950000  0  4G13G15G 2G 6
  19748003.5774  -17802547.40547 -11990121.46761
  22527828.9764   -3370474.64945  -2515635.41961
  19708403.2494  -23922562.81948 -18600022.39763
  19141653.0774  -28168725.53846 -21852443.73663
 91  5 13 22 28 14.9950000  0  4G13G15G 2G 6
  19739078.593   -17849458.820 7 -12026675.77021
  22528023.8274   -3369457.15345  -2514842.56061
  19709766.8984  -23915391.13348 -18594434.07763
  19140019.8744  -28177302.25546 -21859126.88963
 91  5 13 22 28 29.9950000  0  4G13G15G 2G 6
  19730174.3984  -17896242.69747 -12063130.70361
  22528237.7184   -3368298.65945  -2513939.86061
  19711141.8824  -23908169.54048 -18588806.86863
  19138408.4994  -28185771.75946 -21865726.49863
 91  5 13 22 28 44.9950000  0  4G13G15G 2G 6
  19721294.187   -17942896.124 6 -12099483.97421
  22528493.905    -3366996.485 5  -2512925.18021
  19712527.2574  -23900895.16648 -18583138.52964
  19136819.1944  -28194131.03947 -21872240.22263
 91  5 13 22 28 59.9950000  0  4G13G15G 2G 6
  19712442.0624  -17989427.44947 -12135742.11661
  22528767.7494   -3365559.30245  -2511805.30061
  19713920.0544  -23893576.69448 -18577435.82963
  19135245.8274  -28202388.50747 -21878674.60963
 91  5 13 22 29 14.9950000  0  4G13G15G 2G 6
  19703611.4994  -18035833.25946 -12171902.44861
  22529067.3434   -3363983.93745  -2510577.72461
  19715322.6244  -23886211.07648 -18571696.39963
  19133695.7884  -28210541.14247 -21885027.31163
 91  5 13 22 29 29.9950000  0  4G13G15G 2G 6
  19694803.8514  -18082112.60446 -12207964.24261
  22529394.0854   -3362269.77745  -2509242.02461
  19716733.1484  -23878797.69148 -18565919.74064
  19132163.8354  -28218587.82847 -21891297.45663
 91  5 13 22 29 44.9950000  0  4G13G15G 2G 6
  19686022.2024  -18128266.86147 -12243928.56461
  22529745.1714   -3360418.82245  -2507799.72061
  19718151.6874  -23871338.15247 -18560107.12063
  19130653.8044  -28226530.14347 -21897486.26963
 91  5 13 22 29 59.9950000  0  4G13G15G 2G 6
  19677265.0934  -18174290.67247 -12279791.24161
  22530117.7024   -3358425.30345  -2506246.33161
  19719581.2264  -23863826.90247 -18554254.20863
  19129163.4374  -28234362.48347 -21903589.38963
 91  5 13 22 30 14.9950000  0  4G13G15G 2G 6
  19668528.8124  -18220185.65946 -12315553.53761
  22530528.7734   -3356291.27445  -2504583.44461
  19721018.6714  -23856265.90247 -18548362.52463
  19127692.1164  -28242086.50747 -21909608.10663
 91  5 13 22 30 29.9950000  0  4G13G15G 2G 6
  19659819.3984  -18265958.52146 -12351220.66961
  22530958.3194   -3354023.71845  -2502816.50061
  19722465.0304  -23848662.27847 -18542437.63063
  19126242.8194  -28249709.09247 -21915547.78063
 91  5 13 22 30 44.9950000  0  4G13G15G 2G 6
  19651132.749   -18311604.841 6 -12386789.19221
  22531421.593    -3351618.436 5  -2500942.26221
  19723921.8664  -23841011.78247 -18536476.21064
  19124812.6874  -28257225.76747 -21921404.93563
 91  5 13 22 30 59.9950000  0  4G13G15G 2G 6
  19642472.1714  -18357123.75846 -12422258.44761
  22531904.4604   -3349075.03845  -2498960.39561
  19725388.0694  -23833313.80547 -18530477.79464
  19123401.9444  -28264635.83747 -21927179.00763
 91  5 13 22 31 14.9950000  0  4G13G15G 2G 6
  19633831.366   -18402516.528 6 -12457629.39921
  22532412.1324   -3346394.97445  -2496872.04361
  19726863.3354  -23825569.92548 -18524443.60763
  19122013.2494  -28271940.56447 -21932870.99963
 91  5 13 22 31 29.9950000  0  4G13G15G 2G 6
  19625219.499   -18447779.013 6 -12492898.83821
  22532949.452    -3343574.477 5  -2494674.23821
  19728345.0074  -23817776.18048 -18518370.56363
  19120642.7734  -28279135.85947 -21938477.72363
 91  5 13 22 31 44.9950000  0  4G13G15G 2G 6
  19616632.4914  -18492911.37047 -12528066.88161
  22533511.4764   -3340613.77345  -2492367.20961
  19729836.7804  -23809932.99247 -18512258.99964
  19119295.5074  -28286222.00247 -21943999.39063
 91  5 13 22 31 59.9950000  0  4G13G15G 2G 6
  19608066.7494  -18537915.22446 -12563134.78561
  22534099.3044   -3337514.94045  -2489952.53361
  19731337.5234  -23802042.38447 -18506110.48063
  19117965.2884  -28293200.75747 -21949437.38363
 91  5 13 22 32 14.9950000  0  4G13G15G 2G 6
  19599528.9294  -18582791.27346 -12598103.10361
  22534720.5304   -3334278.98345  -2487431.02161
  19732847.7494  -23794105.24647 -18499925.69863
  19116656.5934  -28300072.72147 -21954792.15763
 91  5 13 22 32 29.9950000  0  4G13G15G 2G 6
  19591011.8514  -18627536.75246 -12632969.67661
  22535353.4374   -3330903.14445  -2484800.51061
  19734367.3354  -23786118.81247 -18493702.51363
  19115372.2574  -28306834.99247 -21960061.46063
 91  5 13 22 32 44.9950000  0  4G13G15G 2G 6
  19582523.9604  -18672153.05247 -12667735.59261
  22536026.5154   -3327389.27745  -2482062.42761
  19735897.6164  -23778084.93948 -18487442.36063
  19114105.1484  -28313489.28347 -21965246.61863
 91  5 13 22 32 59.9950000  0  4G13G15G 2G 6
  19574056.726   -18716640.200 7 -12702400.87521
  22536724.4524   -3323737.44645  -2479216.85061
  19737435.554   -23770003.636 8 -18481145.24924
  19112860.2264  -28320035.43447 -21970347.51763
 91  5 13 22 33 14.9950000  0  4G13G15G 2G 6
  19565617.8514  -18760995.44947 -12736963.37861
  22537445.4374   -3319945.31745  -2476261.93261
  19738984.0854  -23761872.53547 -18474809.33263
  19111634.3354  -28326470.95047 -21975362.20163
 91  5 13 22 33 29.9950000  0  4G13G15G 2G 6
  19557201.6714  -18805224.58247 -12771427.60561
  22538191.116    -3316018.973 5  -2473202.43221
  19740538.5624  -23753697.93647 -18468439.52463
  19110431.6484  -28332801.67747 -21980295.23963
 91  5 13 22 33 44.9950000  0  4G13G15G 2G 6
  19548807.4834  -18849330.24747 -12805795.62861
  22538962.663    -3311961.338 5  -2470040.67021
  19742100.9834  -23745482.61047 -18462037.98263
  19109244.7334  -28339030.20447 -21985148.63563
 91  5 13 22 33 59.9950000  0  4G13G15G 2G 6
  19540439.1874  -18893303.64147 -12840060.58161
  22539767.983    -3307763.871 5  -2466769.91121
  19743673.5154  -23737217.95447 -18455597.99963
  19108080.1084  -28345147.99047 -21989915.73863
 91  5 13 22 34 14.9950000  0  4G13G15G 2G 6
  19532097.9374  -18937142.06847 -12874220.36661
  22540588.4604   -3303424.18845  -2463388.34361
  19745256.1554  -23728901.67147 -18449117.78563
  19106939.0384  -28351152.26847 -21994594.39862
 91  5 13 22 34 29.9950000  0  4G13G15G 2G 6
  19523780.6404  -18980849.24947 -12908277.88261
  22541440.3824   -3298946.81845  -2459899.48661
  19746846.8274  -23720537.72147 -18442600.43263
  19105816.5934  -28357046.95547 -21999187.65862
 91  5 13 22 34 44.9950000  0  4G13G15G 2G 6
  19515486.7414  -19024427.32247 -12942234.79161
  22542317.7964   -3294333.41445  -2456304.62061
  19748448.8194  -23712128.07047 -18436047.46663
  19104714.7264  -28362833.88847 -22003696.96163
 91  5 13 22 34 59.9950000  0  4G13G15G 2G 6
  19507218.8664  -19067876.74847 -12976091.46461
  22543227.0074   -3289584.80945  -2452604.44161
  19750056.3584  -23703673.20447 -18429459.26563
  19103634.0854  -28368513.52847 -22008122.65063
 91  5 13 22 35 14.9950000  0  4G13G15G 2G 6
  19498975.202   -19111197.545 7 -13009847.90221
  22544151.6794   -3284701.49045  -2448799.24961
  19751676.1714  -23695173.67247 -18422836.26163
  19102574.0854  -28374085.99647 -22012464.83563
 91  5 13 22 35 29.9950000  0  4G13G15G 2G 6
  19490756.1794  -19154382.65247 -13043498.60561
  22545103.7024   -3279676.47345  -2444883.66461
  19753303.7104  -23686622.79648 -18416173.25063
  19101535.5234  -28379544.40547 -22016718.14562
 91  5 13 22 35 44.9950000  0  4G13G15G 2G 6
  19482563.4524  -19197438.76847 -13077048.79261
  22546090.2414   -3274516.89945  -2440863.21261
  19754937.132   -23678027.422 7 -18409475.56523
  19100517.8124  -28384895.62947 -22020887.92762
 91  5 13 22 35 59.9950000  0  4G13G15G 2G 6
  19474396.187   -19240360.403 7 -13110494.19921
  22547103.335    -3269217.644 5  -2436733.93021
  19756581.9054  -23669382.31447 -18402739.12663
  19099521.0154  -28390134.16347 -22024969.90762
 91  5 13 22 36 14.9950000  0  4G13G15G 2G 6
  19466252.0694  -19283155.58247 -13143841.06361
  22548131.1084   -3263786.90745  -2432502.17061
  19758234.7414  -23660695.77647 -18395970.40064
  19098543.6554  -28395267.90947 -22028970.23462
 91  5 13 22 36 29.9950000  0  4G13G15G 2G 6
  19458135.1714  -19325821.09747 -13177086.89661
  22549189.663    -3258221.532 5  -2428165.52521
  19759896.8584  -23651964.56947 -18389166.87063
  19097586.8744  -28400293.77847 -22032886.49262
 91  5 13 22 36 44.9950000  0  4G13G15G 2G 6
  19450037.757   -19368354.248 7 -13210229.58021
  22550275.7104   -3252519.43945  -2423722.34361
  19761566.530   -23643186.466 7 -18382326.80423
  19096652.0304  -28405209.32947 -22036716.79063
 91  5 13 22 36 59.9950000  0  4G13G15G 2G 6
  19441972.616   -19410755.400 7 -13243269.41221
  22551387.1244   -3246681.19645  -2419173.04961
  19763245.3044  -23634362.14147 -18375450.70963
  19095737.0464  -28410014.72847 -22040461.26062
 91  5 13 22 37 14.9950000  0  4G13G15G 2G 6
  19433926.6014  -19453023.53047 -13276205.58461
  22552524.0074   -3240706.42445  -2414517.37561
  19764933.4684  -23625490.80147 -18368537.98463
  19094844.5694  -28414709.13447 -22044119.23863
 91  5 13 22 37 29.9950000  0  4G13G15G 2G 6
  19425910.5854  -19495161.28747 -13309040.17461
  22553687.7104   -3234597.78745  -2409757.40461
  19766630.5774  -23616575.16847 -18361590.74863
  19093971.4684  -28419295.16347 -22047692.77162
 91  5 13 22 37 44.9950000  0  4G13G15G 2G 6
  19417916.4684  -19537159.89847 -13341766.32861
  22554873.2654   -3228346.48345  -2404886.26161
  19768337.741   -23607606.628 8 -18354602.28223
  19093120.5934  -28423764.11047 -22051175.06562
 91  5 13 22 37 59.9950000  0  4G13G15G 2G 6
  19409950.304   -19579025.799 7 -13374389.08721
  22556088.0384   -3221959.28645  -2399909.20861
  19770053.1484  -23598591.72147 -18347577.69563
  19092292.7104  -28428122.37247 -22054571.11663
 91  5 13 22 38 14.9950000  0  4G13G15G 2G 6
  19402011.7884  -19620750.81047 -13406902.04761
  22557335.4764   -3215428.37845  -2394820.20761
  19771778.194   -23589522.487 7 -18340510.77123
  19091485.1084  -28432361.82247 -22057874.57963
 91  5 13 22 38 29.9950000  0  4G13G15G 2G 6
  19394095.0624  -19662339.72647 -13439308.96561
  22558599.2024   -3208759.18145  -2389623.43861
  19773514.3744  -23580404.12147 -18333405.55863
  19090700.6244  -28436487.31447 -22061089.25362
 91  5 13 22 38 44.9950000  0  4G13G15G 2G 6
  19386205.7024  -19703791.11647 -13471608.71761
  22559900.288    -3201950.309 5  -2384317.81421
  19775259.483   -23571235.184 7 -18326260.94323
  19089937.7574  -28440497.46747 -22064214.05063
 91  5 13 22 38 59.9950000  0  4G13G15G 2G 6
  19378346.0694  -19745104.17147 -13503800.68062
  22561218.1164   -3195001.14645  -2378902.89461
  19777014.4994  -23562015.20447 -18319076.54963
  19089196.2654  -28444391.54847 -22067248.40563
 91  5 13 22 39 14.9950000  0  4G13G15G 2G 6
  19370512.1244  -19786282.82447 -13535887.91461
  22562573.2184   -3187915.84745  -2373381.87161
  19778778.171   -23552748.095 8 -18311855.44123
  19088475.5544  -28448173.32147 -22070195.23463
 91  5 13 22 39 29.9950000  0  4G13G15G 2G 6
  19362698.530   -19827330.333 7 -13567872.95722
  22563940.5074   -3180698.14945  -2367757.69761
  19780549.3904  -23543437.69647 -18304600.58863
  19087777.1874  -28451846.30447 -22073057.30362
 91  5 13 22 39 44.9950000  0  4G13G15G 2G 6
  19354913.2334  -19868245.00547 -13599754.49262
  22565339.7654   -3173346.39845  -2362029.07561
  19782330.523   -23534082.208 7 -18297310.61223
  19087098.6874  -28455408.69447 -22075833.19063
 91  5 13 22 39 59.9950000  0  3G13G 2G 6
  19347151.4374  -19909028.58547 -13631533.87462
  19784118.8194  -23524683.68547 -18289987.09763
  19086442.5624  -28458862.24147 -22078524.26962
